<?xml version="1.0" encoding="UTF-8" standalone="no" ?>
<gpx xmlns="http://www.topografix.com/GPX/1/1" xmlns:xsi="http://www.w3.org/2001/XMLSchema-instance" xsi:schemaLocation="http://www.topografix.com/GPX/1/1 http://www.topografix.com/GPX/1/1/gpx.xsd" version="1.1" creator="VisuGPX - https://www.visugpx.com">
  <metadata>
    <name>Morêt Aqueduc 17-2-22</name>
    <desc><![CDATA[Boucle en forêt entre Moret sur Loing et Sorques.]]></desc>
  </metadata>
  <trk>
    <name><![CDATA[Morêt Aqueduc 17-2-22]]></name>
    <trkseg>
      <trkpt lat="48.36642" lon="2.80811">
        <ele>87.17</ele>
        <time>2022-02-17T12:39:49Z</time>
      </trkpt>
      <trkpt lat="48.3664" lon="2.80808">
        <ele>87.28</ele>
        <time>2022-02-17T12:39:54Z</time>
      </trkpt>
      <trkpt lat="48.36641" lon="2.80806">
        <ele>87.11</ele>
        <time>2022-02-17T12:39:59Z</time>
      </trkpt>
      <trkpt lat="48.36642" lon="2.80805">
        <ele>87.05</ele>
        <time>2022-02-17T12:40:04Z</time>
      </trkpt>
      <trkpt lat="48.36642" lon="2.80804">
        <ele>87.01</ele>
        <time>2022-02-17T12:40:09Z</time>
      </trkpt>
      <trkpt lat="48.36643" lon="2.80804">
        <ele>86.82</ele>
        <time>2022-02-17T12:40:14Z</time>
      </trkpt>
      <trkpt lat="48.36643" lon="2.80802">
        <ele>86.73</ele>
        <time>2022-02-17T12:40:19Z</time>
      </trkpt>
      <trkpt lat="48.36643" lon="2.808">
        <ele>85.41</ele>
        <time>2022-02-17T12:40:24Z</time>
      </trkpt>
      <trkpt lat="48.36639" lon="2.80799">
        <ele>84.12</ele>
        <time>2022-02-17T12:40:29Z</time>
      </trkpt>
      <trkpt lat="48.36633" lon="2.80798">
        <ele>83.67</ele>
        <time>2022-02-17T12:40:34Z</time>
      </trkpt>
      <trkpt lat="48.3663" lon="2.80793">
        <ele>83.51</ele>
        <time>2022-02-17T12:40:39Z</time>
      </trkpt>
      <trkpt lat="48.36626" lon="2.80786">
        <ele>83.71</ele>
        <time>2022-02-17T12:40:44Z</time>
      </trkpt>
      <trkpt lat="48.36622" lon="2.80785">
        <ele>83.82</ele>
        <time>2022-02-17T12:40:49Z</time>
      </trkpt>
      <trkpt lat="48.36619" lon="2.80783">
        <ele>83.86</ele>
        <time>2022-02-17T12:40:54Z</time>
      </trkpt>
      <trkpt lat="48.36616" lon="2.8078">
        <ele>83.74</ele>
        <time>2022-02-17T12:40:59Z</time>
      </trkpt>
      <trkpt lat="48.36611" lon="2.80775">
        <ele>83.65</ele>
        <time>2022-02-17T12:41:04Z</time>
      </trkpt>
      <trkpt lat="48.36607" lon="2.80773">
        <ele>83.87</ele>
        <time>2022-02-17T12:41:09Z</time>
      </trkpt>
      <trkpt lat="48.36603" lon="2.8077">
        <ele>83.53</ele>
        <time>2022-02-17T12:41:14Z</time>
      </trkpt>
      <trkpt lat="48.36598" lon="2.80767">
        <ele>83.36</ele>
        <time>2022-02-17T12:41:19Z</time>
      </trkpt>
      <trkpt lat="48.36592" lon="2.80764">
        <ele>83.25</ele>
        <time>2022-02-17T12:41:24Z</time>
      </trkpt>
      <trkpt lat="48.36585" lon="2.80761">
        <ele>83.26</ele>
        <time>2022-02-17T12:41:29Z</time>
      </trkpt>
      <trkpt lat="48.36579" lon="2.80757">
        <ele>83.35</ele>
        <time>2022-02-17T12:41:34Z</time>
      </trkpt>
      <trkpt lat="48.36574" lon="2.80755">
        <ele>83.2</ele>
        <time>2022-02-17T12:41:39Z</time>
      </trkpt>
      <trkpt lat="48.36568" lon="2.80751">
        <ele>82.85</ele>
        <time>2022-02-17T12:41:44Z</time>
      </trkpt>
      <trkpt lat="48.36562" lon="2.80746">
        <ele>82.94</ele>
        <time>2022-02-17T12:41:49Z</time>
      </trkpt>
      <trkpt lat="48.36557" lon="2.80742">
        <ele>82.58</ele>
        <time>2022-02-17T12:41:54Z</time>
      </trkpt>
      <trkpt lat="48.36552" lon="2.80739">
        <ele>82.8</ele>
        <time>2022-02-17T12:41:59Z</time>
      </trkpt>
      <trkpt lat="48.36547" lon="2.80735">
        <ele>82.59</ele>
        <time>2022-02-17T12:42:04Z</time>
      </trkpt>
      <trkpt lat="48.36542" lon="2.80732">
        <ele>82.42</ele>
        <time>2022-02-17T12:42:09Z</time>
      </trkpt>
      <trkpt lat="48.36538" lon="2.80728">
        <ele>82.44</ele>
        <time>2022-02-17T12:42:14Z</time>
      </trkpt>
      <trkpt lat="48.36534" lon="2.80725">
        <ele>82.39</ele>
        <time>2022-02-17T12:42:19Z</time>
      </trkpt>
      <trkpt lat="48.36531" lon="2.80721">
        <ele>82.35</ele>
        <time>2022-02-17T12:42:24Z</time>
      </trkpt>
      <trkpt lat="48.36525" lon="2.80721">
        <ele>81.94</ele>
        <time>2022-02-17T12:42:29Z</time>
      </trkpt>
      <trkpt lat="48.3652" lon="2.80718">
        <ele>81.76</ele>
        <time>2022-02-17T12:42:34Z</time>
      </trkpt>
      <trkpt lat="48.36516" lon="2.80714">
        <ele>81.81</ele>
        <time>2022-02-17T12:42:39Z</time>
      </trkpt>
      <trkpt lat="48.3651" lon="2.80707">
        <ele>81.68</ele>
        <time>2022-02-17T12:42:44Z</time>
      </trkpt>
      <trkpt lat="48.36505" lon="2.80704">
        <ele>81.8</ele>
        <time>2022-02-17T12:42:49Z</time>
      </trkpt>
      <trkpt lat="48.36501" lon="2.807">
        <ele>81.91</ele>
        <time>2022-02-17T12:42:54Z</time>
      </trkpt>
      <trkpt lat="48.36495" lon="2.80699">
        <ele>81.97</ele>
        <time>2022-02-17T12:42:59Z</time>
      </trkpt>
      <trkpt lat="48.3649" lon="2.80699">
        <ele>81.95</ele>
        <time>2022-02-17T12:43:04Z</time>
      </trkpt>
      <trkpt lat="48.36483" lon="2.80697">
        <ele>81.64</ele>
        <time>2022-02-17T12:43:09Z</time>
      </trkpt>
      <trkpt lat="48.36479" lon="2.80695">
        <ele>81.23</ele>
        <time>2022-02-17T12:43:14Z</time>
      </trkpt>
      <trkpt lat="48.36474" lon="2.80694">
        <ele>81.1</ele>
        <time>2022-02-17T12:43:19Z</time>
      </trkpt>
      <trkpt lat="48.36469" lon="2.80691">
        <ele>81.05</ele>
        <time>2022-02-17T12:43:24Z</time>
      </trkpt>
      <trkpt lat="48.36466" lon="2.80687">
        <ele>80.91</ele>
        <time>2022-02-17T12:43:29Z</time>
      </trkpt>
      <trkpt lat="48.36463" lon="2.80682">
        <ele>80.76</ele>
        <time>2022-02-17T12:43:34Z</time>
      </trkpt>
      <trkpt lat="48.36462" lon="2.80678">
        <ele>79.68</ele>
        <time>2022-02-17T12:43:39Z</time>
      </trkpt>
      <trkpt lat="48.3646" lon="2.80673">
        <ele>79.54</ele>
        <time>2022-02-17T12:43:44Z</time>
      </trkpt>
      <trkpt lat="48.36458" lon="2.80667">
        <ele>79.48</ele>
        <time>2022-02-17T12:43:49Z</time>
      </trkpt>
      <trkpt lat="48.36456" lon="2.80662">
        <ele>79.32</ele>
        <time>2022-02-17T12:43:54Z</time>
      </trkpt>
      <trkpt lat="48.36454" lon="2.80657">
        <ele>78.52</ele>
        <time>2022-02-17T12:43:59Z</time>
      </trkpt>
      <trkpt lat="48.36452" lon="2.80653">
        <ele>77.95</ele>
        <time>2022-02-17T12:44:04Z</time>
      </trkpt>
      <trkpt lat="48.36449" lon="2.80646">
        <ele>77.79</ele>
        <time>2022-02-17T12:44:09Z</time>
      </trkpt>
      <trkpt lat="48.36445" lon="2.80639">
        <ele>76.79</ele>
        <time>2022-02-17T12:44:14Z</time>
      </trkpt>
      <trkpt lat="48.36442" lon="2.8063">
        <ele>76.66</ele>
        <time>2022-02-17T12:44:19Z</time>
      </trkpt>
      <trkpt lat="48.36439" lon="2.80624">
        <ele>76.53</ele>
        <time>2022-02-17T12:44:24Z</time>
      </trkpt>
      <trkpt lat="48.36437" lon="2.80617">
        <ele>76.37</ele>
        <time>2022-02-17T12:44:29Z</time>
      </trkpt>
      <trkpt lat="48.36433" lon="2.80611">
        <ele>76.17</ele>
        <time>2022-02-17T12:44:34Z</time>
      </trkpt>
      <trkpt lat="48.3643" lon="2.80606">
        <ele>75.81</ele>
        <time>2022-02-17T12:44:39Z</time>
      </trkpt>
      <trkpt lat="48.36426" lon="2.80601">
        <ele>75.61</ele>
        <time>2022-02-17T12:44:44Z</time>
      </trkpt>
      <trkpt lat="48.36422" lon="2.80595">
        <ele>75.49</ele>
        <time>2022-02-17T12:44:49Z</time>
      </trkpt>
      <trkpt lat="48.36418" lon="2.80588">
        <ele>75.37</ele>
        <time>2022-02-17T12:44:54Z</time>
      </trkpt>
      <trkpt lat="48.36415" lon="2.80582">
        <ele>75.31</ele>
        <time>2022-02-17T12:44:59Z</time>
      </trkpt>
      <trkpt lat="48.36412" lon="2.80576">
        <ele>75.14</ele>
        <time>2022-02-17T12:45:04Z</time>
      </trkpt>
      <trkpt lat="48.36408" lon="2.8057">
        <ele>74.94</ele>
        <time>2022-02-17T12:45:09Z</time>
      </trkpt>
      <trkpt lat="48.36404" lon="2.80564">
        <ele>74.81</ele>
        <time>2022-02-17T12:45:14Z</time>
      </trkpt>
      <trkpt lat="48.364" lon="2.80559">
        <ele>74.75</ele>
        <time>2022-02-17T12:45:19Z</time>
      </trkpt>
      <trkpt lat="48.36395" lon="2.80553">
        <ele>74.69</ele>
        <time>2022-02-17T12:45:24Z</time>
      </trkpt>
      <trkpt lat="48.36391" lon="2.80548">
        <ele>74.58</ele>
        <time>2022-02-17T12:45:29Z</time>
      </trkpt>
      <trkpt lat="48.36389" lon="2.80542">
        <ele>74.55</ele>
        <time>2022-02-17T12:45:34Z</time>
      </trkpt>
      <trkpt lat="48.36384" lon="2.80533">
        <ele>74.49</ele>
        <time>2022-02-17T12:45:39Z</time>
      </trkpt>
      <trkpt lat="48.36382" lon="2.80525">
        <ele>74.58</ele>
        <time>2022-02-17T12:45:44Z</time>
      </trkpt>
      <trkpt lat="48.36378" lon="2.80519">
        <ele>74.73</ele>
        <time>2022-02-17T12:45:49Z</time>
      </trkpt>
      <trkpt lat="48.36373" lon="2.80514">
        <ele>74.75</ele>
        <time>2022-02-17T12:45:54Z</time>
      </trkpt>
      <trkpt lat="48.3637" lon="2.8051">
        <ele>74.58</ele>
        <time>2022-02-17T12:45:59Z</time>
      </trkpt>
      <trkpt lat="48.36368" lon="2.80506">
        <ele>74.56</ele>
        <time>2022-02-17T12:46:04Z</time>
      </trkpt>
      <trkpt lat="48.36362" lon="2.80498">
        <ele>74.58</ele>
        <time>2022-02-17T12:46:09Z</time>
      </trkpt>
      <trkpt lat="48.36358" lon="2.80491">
        <ele>74.55</ele>
        <time>2022-02-17T12:46:14Z</time>
      </trkpt>
      <trkpt lat="48.36354" lon="2.80484">
        <ele>74.52</ele>
        <time>2022-02-17T12:46:19Z</time>
      </trkpt>
      <trkpt lat="48.36351" lon="2.80476">
        <ele>74.3</ele>
        <time>2022-02-17T12:46:24Z</time>
      </trkpt>
      <trkpt lat="48.36346" lon="2.80468">
        <ele>74.08</ele>
        <time>2022-02-17T12:46:29Z</time>
      </trkpt>
      <trkpt lat="48.36343" lon="2.8046">
        <ele>74.12</ele>
        <time>2022-02-17T12:46:34Z</time>
      </trkpt>
      <trkpt lat="48.3634" lon="2.80455">
        <ele>74.29</ele>
        <time>2022-02-17T12:46:39Z</time>
      </trkpt>
      <trkpt lat="48.36334" lon="2.80449">
        <ele>74.51</ele>
        <time>2022-02-17T12:46:44Z</time>
      </trkpt>
      <trkpt lat="48.36331" lon="2.80445">
        <ele>74.4</ele>
        <time>2022-02-17T12:46:49Z</time>
      </trkpt>
      <trkpt lat="48.36329" lon="2.80439">
        <ele>74.41</ele>
        <time>2022-02-17T12:46:54Z</time>
      </trkpt>
      <trkpt lat="48.36325" lon="2.80432">
        <ele>74.29</ele>
        <time>2022-02-17T12:46:59Z</time>
      </trkpt>
      <trkpt lat="48.36321" lon="2.80426">
        <ele>74.18</ele>
        <time>2022-02-17T12:47:04Z</time>
      </trkpt>
      <trkpt lat="48.36317" lon="2.80418">
        <ele>74.02</ele>
        <time>2022-02-17T12:47:09Z</time>
      </trkpt>
      <trkpt lat="48.36312" lon="2.80411">
        <ele>73.93</ele>
        <time>2022-02-17T12:47:14Z</time>
      </trkpt>
      <trkpt lat="48.36309" lon="2.80405">
        <ele>73.98</ele>
        <time>2022-02-17T12:47:19Z</time>
      </trkpt>
      <trkpt lat="48.36305" lon="2.80399">
        <ele>74.05</ele>
        <time>2022-02-17T12:47:24Z</time>
      </trkpt>
      <trkpt lat="48.36301" lon="2.80393">
        <ele>73.7</ele>
        <time>2022-02-17T12:47:29Z</time>
      </trkpt>
      <trkpt lat="48.36295" lon="2.80388">
        <ele>73.94</ele>
        <time>2022-02-17T12:47:34Z</time>
      </trkpt>
      <trkpt lat="48.36291" lon="2.80381">
        <ele>74.2</ele>
        <time>2022-02-17T12:47:39Z</time>
      </trkpt>
      <trkpt lat="48.36287" lon="2.80373">
        <ele>74.29</ele>
        <time>2022-02-17T12:47:44Z</time>
      </trkpt>
      <trkpt lat="48.36284" lon="2.80365">
        <ele>74.23</ele>
        <time>2022-02-17T12:47:49Z</time>
      </trkpt>
      <trkpt lat="48.36279" lon="2.80359">
        <ele>74.36</ele>
        <time>2022-02-17T12:47:54Z</time>
      </trkpt>
      <trkpt lat="48.36274" lon="2.80352">
        <ele>74.52</ele>
        <time>2022-02-17T12:47:59Z</time>
      </trkpt>
      <trkpt lat="48.36271" lon="2.80348">
        <ele>74.64</ele>
        <time>2022-02-17T12:48:04Z</time>
      </trkpt>
      <trkpt lat="48.36266" lon="2.8034">
        <ele>74.78</ele>
        <time>2022-02-17T12:48:09Z</time>
      </trkpt>
      <trkpt lat="48.36262" lon="2.80333">
        <ele>74.83</ele>
        <time>2022-02-17T12:48:14Z</time>
      </trkpt>
      <trkpt lat="48.36261" lon="2.80327">
        <ele>74.83</ele>
        <time>2022-02-17T12:48:19Z</time>
      </trkpt>
      <trkpt lat="48.36261" lon="2.8032">
        <ele>74.93</ele>
        <time>2022-02-17T12:48:24Z</time>
      </trkpt>
      <trkpt lat="48.36258" lon="2.80312">
        <ele>74.95</ele>
        <time>2022-02-17T12:48:29Z</time>
      </trkpt>
      <trkpt lat="48.36254" lon="2.80302">
        <ele>74.7</ele>
        <time>2022-02-17T12:48:34Z</time>
      </trkpt>
      <trkpt lat="48.36251" lon="2.80295">
        <ele>74.72</ele>
        <time>2022-02-17T12:48:39Z</time>
      </trkpt>
      <trkpt lat="48.36248" lon="2.80287">
        <ele>74.74</ele>
        <time>2022-02-17T12:48:44Z</time>
      </trkpt>
      <trkpt lat="48.36245" lon="2.80281">
        <ele>74.42</ele>
        <time>2022-02-17T12:48:49Z</time>
      </trkpt>
      <trkpt lat="48.3624" lon="2.80273">
        <ele>74.43</ele>
        <time>2022-02-17T12:48:54Z</time>
      </trkpt>
      <trkpt lat="48.36237" lon="2.80266">
        <ele>74.56</ele>
        <time>2022-02-17T12:48:59Z</time>
      </trkpt>
      <trkpt lat="48.36233" lon="2.80259">
        <ele>74.56</ele>
        <time>2022-02-17T12:49:04Z</time>
      </trkpt>
      <trkpt lat="48.36231" lon="2.80251">
        <ele>74.54</ele>
        <time>2022-02-17T12:49:09Z</time>
      </trkpt>
      <trkpt lat="48.36229" lon="2.80244">
        <ele>74.55</ele>
        <time>2022-02-17T12:49:14Z</time>
      </trkpt>
      <trkpt lat="48.36227" lon="2.80239">
        <ele>74.63</ele>
        <time>2022-02-17T12:49:19Z</time>
      </trkpt>
      <trkpt lat="48.36226" lon="2.8023">
        <ele>74.3</ele>
        <time>2022-02-17T12:49:24Z</time>
      </trkpt>
      <trkpt lat="48.36224" lon="2.80218">
        <ele>74.26</ele>
        <time>2022-02-17T12:49:29Z</time>
      </trkpt>
      <trkpt lat="48.3622" lon="2.80211">
        <ele>74.34</ele>
        <time>2022-02-17T12:49:34Z</time>
      </trkpt>
      <trkpt lat="48.36217" lon="2.8021">
        <ele>74.4</ele>
        <time>2022-02-17T12:49:39Z</time>
      </trkpt>
      <trkpt lat="48.36214" lon="2.80211">
        <ele>74.36</ele>
        <time>2022-02-17T12:49:44Z</time>
      </trkpt>
      <trkpt lat="48.36209" lon="2.8021">
        <ele>74.14</ele>
        <time>2022-02-17T12:49:49Z</time>
      </trkpt>
      <trkpt lat="48.36203" lon="2.8021">
        <ele>73.88</ele>
        <time>2022-02-17T12:49:54Z</time>
      </trkpt>
      <trkpt lat="48.36195" lon="2.80209">
        <ele>73.53</ele>
        <time>2022-02-17T12:49:59Z</time>
      </trkpt>
      <trkpt lat="48.36189" lon="2.8021">
        <ele>73.12</ele>
        <time>2022-02-17T12:50:04Z</time>
      </trkpt>
      <trkpt lat="48.36185" lon="2.80211">
        <ele>72.73</ele>
        <time>2022-02-17T12:50:09Z</time>
      </trkpt>
      <trkpt lat="48.3618" lon="2.8021">
        <ele>72.53</ele>
        <time>2022-02-17T12:50:14Z</time>
      </trkpt>
      <trkpt lat="48.36175" lon="2.8021">
        <ele>72.24</ele>
        <time>2022-02-17T12:50:19Z</time>
      </trkpt>
      <trkpt lat="48.3617" lon="2.80209">
        <ele>72.08</ele>
        <time>2022-02-17T12:50:24Z</time>
      </trkpt>
      <trkpt lat="48.36165" lon="2.8021">
        <ele>71.96</ele>
        <time>2022-02-17T12:50:29Z</time>
      </trkpt>
      <trkpt lat="48.3616" lon="2.80211">
        <ele>71.91</ele>
        <time>2022-02-17T12:50:34Z</time>
      </trkpt>
      <trkpt lat="48.36157" lon="2.80213">
        <ele>71.95</ele>
        <time>2022-02-17T12:50:39Z</time>
      </trkpt>
      <trkpt lat="48.36155" lon="2.80212">
        <ele>72.03</ele>
        <time>2022-02-17T12:50:44Z</time>
      </trkpt>
      <trkpt lat="48.36149" lon="2.80212">
        <ele>71.93</ele>
        <time>2022-02-17T12:50:49Z</time>
      </trkpt>
      <trkpt lat="48.36141" lon="2.80213">
        <ele>71.65</ele>
        <time>2022-02-17T12:50:54Z</time>
      </trkpt>
      <trkpt lat="48.36136" lon="2.8021">
        <ele>71.19</ele>
        <time>2022-02-17T12:50:59Z</time>
      </trkpt>
      <trkpt lat="48.3613" lon="2.80206">
        <ele>70.92</ele>
        <time>2022-02-17T12:51:04Z</time>
      </trkpt>
      <trkpt lat="48.36124" lon="2.80204">
        <ele>70.64</ele>
        <time>2022-02-17T12:51:09Z</time>
      </trkpt>
      <trkpt lat="48.36117" lon="2.80203">
        <ele>70.45</ele>
        <time>2022-02-17T12:51:14Z</time>
      </trkpt>
      <trkpt lat="48.36111" lon="2.80199">
        <ele>70.34</ele>
        <time>2022-02-17T12:51:19Z</time>
      </trkpt>
      <trkpt lat="48.36105" lon="2.80196">
        <ele>70.38</ele>
        <time>2022-02-17T12:51:24Z</time>
      </trkpt>
      <trkpt lat="48.36101" lon="2.80192">
        <ele>70.41</ele>
        <time>2022-02-17T12:51:29Z</time>
      </trkpt>
      <trkpt lat="48.36095" lon="2.80188">
        <ele>70.38</ele>
        <time>2022-02-17T12:51:34Z</time>
      </trkpt>
      <trkpt lat="48.3609" lon="2.80182">
        <ele>70.3</ele>
        <time>2022-02-17T12:51:39Z</time>
      </trkpt>
      <trkpt lat="48.36085" lon="2.80179">
        <ele>70.12</ele>
        <time>2022-02-17T12:51:44Z</time>
      </trkpt>
      <trkpt lat="48.36081" lon="2.80173">
        <ele>69.83</ele>
        <time>2022-02-17T12:51:49Z</time>
      </trkpt>
      <trkpt lat="48.36077" lon="2.80166">
        <ele>69.73</ele>
        <time>2022-02-17T12:51:54Z</time>
      </trkpt>
      <trkpt lat="48.36074" lon="2.80161">
        <ele>69.72</ele>
        <time>2022-02-17T12:51:59Z</time>
      </trkpt>
      <trkpt lat="48.36072" lon="2.80155">
        <ele>69.93</ele>
        <time>2022-02-17T12:52:04Z</time>
      </trkpt>
      <trkpt lat="48.36069" lon="2.80152">
        <ele>70.05</ele>
        <time>2022-02-17T12:52:09Z</time>
      </trkpt>
      <trkpt lat="48.36067" lon="2.80147">
        <ele>69.88</ele>
        <time>2022-02-17T12:52:14Z</time>
      </trkpt>
      <trkpt lat="48.36065" lon="2.80143">
        <ele>69.71</ele>
        <time>2022-02-17T12:52:19Z</time>
      </trkpt>
      <trkpt lat="48.36062" lon="2.80135">
        <ele>69.92</ele>
        <time>2022-02-17T12:52:24Z</time>
      </trkpt>
      <trkpt lat="48.36059" lon="2.80128">
        <ele>70.12</ele>
        <time>2022-02-17T12:52:29Z</time>
      </trkpt>
      <trkpt lat="48.36057" lon="2.8012">
        <ele>70.37</ele>
        <time>2022-02-17T12:52:34Z</time>
      </trkpt>
      <trkpt lat="48.36052" lon="2.80115">
        <ele>70.39</ele>
        <time>2022-02-17T12:52:39Z</time>
      </trkpt>
      <trkpt lat="48.36047" lon="2.8011">
        <ele>70.32</ele>
        <time>2022-02-17T12:52:44Z</time>
      </trkpt>
      <trkpt lat="48.36043" lon="2.80104">
        <ele>70.26</ele>
        <time>2022-02-17T12:52:49Z</time>
      </trkpt>
      <trkpt lat="48.3604" lon="2.80098">
        <ele>70.14</ele>
        <time>2022-02-17T12:52:54Z</time>
      </trkpt>
      <trkpt lat="48.36038" lon="2.80092">
        <ele>70.12</ele>
        <time>2022-02-17T12:52:59Z</time>
      </trkpt>
      <trkpt lat="48.36035" lon="2.80087">
        <ele>70.29</ele>
        <time>2022-02-17T12:53:04Z</time>
      </trkpt>
      <trkpt lat="48.36034" lon="2.80079">
        <ele>70.38</ele>
        <time>2022-02-17T12:53:09Z</time>
      </trkpt>
      <trkpt lat="48.3603" lon="2.80072">
        <ele>70.54</ele>
        <time>2022-02-17T12:53:14Z</time>
      </trkpt>
      <trkpt lat="48.36026" lon="2.80065">
        <ele>70.48</ele>
        <time>2022-02-17T12:53:19Z</time>
      </trkpt>
      <trkpt lat="48.36021" lon="2.80057">
        <ele>70.29</ele>
        <time>2022-02-17T12:53:24Z</time>
      </trkpt>
      <trkpt lat="48.36018" lon="2.8005">
        <ele>70.37</ele>
        <time>2022-02-17T12:53:29Z</time>
      </trkpt>
      <trkpt lat="48.36015" lon="2.80044">
        <ele>70.49</ele>
        <time>2022-02-17T12:53:34Z</time>
      </trkpt>
      <trkpt lat="48.36012" lon="2.80039">
        <ele>70.28</ele>
        <time>2022-02-17T12:53:39Z</time>
      </trkpt>
      <trkpt lat="48.36007" lon="2.80032">
        <ele>70.2</ele>
        <time>2022-02-17T12:53:44Z</time>
      </trkpt>
      <trkpt lat="48.36004" lon="2.80024">
        <ele>70.37</ele>
        <time>2022-02-17T12:53:49Z</time>
      </trkpt>
      <trkpt lat="48.36001" lon="2.80016">
        <ele>70.2</ele>
        <time>2022-02-17T12:53:54Z</time>
      </trkpt>
      <trkpt lat="48.35998" lon="2.80009">
        <ele>70</ele>
        <time>2022-02-17T12:53:59Z</time>
      </trkpt>
      <trkpt lat="48.35995" lon="2.80003">
        <ele>70.37</ele>
        <time>2022-02-17T12:54:04Z</time>
      </trkpt>
      <trkpt lat="48.35992" lon="2.79996">
        <ele>70.47</ele>
        <time>2022-02-17T12:54:09Z</time>
      </trkpt>
      <trkpt lat="48.35988" lon="2.7999">
        <ele>70.4</ele>
        <time>2022-02-17T12:54:14Z</time>
      </trkpt>
      <trkpt lat="48.35984" lon="2.79983">
        <ele>70.26</ele>
        <time>2022-02-17T12:54:19Z</time>
      </trkpt>
      <trkpt lat="48.35981" lon="2.79977">
        <ele>70.59</ele>
        <time>2022-02-17T12:54:24Z</time>
      </trkpt>
      <trkpt lat="48.35979" lon="2.7997">
        <ele>70.33</ele>
        <time>2022-02-17T12:54:29Z</time>
      </trkpt>
      <trkpt lat="48.35975" lon="2.79963">
        <ele>70.21</ele>
        <time>2022-02-17T12:54:34Z</time>
      </trkpt>
      <trkpt lat="48.35972" lon="2.79956">
        <ele>70.02</ele>
        <time>2022-02-17T12:54:39Z</time>
      </trkpt>
      <trkpt lat="48.35969" lon="2.79949">
        <ele>69.98</ele>
        <time>2022-02-17T12:54:44Z</time>
      </trkpt>
      <trkpt lat="48.35966" lon="2.79942">
        <ele>69.56</ele>
        <time>2022-02-17T12:54:49Z</time>
      </trkpt>
      <trkpt lat="48.35963" lon="2.79935">
        <ele>69.34</ele>
        <time>2022-02-17T12:54:54Z</time>
      </trkpt>
      <trkpt lat="48.35959" lon="2.79928">
        <ele>69.16</ele>
        <time>2022-02-17T12:54:59Z</time>
      </trkpt>
      <trkpt lat="48.35955" lon="2.7992">
        <ele>68.92</ele>
        <time>2022-02-17T12:55:04Z</time>
      </trkpt>
      <trkpt lat="48.35953" lon="2.79911">
        <ele>68.45</ele>
        <time>2022-02-17T12:55:09Z</time>
      </trkpt>
      <trkpt lat="48.35948" lon="2.79905">
        <ele>68.03</ele>
        <time>2022-02-17T12:55:14Z</time>
      </trkpt>
      <trkpt lat="48.35945" lon="2.79899">
        <ele>67.88</ele>
        <time>2022-02-17T12:55:19Z</time>
      </trkpt>
      <trkpt lat="48.35941" lon="2.7989">
        <ele>67.83</ele>
        <time>2022-02-17T12:55:24Z</time>
      </trkpt>
      <trkpt lat="48.35938" lon="2.79883">
        <ele>67.75</ele>
        <time>2022-02-17T12:55:29Z</time>
      </trkpt>
      <trkpt lat="48.35936" lon="2.79877">
        <ele>67.25</ele>
        <time>2022-02-17T12:55:34Z</time>
      </trkpt>
      <trkpt lat="48.35932" lon="2.7987">
        <ele>67.08</ele>
        <time>2022-02-17T12:55:39Z</time>
      </trkpt>
      <trkpt lat="48.35929" lon="2.79865">
        <ele>66.9</ele>
        <time>2022-02-17T12:55:44Z</time>
      </trkpt>
      <trkpt lat="48.35925" lon="2.79859">
        <ele>66.5</ele>
        <time>2022-02-17T12:55:49Z</time>
      </trkpt>
      <trkpt lat="48.35922" lon="2.79851">
        <ele>66.44</ele>
        <time>2022-02-17T12:55:54Z</time>
      </trkpt>
      <trkpt lat="48.35919" lon="2.79844">
        <ele>66.44</ele>
        <time>2022-02-17T12:55:59Z</time>
      </trkpt>
      <trkpt lat="48.35915" lon="2.79836">
        <ele>65.94</ele>
        <time>2022-02-17T12:56:04Z</time>
      </trkpt>
      <trkpt lat="48.35912" lon="2.7983">
        <ele>65.51</ele>
        <time>2022-02-17T12:56:09Z</time>
      </trkpt>
      <trkpt lat="48.35909" lon="2.79823">
        <ele>65.23</ele>
        <time>2022-02-17T12:56:14Z</time>
      </trkpt>
      <trkpt lat="48.35906" lon="2.79816">
        <ele>64.76</ele>
        <time>2022-02-17T12:56:19Z</time>
      </trkpt>
      <trkpt lat="48.35903" lon="2.79809">
        <ele>64.65</ele>
        <time>2022-02-17T12:56:24Z</time>
      </trkpt>
      <trkpt lat="48.35899" lon="2.79801">
        <ele>64.38</ele>
        <time>2022-02-17T12:56:29Z</time>
      </trkpt>
      <trkpt lat="48.35895" lon="2.79793">
        <ele>64.19</ele>
        <time>2022-02-17T12:56:34Z</time>
      </trkpt>
      <trkpt lat="48.3589" lon="2.79788">
        <ele>63.9</ele>
        <time>2022-02-17T12:56:39Z</time>
      </trkpt>
      <trkpt lat="48.35885" lon="2.79781">
        <ele>63.61</ele>
        <time>2022-02-17T12:56:44Z</time>
      </trkpt>
      <trkpt lat="48.3588" lon="2.79776">
        <ele>63.41</ele>
        <time>2022-02-17T12:56:49Z</time>
      </trkpt>
      <trkpt lat="48.35878" lon="2.79769">
        <ele>63.32</ele>
        <time>2022-02-17T12:56:54Z</time>
      </trkpt>
      <trkpt lat="48.35874" lon="2.79761">
        <ele>63.12</ele>
        <time>2022-02-17T12:56:59Z</time>
      </trkpt>
      <trkpt lat="48.35872" lon="2.79753">
        <ele>63</ele>
        <time>2022-02-17T12:57:04Z</time>
      </trkpt>
      <trkpt lat="48.35869" lon="2.79747">
        <ele>62.86</ele>
        <time>2022-02-17T12:57:09Z</time>
      </trkpt>
      <trkpt lat="48.35867" lon="2.7974">
        <ele>62.68</ele>
        <time>2022-02-17T12:57:14Z</time>
      </trkpt>
      <trkpt lat="48.35864" lon="2.79734">
        <ele>62.58</ele>
        <time>2022-02-17T12:57:19Z</time>
      </trkpt>
      <trkpt lat="48.3586" lon="2.79727">
        <ele>62.6</ele>
        <time>2022-02-17T12:57:24Z</time>
      </trkpt>
      <trkpt lat="48.35856" lon="2.79719">
        <ele>62.45</ele>
        <time>2022-02-17T12:57:29Z</time>
      </trkpt>
      <trkpt lat="48.35852" lon="2.79711">
        <ele>62.08</ele>
        <time>2022-02-17T12:57:34Z</time>
      </trkpt>
      <trkpt lat="48.35849" lon="2.79705">
        <ele>61.53</ele>
        <time>2022-02-17T12:57:39Z</time>
      </trkpt>
      <trkpt lat="48.35848" lon="2.79697">
        <ele>61.19</ele>
        <time>2022-02-17T12:57:44Z</time>
      </trkpt>
      <trkpt lat="48.35846" lon="2.79689">
        <ele>60.88</ele>
        <time>2022-02-17T12:57:49Z</time>
      </trkpt>
      <trkpt lat="48.35843" lon="2.79682">
        <ele>60.7</ele>
        <time>2022-02-17T12:57:54Z</time>
      </trkpt>
      <trkpt lat="48.3584" lon="2.79674">
        <ele>61.13</ele>
        <time>2022-02-17T12:57:59Z</time>
      </trkpt>
      <trkpt lat="48.35837" lon="2.79667">
        <ele>60.94</ele>
        <time>2022-02-17T12:58:04Z</time>
      </trkpt>
      <trkpt lat="48.35834" lon="2.79661">
        <ele>60.65</ele>
        <time>2022-02-17T12:58:09Z</time>
      </trkpt>
      <trkpt lat="48.35831" lon="2.79657">
        <ele>60.63</ele>
        <time>2022-02-17T12:58:14Z</time>
      </trkpt>
      <trkpt lat="48.35827" lon="2.7965">
        <ele>60.14</ele>
        <time>2022-02-17T12:58:19Z</time>
      </trkpt>
      <trkpt lat="48.35823" lon="2.79641">
        <ele>60</ele>
        <time>2022-02-17T12:58:24Z</time>
      </trkpt>
      <trkpt lat="48.35819" lon="2.79633">
        <ele>59.78</ele>
        <time>2022-02-17T12:58:29Z</time>
      </trkpt>
      <trkpt lat="48.35816" lon="2.79627">
        <ele>59.78</ele>
        <time>2022-02-17T12:58:34Z</time>
      </trkpt>
      <trkpt lat="48.35815" lon="2.79621">
        <ele>59.92</ele>
        <time>2022-02-17T12:58:39Z</time>
      </trkpt>
      <trkpt lat="48.3581" lon="2.79616">
        <ele>59.95</ele>
        <time>2022-02-17T12:58:44Z</time>
      </trkpt>
      <trkpt lat="48.35805" lon="2.79608">
        <ele>60.25</ele>
        <time>2022-02-17T12:58:49Z</time>
      </trkpt>
      <trkpt lat="48.35802" lon="2.79601">
        <ele>60.53</ele>
        <time>2022-02-17T12:58:54Z</time>
      </trkpt>
      <trkpt lat="48.35799" lon="2.79597">
        <ele>60.68</ele>
        <time>2022-02-17T12:58:59Z</time>
      </trkpt>
      <trkpt lat="48.35796" lon="2.79591">
        <ele>60.9</ele>
        <time>2022-02-17T12:59:04Z</time>
      </trkpt>
      <trkpt lat="48.35794" lon="2.79584">
        <ele>61.34</ele>
        <time>2022-02-17T12:59:09Z</time>
      </trkpt>
      <trkpt lat="48.35791" lon="2.79577">
        <ele>61.81</ele>
        <time>2022-02-17T12:59:14Z</time>
      </trkpt>
      <trkpt lat="48.35788" lon="2.7957">
        <ele>62.42</ele>
        <time>2022-02-17T12:59:19Z</time>
      </trkpt>
      <trkpt lat="48.35785" lon="2.79563">
        <ele>62.57</ele>
        <time>2022-02-17T12:59:24Z</time>
      </trkpt>
      <trkpt lat="48.3578" lon="2.79559">
        <ele>62.38</ele>
        <time>2022-02-17T12:59:29Z</time>
      </trkpt>
      <trkpt lat="48.35776" lon="2.79553">
        <ele>62.31</ele>
        <time>2022-02-17T12:59:34Z</time>
      </trkpt>
      <trkpt lat="48.35772" lon="2.79546">
        <ele>62.86</ele>
        <time>2022-02-17T12:59:39Z</time>
      </trkpt>
      <trkpt lat="48.3577" lon="2.79538">
        <ele>63.2</ele>
        <time>2022-02-17T12:59:44Z</time>
      </trkpt>
      <trkpt lat="48.35767" lon="2.79533">
        <ele>63.37</ele>
        <time>2022-02-17T12:59:49Z</time>
      </trkpt>
      <trkpt lat="48.35764" lon="2.79527">
        <ele>63.54</ele>
        <time>2022-02-17T12:59:54Z</time>
      </trkpt>
      <trkpt lat="48.3576" lon="2.79521">
        <ele>63.72</ele>
        <time>2022-02-17T12:59:59Z</time>
      </trkpt>
      <trkpt lat="48.35757" lon="2.79514">
        <ele>64.02</ele>
        <time>2022-02-17T13:00:04Z</time>
      </trkpt>
      <trkpt lat="48.35751" lon="2.79508">
        <ele>64.16</ele>
        <time>2022-02-17T13:00:09Z</time>
      </trkpt>
      <trkpt lat="48.35746" lon="2.79502">
        <ele>64.44</ele>
        <time>2022-02-17T13:00:14Z</time>
      </trkpt>
      <trkpt lat="48.35741" lon="2.79495">
        <ele>65.1</ele>
        <time>2022-02-17T13:00:19Z</time>
      </trkpt>
      <trkpt lat="48.35737" lon="2.79487">
        <ele>65.02</ele>
        <time>2022-02-17T13:00:24Z</time>
      </trkpt>
      <trkpt lat="48.35734" lon="2.7948">
        <ele>64.93</ele>
        <time>2022-02-17T13:00:29Z</time>
      </trkpt>
      <trkpt lat="48.35732" lon="2.79472">
        <ele>64.94</ele>
        <time>2022-02-17T13:00:34Z</time>
      </trkpt>
      <trkpt lat="48.35729" lon="2.79465">
        <ele>65.37</ele>
        <time>2022-02-17T13:00:39Z</time>
      </trkpt>
      <trkpt lat="48.35727" lon="2.79456">
        <ele>65.55</ele>
        <time>2022-02-17T13:00:44Z</time>
      </trkpt>
      <trkpt lat="48.35724" lon="2.79449">
        <ele>65.55</ele>
        <time>2022-02-17T13:00:49Z</time>
      </trkpt>
      <trkpt lat="48.35722" lon="2.79442">
        <ele>65.65</ele>
        <time>2022-02-17T13:00:54Z</time>
      </trkpt>
      <trkpt lat="48.35718" lon="2.79435">
        <ele>66.02</ele>
        <time>2022-02-17T13:00:59Z</time>
      </trkpt>
      <trkpt lat="48.35716" lon="2.79428">
        <ele>66.74</ele>
        <time>2022-02-17T13:01:04Z</time>
      </trkpt>
      <trkpt lat="48.35711" lon="2.79424">
        <ele>66.95</ele>
        <time>2022-02-17T13:01:09Z</time>
      </trkpt>
      <trkpt lat="48.35706" lon="2.79422">
        <ele>66.88</ele>
        <time>2022-02-17T13:01:14Z</time>
      </trkpt>
      <trkpt lat="48.35701" lon="2.79417">
        <ele>67.13</ele>
        <time>2022-02-17T13:01:19Z</time>
      </trkpt>
      <trkpt lat="48.35697" lon="2.79412">
        <ele>67.31</ele>
        <time>2022-02-17T13:01:24Z</time>
      </trkpt>
      <trkpt lat="48.35694" lon="2.79405">
        <ele>67.54</ele>
        <time>2022-02-17T13:01:29Z</time>
      </trkpt>
      <trkpt lat="48.35691" lon="2.79397">
        <ele>67.59</ele>
        <time>2022-02-17T13:01:34Z</time>
      </trkpt>
      <trkpt lat="48.35687" lon="2.79391">
        <ele>67.61</ele>
        <time>2022-02-17T13:01:39Z</time>
      </trkpt>
      <trkpt lat="48.35684" lon="2.79383">
        <ele>67.73</ele>
        <time>2022-02-17T13:01:44Z</time>
      </trkpt>
      <trkpt lat="48.35681" lon="2.79378">
        <ele>68.06</ele>
        <time>2022-02-17T13:01:49Z</time>
      </trkpt>
      <trkpt lat="48.35677" lon="2.79372">
        <ele>68.31</ele>
        <time>2022-02-17T13:01:54Z</time>
      </trkpt>
      <trkpt lat="48.35677" lon="2.79365">
        <ele>68.86</ele>
        <time>2022-02-17T13:01:59Z</time>
      </trkpt>
      <trkpt lat="48.35676" lon="2.79358">
        <ele>69.31</ele>
        <time>2022-02-17T13:02:04Z</time>
      </trkpt>
      <trkpt lat="48.35674" lon="2.79351">
        <ele>69.56</ele>
        <time>2022-02-17T13:02:09Z</time>
      </trkpt>
      <trkpt lat="48.35672" lon="2.79344">
        <ele>69.52</ele>
        <time>2022-02-17T13:02:14Z</time>
      </trkpt>
      <trkpt lat="48.35671" lon="2.79337">
        <ele>69.63</ele>
        <time>2022-02-17T13:02:19Z</time>
      </trkpt>
      <trkpt lat="48.35668" lon="2.79332">
        <ele>70.31</ele>
        <time>2022-02-17T13:02:24Z</time>
      </trkpt>
      <trkpt lat="48.35667" lon="2.79325">
        <ele>70.39</ele>
        <time>2022-02-17T13:02:29Z</time>
      </trkpt>
      <trkpt lat="48.35666" lon="2.79319">
        <ele>70.54</ele>
        <time>2022-02-17T13:02:34Z</time>
      </trkpt>
      <trkpt lat="48.35659" lon="2.79312">
        <ele>70.84</ele>
        <time>2022-02-17T13:02:39Z</time>
      </trkpt>
      <trkpt lat="48.35653" lon="2.79305">
        <ele>71.47</ele>
        <time>2022-02-17T13:02:44Z</time>
      </trkpt>
      <trkpt lat="48.35648" lon="2.79298">
        <ele>71.4</ele>
        <time>2022-02-17T13:02:49Z</time>
      </trkpt>
      <trkpt lat="48.35643" lon="2.79291">
        <ele>71.15</ele>
        <time>2022-02-17T13:02:54Z</time>
      </trkpt>
      <trkpt lat="48.35641" lon="2.79284">
        <ele>71.26</ele>
        <time>2022-02-17T13:02:59Z</time>
      </trkpt>
      <trkpt lat="48.3564" lon="2.79281">
        <ele>71.56</ele>
        <time>2022-02-17T13:03:04Z</time>
      </trkpt>
      <trkpt lat="48.3564" lon="2.7928">
        <ele>71.95</ele>
        <time>2022-02-17T13:03:09Z</time>
      </trkpt>
      <trkpt lat="48.35641" lon="2.79277">
        <ele>72.14</ele>
        <time>2022-02-17T13:03:14Z</time>
      </trkpt>
      <trkpt lat="48.35643" lon="2.7927">
        <ele>72.23</ele>
        <time>2022-02-17T13:03:19Z</time>
      </trkpt>
      <trkpt lat="48.35644" lon="2.79264">
        <ele>72.12</ele>
        <time>2022-02-17T13:03:24Z</time>
      </trkpt>
      <trkpt lat="48.35644" lon="2.79259">
        <ele>72.65</ele>
        <time>2022-02-17T13:03:29Z</time>
      </trkpt>
      <trkpt lat="48.35643" lon="2.79251">
        <ele>73.08</ele>
        <time>2022-02-17T13:03:34Z</time>
      </trkpt>
      <trkpt lat="48.35644" lon="2.79243">
        <ele>73.17</ele>
        <time>2022-02-17T13:03:39Z</time>
      </trkpt>
      <trkpt lat="48.35641" lon="2.79235">
        <ele>73.07</ele>
        <time>2022-02-17T13:03:44Z</time>
      </trkpt>
      <trkpt lat="48.35641" lon="2.79226">
        <ele>73.43</ele>
        <time>2022-02-17T13:03:49Z</time>
      </trkpt>
      <trkpt lat="48.35639" lon="2.79218">
        <ele>73.78</ele>
        <time>2022-02-17T13:03:54Z</time>
      </trkpt>
      <trkpt lat="48.35638" lon="2.79209">
        <ele>74.02</ele>
        <time>2022-02-17T13:03:59Z</time>
      </trkpt>
      <trkpt lat="48.35636" lon="2.79201">
        <ele>73.95</ele>
        <time>2022-02-17T13:04:04Z</time>
      </trkpt>
      <trkpt lat="48.35635" lon="2.79193">
        <ele>74.26</ele>
        <time>2022-02-17T13:04:09Z</time>
      </trkpt>
      <trkpt lat="48.35632" lon="2.79184">
        <ele>74.72</ele>
        <time>2022-02-17T13:04:14Z</time>
      </trkpt>
      <trkpt lat="48.35629" lon="2.79176">
        <ele>74.7</ele>
        <time>2022-02-17T13:04:19Z</time>
      </trkpt>
      <trkpt lat="48.35626" lon="2.7917">
        <ele>74.71</ele>
        <time>2022-02-17T13:04:24Z</time>
      </trkpt>
      <trkpt lat="48.35623" lon="2.79166">
        <ele>74.98</ele>
        <time>2022-02-17T13:04:29Z</time>
      </trkpt>
      <trkpt lat="48.35621" lon="2.7916">
        <ele>75.11</ele>
        <time>2022-02-17T13:04:34Z</time>
      </trkpt>
      <trkpt lat="48.35618" lon="2.79153">
        <ele>75.02</ele>
        <time>2022-02-17T13:04:39Z</time>
      </trkpt>
      <trkpt lat="48.35616" lon="2.79146">
        <ele>74.91</ele>
        <time>2022-02-17T13:04:44Z</time>
      </trkpt>
      <trkpt lat="48.35614" lon="2.7914">
        <ele>74.96</ele>
        <time>2022-02-17T13:04:49Z</time>
      </trkpt>
      <trkpt lat="48.35611" lon="2.79134">
        <ele>75.36</ele>
        <time>2022-02-17T13:04:54Z</time>
      </trkpt>
      <trkpt lat="48.35607" lon="2.79127">
        <ele>75.42</ele>
        <time>2022-02-17T13:04:59Z</time>
      </trkpt>
      <trkpt lat="48.35604" lon="2.79119">
        <ele>75.62</ele>
        <time>2022-02-17T13:05:04Z</time>
      </trkpt>
      <trkpt lat="48.35601" lon="2.79111">
        <ele>75.98</ele>
        <time>2022-02-17T13:05:09Z</time>
      </trkpt>
      <trkpt lat="48.35597" lon="2.79104">
        <ele>76.13</ele>
        <time>2022-02-17T13:05:14Z</time>
      </trkpt>
      <trkpt lat="48.35594" lon="2.79095">
        <ele>76.1</ele>
        <time>2022-02-17T13:05:19Z</time>
      </trkpt>
      <trkpt lat="48.3559" lon="2.79088">
        <ele>76.1</ele>
        <time>2022-02-17T13:05:24Z</time>
      </trkpt>
      <trkpt lat="48.35587" lon="2.79081">
        <ele>76.16</ele>
        <time>2022-02-17T13:05:29Z</time>
      </trkpt>
      <trkpt lat="48.35583" lon="2.79074">
        <ele>76.1</ele>
        <time>2022-02-17T13:05:34Z</time>
      </trkpt>
      <trkpt lat="48.35581" lon="2.79068">
        <ele>75.57</ele>
        <time>2022-02-17T13:05:39Z</time>
      </trkpt>
      <trkpt lat="48.35577" lon="2.79062">
        <ele>75.13</ele>
        <time>2022-02-17T13:05:44Z</time>
      </trkpt>
      <trkpt lat="48.35576" lon="2.79059">
        <ele>75.27</ele>
        <time>2022-02-17T13:05:49Z</time>
      </trkpt>
      <trkpt lat="48.35574" lon="2.79055">
        <ele>75.37</ele>
        <time>2022-02-17T13:05:54Z</time>
      </trkpt>
      <trkpt lat="48.35573" lon="2.79051">
        <ele>75</ele>
        <time>2022-02-17T13:05:59Z</time>
      </trkpt>
      <trkpt lat="48.3557" lon="2.79047">
        <ele>74.65</ele>
        <time>2022-02-17T13:06:04Z</time>
      </trkpt>
      <trkpt lat="48.35565" lon="2.79037">
        <ele>74.59</ele>
        <time>2022-02-17T13:06:09Z</time>
      </trkpt>
      <trkpt lat="48.35563" lon="2.7903">
        <ele>74.59</ele>
        <time>2022-02-17T13:06:14Z</time>
      </trkpt>
      <trkpt lat="48.35558" lon="2.79018">
        <ele>74.86</ele>
        <time>2022-02-17T13:06:19Z</time>
      </trkpt>
      <trkpt lat="48.35553" lon="2.79008">
        <ele>74.9</ele>
        <time>2022-02-17T13:06:24Z</time>
      </trkpt>
      <trkpt lat="48.3555" lon="2.79001">
        <ele>74.85</ele>
        <time>2022-02-17T13:06:29Z</time>
      </trkpt>
      <trkpt lat="48.35546" lon="2.78993">
        <ele>74.8</ele>
        <time>2022-02-17T13:06:34Z</time>
      </trkpt>
      <trkpt lat="48.35539" lon="2.78986">
        <ele>74.6</ele>
        <time>2022-02-17T13:06:39Z</time>
      </trkpt>
      <trkpt lat="48.35537" lon="2.78981">
        <ele>74.65</ele>
        <time>2022-02-17T13:06:44Z</time>
      </trkpt>
      <trkpt lat="48.35533" lon="2.78975">
        <ele>74.99</ele>
        <time>2022-02-17T13:06:49Z</time>
      </trkpt>
      <trkpt lat="48.35528" lon="2.78967">
        <ele>75.29</ele>
        <time>2022-02-17T13:06:54Z</time>
      </trkpt>
      <trkpt lat="48.35525" lon="2.7896">
        <ele>75.29</ele>
        <time>2022-02-17T13:06:59Z</time>
      </trkpt>
      <trkpt lat="48.35524" lon="2.78951">
        <ele>75.14</ele>
        <time>2022-02-17T13:07:04Z</time>
      </trkpt>
      <trkpt lat="48.35522" lon="2.78945">
        <ele>75</ele>
        <time>2022-02-17T13:07:09Z</time>
      </trkpt>
      <trkpt lat="48.3552" lon="2.78938">
        <ele>74.85</ele>
        <time>2022-02-17T13:07:14Z</time>
      </trkpt>
      <trkpt lat="48.35516" lon="2.78931">
        <ele>75.15</ele>
        <time>2022-02-17T13:07:19Z</time>
      </trkpt>
      <trkpt lat="48.35512" lon="2.78924">
        <ele>75.49</ele>
        <time>2022-02-17T13:07:24Z</time>
      </trkpt>
      <trkpt lat="48.35509" lon="2.78917">
        <ele>75.14</ele>
        <time>2022-02-17T13:07:29Z</time>
      </trkpt>
      <trkpt lat="48.35506" lon="2.78912">
        <ele>75.14</ele>
        <time>2022-02-17T13:07:34Z</time>
      </trkpt>
      <trkpt lat="48.35503" lon="2.78906">
        <ele>75.03</ele>
        <time>2022-02-17T13:07:39Z</time>
      </trkpt>
      <trkpt lat="48.35499" lon="2.78899">
        <ele>74.99</ele>
        <time>2022-02-17T13:07:44Z</time>
      </trkpt>
      <trkpt lat="48.35496" lon="2.78893">
        <ele>75.06</ele>
        <time>2022-02-17T13:07:49Z</time>
      </trkpt>
      <trkpt lat="48.35495" lon="2.78886">
        <ele>75.59</ele>
        <time>2022-02-17T13:07:54Z</time>
      </trkpt>
      <trkpt lat="48.35491" lon="2.78879">
        <ele>75.98</ele>
        <time>2022-02-17T13:07:59Z</time>
      </trkpt>
      <trkpt lat="48.35488" lon="2.78872">
        <ele>76.07</ele>
        <time>2022-02-17T13:08:04Z</time>
      </trkpt>
      <trkpt lat="48.35484" lon="2.78866">
        <ele>76.33</ele>
        <time>2022-02-17T13:08:09Z</time>
      </trkpt>
      <trkpt lat="48.35481" lon="2.78859">
        <ele>76.73</ele>
        <time>2022-02-17T13:08:14Z</time>
      </trkpt>
      <trkpt lat="48.35479" lon="2.78852">
        <ele>76.32</ele>
        <time>2022-02-17T13:08:19Z</time>
      </trkpt>
      <trkpt lat="48.35475" lon="2.78846">
        <ele>76.09</ele>
        <time>2022-02-17T13:08:24Z</time>
      </trkpt>
      <trkpt lat="48.35472" lon="2.78841">
        <ele>76.11</ele>
        <time>2022-02-17T13:08:29Z</time>
      </trkpt>
      <trkpt lat="48.35468" lon="2.78834">
        <ele>76.26</ele>
        <time>2022-02-17T13:08:34Z</time>
      </trkpt>
      <trkpt lat="48.35465" lon="2.78828">
        <ele>76.53</ele>
        <time>2022-02-17T13:08:39Z</time>
      </trkpt>
      <trkpt lat="48.35463" lon="2.78821">
        <ele>77.21</ele>
        <time>2022-02-17T13:08:44Z</time>
      </trkpt>
      <trkpt lat="48.35459" lon="2.78813">
        <ele>77.44</ele>
        <time>2022-02-17T13:08:49Z</time>
      </trkpt>
      <trkpt lat="48.35456" lon="2.78806">
        <ele>77.45</ele>
        <time>2022-02-17T13:08:54Z</time>
      </trkpt>
      <trkpt lat="48.35454" lon="2.78801">
        <ele>77.54</ele>
        <time>2022-02-17T13:08:59Z</time>
      </trkpt>
      <trkpt lat="48.35451" lon="2.78792">
        <ele>77.54</ele>
        <time>2022-02-17T13:09:04Z</time>
      </trkpt>
      <trkpt lat="48.35448" lon="2.78786">
        <ele>76.69</ele>
        <time>2022-02-17T13:09:09Z</time>
      </trkpt>
      <trkpt lat="48.35445" lon="2.78778">
        <ele>77.26</ele>
        <time>2022-02-17T13:09:14Z</time>
      </trkpt>
      <trkpt lat="48.35443" lon="2.78771">
        <ele>77.59</ele>
        <time>2022-02-17T13:09:19Z</time>
      </trkpt>
      <trkpt lat="48.3544" lon="2.78764">
        <ele>77</ele>
        <time>2022-02-17T13:09:24Z</time>
      </trkpt>
      <trkpt lat="48.35437" lon="2.78759">
        <ele>76.83</ele>
        <time>2022-02-17T13:09:29Z</time>
      </trkpt>
      <trkpt lat="48.35432" lon="2.78753">
        <ele>76.81</ele>
        <time>2022-02-17T13:09:34Z</time>
      </trkpt>
      <trkpt lat="48.35428" lon="2.78748">
        <ele>76.88</ele>
        <time>2022-02-17T13:09:39Z</time>
      </trkpt>
      <trkpt lat="48.35424" lon="2.78743">
        <ele>77.42</ele>
        <time>2022-02-17T13:09:44Z</time>
      </trkpt>
      <trkpt lat="48.35421" lon="2.78736">
        <ele>77.24</ele>
        <time>2022-02-17T13:09:49Z</time>
      </trkpt>
      <trkpt lat="48.35418" lon="2.78731">
        <ele>76.94</ele>
        <time>2022-02-17T13:09:54Z</time>
      </trkpt>
      <trkpt lat="48.35414" lon="2.78723">
        <ele>78.41</ele>
        <time>2022-02-17T13:09:59Z</time>
      </trkpt>
      <trkpt lat="48.35411" lon="2.78716">
        <ele>77.85</ele>
        <time>2022-02-17T13:10:04Z</time>
      </trkpt>
      <trkpt lat="48.35407" lon="2.78709">
        <ele>77.95</ele>
        <time>2022-02-17T13:10:09Z</time>
      </trkpt>
      <trkpt lat="48.35405" lon="2.78701">
        <ele>78.18</ele>
        <time>2022-02-17T13:10:14Z</time>
      </trkpt>
      <trkpt lat="48.35401" lon="2.78694">
        <ele>78.26</ele>
        <time>2022-02-17T13:10:19Z</time>
      </trkpt>
      <trkpt lat="48.35397" lon="2.78688">
        <ele>78.49</ele>
        <time>2022-02-17T13:10:24Z</time>
      </trkpt>
      <trkpt lat="48.35396" lon="2.78683">
        <ele>78.59</ele>
        <time>2022-02-17T13:10:29Z</time>
      </trkpt>
      <trkpt lat="48.35393" lon="2.78677">
        <ele>78.83</ele>
        <time>2022-02-17T13:10:34Z</time>
      </trkpt>
      <trkpt lat="48.3539" lon="2.7867">
        <ele>79</ele>
        <time>2022-02-17T13:10:39Z</time>
      </trkpt>
      <trkpt lat="48.35386" lon="2.78664">
        <ele>79</ele>
        <time>2022-02-17T13:10:44Z</time>
      </trkpt>
      <trkpt lat="48.35382" lon="2.78655">
        <ele>78.98</ele>
        <time>2022-02-17T13:10:49Z</time>
      </trkpt>
      <trkpt lat="48.35379" lon="2.78648">
        <ele>78.9</ele>
        <time>2022-02-17T13:10:54Z</time>
      </trkpt>
      <trkpt lat="48.35376" lon="2.7864">
        <ele>79.02</ele>
        <time>2022-02-17T13:10:59Z</time>
      </trkpt>
      <trkpt lat="48.35374" lon="2.78634">
        <ele>79.17</ele>
        <time>2022-02-17T13:11:04Z</time>
      </trkpt>
      <trkpt lat="48.35372" lon="2.78629">
        <ele>79.15</ele>
        <time>2022-02-17T13:11:09Z</time>
      </trkpt>
      <trkpt lat="48.35369" lon="2.78625">
        <ele>79.14</ele>
        <time>2022-02-17T13:11:14Z</time>
      </trkpt>
      <trkpt lat="48.35367" lon="2.78618">
        <ele>78.95</ele>
        <time>2022-02-17T13:11:19Z</time>
      </trkpt>
      <trkpt lat="48.35365" lon="2.78611">
        <ele>78.71</ele>
        <time>2022-02-17T13:11:24Z</time>
      </trkpt>
      <trkpt lat="48.35362" lon="2.78604">
        <ele>78.44</ele>
        <time>2022-02-17T13:11:29Z</time>
      </trkpt>
      <trkpt lat="48.35362" lon="2.78598">
        <ele>78.37</ele>
        <time>2022-02-17T13:11:34Z</time>
      </trkpt>
      <trkpt lat="48.3536" lon="2.78593">
        <ele>78.53</ele>
        <time>2022-02-17T13:11:39Z</time>
      </trkpt>
      <trkpt lat="48.35357" lon="2.78585">
        <ele>78.62</ele>
        <time>2022-02-17T13:11:44Z</time>
      </trkpt>
      <trkpt lat="48.35354" lon="2.78577">
        <ele>78.71</ele>
        <time>2022-02-17T13:11:49Z</time>
      </trkpt>
      <trkpt lat="48.3535" lon="2.78569">
        <ele>78.52</ele>
        <time>2022-02-17T13:11:54Z</time>
      </trkpt>
      <trkpt lat="48.35347" lon="2.78561">
        <ele>78.01</ele>
        <time>2022-02-17T13:11:59Z</time>
      </trkpt>
      <trkpt lat="48.35341" lon="2.78554">
        <ele>77.5</ele>
        <time>2022-02-17T13:12:04Z</time>
      </trkpt>
      <trkpt lat="48.35338" lon="2.78549">
        <ele>77.01</ele>
        <time>2022-02-17T13:12:09Z</time>
      </trkpt>
      <trkpt lat="48.35334" lon="2.78541">
        <ele>76.48</ele>
        <time>2022-02-17T13:12:14Z</time>
      </trkpt>
      <trkpt lat="48.35332" lon="2.78533">
        <ele>76.16</ele>
        <time>2022-02-17T13:12:19Z</time>
      </trkpt>
      <trkpt lat="48.35327" lon="2.78528">
        <ele>76.67</ele>
        <time>2022-02-17T13:12:24Z</time>
      </trkpt>
      <trkpt lat="48.35323" lon="2.78521">
        <ele>77.44</ele>
        <time>2022-02-17T13:12:29Z</time>
      </trkpt>
      <trkpt lat="48.3532" lon="2.78515">
        <ele>77.3</ele>
        <time>2022-02-17T13:12:34Z</time>
      </trkpt>
      <trkpt lat="48.3532" lon="2.78514">
        <ele>76.95</ele>
        <time>2022-02-17T13:12:39Z</time>
      </trkpt>
      <trkpt lat="48.3532" lon="2.78513">
        <ele>76.6</ele>
        <time>2022-02-17T13:12:44Z</time>
      </trkpt>
      <trkpt lat="48.3532" lon="2.78511">
        <ele>76.5</ele>
        <time>2022-02-17T13:12:49Z</time>
      </trkpt>
      <trkpt lat="48.35318" lon="2.78506">
        <ele>76.6</ele>
        <time>2022-02-17T13:12:54Z</time>
      </trkpt>
      <trkpt lat="48.35313" lon="2.78496">
        <ele>76.67</ele>
        <time>2022-02-17T13:12:59Z</time>
      </trkpt>
      <trkpt lat="48.35312" lon="2.78492">
        <ele>76.86</ele>
        <time>2022-02-17T13:13:04Z</time>
      </trkpt>
      <trkpt lat="48.35313" lon="2.78488">
        <ele>77.07</ele>
        <time>2022-02-17T13:13:09Z</time>
      </trkpt>
      <trkpt lat="48.35311" lon="2.78479">
        <ele>76.89</ele>
        <time>2022-02-17T13:13:14Z</time>
      </trkpt>
      <trkpt lat="48.35309" lon="2.7847">
        <ele>77.11</ele>
        <time>2022-02-17T13:13:19Z</time>
      </trkpt>
      <trkpt lat="48.35308" lon="2.78463">
        <ele>77.49</ele>
        <time>2022-02-17T13:13:24Z</time>
      </trkpt>
      <trkpt lat="48.35305" lon="2.78456">
        <ele>77.54</ele>
        <time>2022-02-17T13:13:29Z</time>
      </trkpt>
      <trkpt lat="48.35303" lon="2.78449">
        <ele>77.81</ele>
        <time>2022-02-17T13:13:34Z</time>
      </trkpt>
      <trkpt lat="48.35302" lon="2.78444">
        <ele>77.95</ele>
        <time>2022-02-17T13:13:39Z</time>
      </trkpt>
      <trkpt lat="48.35302" lon="2.78437">
        <ele>78.23</ele>
        <time>2022-02-17T13:13:44Z</time>
      </trkpt>
      <trkpt lat="48.353" lon="2.78428">
        <ele>78.79</ele>
        <time>2022-02-17T13:13:49Z</time>
      </trkpt>
      <trkpt lat="48.35297" lon="2.7842">
        <ele>78.8</ele>
        <time>2022-02-17T13:13:54Z</time>
      </trkpt>
      <trkpt lat="48.35296" lon="2.78411">
        <ele>78.68</ele>
        <time>2022-02-17T13:13:59Z</time>
      </trkpt>
      <trkpt lat="48.35295" lon="2.78402">
        <ele>78.73</ele>
        <time>2022-02-17T13:14:04Z</time>
      </trkpt>
      <trkpt lat="48.35291" lon="2.78392">
        <ele>79.02</ele>
        <time>2022-02-17T13:14:09Z</time>
      </trkpt>
      <trkpt lat="48.3529" lon="2.78386">
        <ele>79.26</ele>
        <time>2022-02-17T13:14:14Z</time>
      </trkpt>
      <trkpt lat="48.35288" lon="2.78379">
        <ele>79.08</ele>
        <time>2022-02-17T13:14:19Z</time>
      </trkpt>
      <trkpt lat="48.35287" lon="2.78374">
        <ele>79.05</ele>
        <time>2022-02-17T13:14:24Z</time>
      </trkpt>
      <trkpt lat="48.35285" lon="2.78363">
        <ele>79.35</ele>
        <time>2022-02-17T13:14:29Z</time>
      </trkpt>
      <trkpt lat="48.35285" lon="2.78355">
        <ele>80.04</ele>
        <time>2022-02-17T13:14:34Z</time>
      </trkpt>
      <trkpt lat="48.35284" lon="2.78348">
        <ele>80.58</ele>
        <time>2022-02-17T13:14:39Z</time>
      </trkpt>
      <trkpt lat="48.35284" lon="2.78342">
        <ele>80.78</ele>
        <time>2022-02-17T13:14:44Z</time>
      </trkpt>
      <trkpt lat="48.3528" lon="2.78335">
        <ele>81.44</ele>
        <time>2022-02-17T13:14:49Z</time>
      </trkpt>
      <trkpt lat="48.35276" lon="2.78326">
        <ele>81.62</ele>
        <time>2022-02-17T13:14:54Z</time>
      </trkpt>
      <trkpt lat="48.35272" lon="2.78317">
        <ele>81.69</ele>
        <time>2022-02-17T13:14:59Z</time>
      </trkpt>
      <trkpt lat="48.35269" lon="2.78309">
        <ele>81.54</ele>
        <time>2022-02-17T13:15:04Z</time>
      </trkpt>
      <trkpt lat="48.35268" lon="2.78301">
        <ele>81.52</ele>
        <time>2022-02-17T13:15:09Z</time>
      </trkpt>
      <trkpt lat="48.35268" lon="2.78296">
        <ele>82.05</ele>
        <time>2022-02-17T13:15:14Z</time>
      </trkpt>
      <trkpt lat="48.35269" lon="2.7829">
        <ele>82.8</ele>
        <time>2022-02-17T13:15:19Z</time>
      </trkpt>
      <trkpt lat="48.35268" lon="2.78283">
        <ele>83.52</ele>
        <time>2022-02-17T13:15:24Z</time>
      </trkpt>
      <trkpt lat="48.35264" lon="2.78274">
        <ele>83.65</ele>
        <time>2022-02-17T13:15:29Z</time>
      </trkpt>
      <trkpt lat="48.35262" lon="2.78267">
        <ele>83.28</ele>
        <time>2022-02-17T13:15:34Z</time>
      </trkpt>
      <trkpt lat="48.3526" lon="2.78259">
        <ele>83.12</ele>
        <time>2022-02-17T13:15:39Z</time>
      </trkpt>
      <trkpt lat="48.35259" lon="2.78252">
        <ele>84.3</ele>
        <time>2022-02-17T13:15:44Z</time>
      </trkpt>
      <trkpt lat="48.35257" lon="2.78245">
        <ele>85.02</ele>
        <time>2022-02-17T13:15:49Z</time>
      </trkpt>
      <trkpt lat="48.35255" lon="2.78238">
        <ele>85.15</ele>
        <time>2022-02-17T13:15:54Z</time>
      </trkpt>
      <trkpt lat="48.35252" lon="2.7823">
        <ele>84.65</ele>
        <time>2022-02-17T13:15:59Z</time>
      </trkpt>
      <trkpt lat="48.35248" lon="2.78223">
        <ele>84.34</ele>
        <time>2022-02-17T13:16:04Z</time>
      </trkpt>
      <trkpt lat="48.35245" lon="2.7822">
        <ele>84.42</ele>
        <time>2022-02-17T13:16:09Z</time>
      </trkpt>
      <trkpt lat="48.35242" lon="2.78216">
        <ele>84.77</ele>
        <time>2022-02-17T13:16:14Z</time>
      </trkpt>
      <trkpt lat="48.35238" lon="2.78212">
        <ele>84.97</ele>
        <time>2022-02-17T13:16:19Z</time>
      </trkpt>
      <trkpt lat="48.35234" lon="2.78206">
        <ele>85</ele>
        <time>2022-02-17T13:16:24Z</time>
      </trkpt>
      <trkpt lat="48.35229" lon="2.78197">
        <ele>84.79</ele>
        <time>2022-02-17T13:16:29Z</time>
      </trkpt>
      <trkpt lat="48.35225" lon="2.78192">
        <ele>85.09</ele>
        <time>2022-02-17T13:16:34Z</time>
      </trkpt>
      <trkpt lat="48.35222" lon="2.78186">
        <ele>85.7</ele>
        <time>2022-02-17T13:16:39Z</time>
      </trkpt>
      <trkpt lat="48.3522" lon="2.78182">
        <ele>85.64</ele>
        <time>2022-02-17T13:16:44Z</time>
      </trkpt>
      <trkpt lat="48.35217" lon="2.78176">
        <ele>85.62</ele>
        <time>2022-02-17T13:16:49Z</time>
      </trkpt>
      <trkpt lat="48.35213" lon="2.78169">
        <ele>85.44</ele>
        <time>2022-02-17T13:16:54Z</time>
      </trkpt>
      <trkpt lat="48.35211" lon="2.78164">
        <ele>85.29</ele>
        <time>2022-02-17T13:16:59Z</time>
      </trkpt>
      <trkpt lat="48.35208" lon="2.7816">
        <ele>85.04</ele>
        <time>2022-02-17T13:17:04Z</time>
      </trkpt>
      <trkpt lat="48.35202" lon="2.78153">
        <ele>84.96</ele>
        <time>2022-02-17T13:17:09Z</time>
      </trkpt>
      <trkpt lat="48.35197" lon="2.78147">
        <ele>84.89</ele>
        <time>2022-02-17T13:17:14Z</time>
      </trkpt>
      <trkpt lat="48.35191" lon="2.7814">
        <ele>84.73</ele>
        <time>2022-02-17T13:17:19Z</time>
      </trkpt>
      <trkpt lat="48.35187" lon="2.78136">
        <ele>84.4</ele>
        <time>2022-02-17T13:17:24Z</time>
      </trkpt>
      <trkpt lat="48.35182" lon="2.78131">
        <ele>84.32</ele>
        <time>2022-02-17T13:17:29Z</time>
      </trkpt>
      <trkpt lat="48.35179" lon="2.78125">
        <ele>84.2</ele>
        <time>2022-02-17T13:17:34Z</time>
      </trkpt>
      <trkpt lat="48.35176" lon="2.78118">
        <ele>84.09</ele>
        <time>2022-02-17T13:17:39Z</time>
      </trkpt>
      <trkpt lat="48.35174" lon="2.78112">
        <ele>84.07</ele>
        <time>2022-02-17T13:17:44Z</time>
      </trkpt>
      <trkpt lat="48.35168" lon="2.78105">
        <ele>83.91</ele>
        <time>2022-02-17T13:17:49Z</time>
      </trkpt>
      <trkpt lat="48.35164" lon="2.78097">
        <ele>83.89</ele>
        <time>2022-02-17T13:17:54Z</time>
      </trkpt>
      <trkpt lat="48.35161" lon="2.78086">
        <ele>84.05</ele>
        <time>2022-02-17T13:17:59Z</time>
      </trkpt>
      <trkpt lat="48.35156" lon="2.78077">
        <ele>84.18</ele>
        <time>2022-02-17T13:18:04Z</time>
      </trkpt>
      <trkpt lat="48.35153" lon="2.7807">
        <ele>84.04</ele>
        <time>2022-02-17T13:18:09Z</time>
      </trkpt>
      <trkpt lat="48.35148" lon="2.78065">
        <ele>84.02</ele>
        <time>2022-02-17T13:18:14Z</time>
      </trkpt>
      <trkpt lat="48.35144" lon="2.78058">
        <ele>83.89</ele>
        <time>2022-02-17T13:18:19Z</time>
      </trkpt>
      <trkpt lat="48.35139" lon="2.78052">
        <ele>83.92</ele>
        <time>2022-02-17T13:18:24Z</time>
      </trkpt>
      <trkpt lat="48.35134" lon="2.78046">
        <ele>83.97</ele>
        <time>2022-02-17T13:18:29Z</time>
      </trkpt>
      <trkpt lat="48.35129" lon="2.7804">
        <ele>83.96</ele>
        <time>2022-02-17T13:18:34Z</time>
      </trkpt>
      <trkpt lat="48.35127" lon="2.78035">
        <ele>83.83</ele>
        <time>2022-02-17T13:18:39Z</time>
      </trkpt>
      <trkpt lat="48.35123" lon="2.78029">
        <ele>83.91</ele>
        <time>2022-02-17T13:18:44Z</time>
      </trkpt>
      <trkpt lat="48.3512" lon="2.78024">
        <ele>84.14</ele>
        <time>2022-02-17T13:18:49Z</time>
      </trkpt>
      <trkpt lat="48.35117" lon="2.78018">
        <ele>83.98</ele>
        <time>2022-02-17T13:18:54Z</time>
      </trkpt>
      <trkpt lat="48.35111" lon="2.78011">
        <ele>84.05</ele>
        <time>2022-02-17T13:18:59Z</time>
      </trkpt>
      <trkpt lat="48.35108" lon="2.78004">
        <ele>84.04</ele>
        <time>2022-02-17T13:19:04Z</time>
      </trkpt>
      <trkpt lat="48.35103" lon="2.77999">
        <ele>83.84</ele>
        <time>2022-02-17T13:19:09Z</time>
      </trkpt>
      <trkpt lat="48.35098" lon="2.77993">
        <ele>83.72</ele>
        <time>2022-02-17T13:19:14Z</time>
      </trkpt>
      <trkpt lat="48.35094" lon="2.77987">
        <ele>83.56</ele>
        <time>2022-02-17T13:19:19Z</time>
      </trkpt>
      <trkpt lat="48.3509" lon="2.77981">
        <ele>83.23</ele>
        <time>2022-02-17T13:19:24Z</time>
      </trkpt>
      <trkpt lat="48.35088" lon="2.77974">
        <ele>83.35</ele>
        <time>2022-02-17T13:19:29Z</time>
      </trkpt>
      <trkpt lat="48.35084" lon="2.7797">
        <ele>83.61</ele>
        <time>2022-02-17T13:19:34Z</time>
      </trkpt>
      <trkpt lat="48.35082" lon="2.77967">
        <ele>84.05</ele>
        <time>2022-02-17T13:19:39Z</time>
      </trkpt>
      <trkpt lat="48.35082" lon="2.77963">
        <ele>84.05</ele>
        <time>2022-02-17T13:19:44Z</time>
      </trkpt>
      <trkpt lat="48.35083" lon="2.77959">
        <ele>84.05</ele>
        <time>2022-02-17T13:19:49Z</time>
      </trkpt>
      <trkpt lat="48.3508" lon="2.77951">
        <ele>84.05</ele>
        <time>2022-02-17T13:19:54Z</time>
      </trkpt>
      <trkpt lat="48.35078" lon="2.77944">
        <ele>84.05</ele>
        <time>2022-02-17T13:19:59Z</time>
      </trkpt>
      <trkpt lat="48.35075" lon="2.77936">
        <ele>83.22</ele>
        <time>2022-02-17T13:20:04Z</time>
      </trkpt>
      <trkpt lat="48.35074" lon="2.77929">
        <ele>83.62</ele>
        <time>2022-02-17T13:20:09Z</time>
      </trkpt>
      <trkpt lat="48.35072" lon="2.77922">
        <ele>83.94</ele>
        <time>2022-02-17T13:20:14Z</time>
      </trkpt>
      <trkpt lat="48.3507" lon="2.77914">
        <ele>83.88</ele>
        <time>2022-02-17T13:20:19Z</time>
      </trkpt>
      <trkpt lat="48.35068" lon="2.77905">
        <ele>83.85</ele>
        <time>2022-02-17T13:20:24Z</time>
      </trkpt>
      <trkpt lat="48.35066" lon="2.77898">
        <ele>83.81</ele>
        <time>2022-02-17T13:20:29Z</time>
      </trkpt>
      <trkpt lat="48.35064" lon="2.7789">
        <ele>83.69</ele>
        <time>2022-02-17T13:20:34Z</time>
      </trkpt>
      <trkpt lat="48.35062" lon="2.77882">
        <ele>83.92</ele>
        <time>2022-02-17T13:20:39Z</time>
      </trkpt>
      <trkpt lat="48.35061" lon="2.77876">
        <ele>83.94</ele>
        <time>2022-02-17T13:20:44Z</time>
      </trkpt>
      <trkpt lat="48.35059" lon="2.77869">
        <ele>83.69</ele>
        <time>2022-02-17T13:20:49Z</time>
      </trkpt>
      <trkpt lat="48.35056" lon="2.77861">
        <ele>83.28</ele>
        <time>2022-02-17T13:20:54Z</time>
      </trkpt>
      <trkpt lat="48.35054" lon="2.77854">
        <ele>83.28</ele>
        <time>2022-02-17T13:20:59Z</time>
      </trkpt>
      <trkpt lat="48.35053" lon="2.77852">
        <ele>83.34</ele>
        <time>2022-02-17T13:21:04Z</time>
      </trkpt>
      <trkpt lat="48.35052" lon="2.77852">
        <ele>83.85</ele>
        <time>2022-02-17T13:21:09Z</time>
      </trkpt>
      <trkpt lat="48.35051" lon="2.77858">
        <ele>84.22</ele>
        <time>2022-02-17T13:21:14Z</time>
      </trkpt>
      <trkpt lat="48.35049" lon="2.77864">
        <ele>83.57</ele>
        <time>2022-02-17T13:21:19Z</time>
      </trkpt>
      <trkpt lat="48.35047" lon="2.77872">
        <ele>82.66</ele>
        <time>2022-02-17T13:21:24Z</time>
      </trkpt>
      <trkpt lat="48.35042" lon="2.77876">
        <ele>82.59</ele>
        <time>2022-02-17T13:21:29Z</time>
      </trkpt>
      <trkpt lat="48.35039" lon="2.77883">
        <ele>82.45</ele>
        <time>2022-02-17T13:21:34Z</time>
      </trkpt>
      <trkpt lat="48.35036" lon="2.77888">
        <ele>81.82</ele>
        <time>2022-02-17T13:21:39Z</time>
      </trkpt>
      <trkpt lat="48.35033" lon="2.77891">
        <ele>81.97</ele>
        <time>2022-02-17T13:21:44Z</time>
      </trkpt>
      <trkpt lat="48.3503" lon="2.77897">
        <ele>82.24</ele>
        <time>2022-02-17T13:21:49Z</time>
      </trkpt>
      <trkpt lat="48.35028" lon="2.77901">
        <ele>82.37</ele>
        <time>2022-02-17T13:21:54Z</time>
      </trkpt>
      <trkpt lat="48.35025" lon="2.77906">
        <ele>82.41</ele>
        <time>2022-02-17T13:21:59Z</time>
      </trkpt>
      <trkpt lat="48.35022" lon="2.77911">
        <ele>82.2</ele>
        <time>2022-02-17T13:22:04Z</time>
      </trkpt>
      <trkpt lat="48.35017" lon="2.77916">
        <ele>81.61</ele>
        <time>2022-02-17T13:22:09Z</time>
      </trkpt>
      <trkpt lat="48.35012" lon="2.77923">
        <ele>81.5</ele>
        <time>2022-02-17T13:22:14Z</time>
      </trkpt>
      <trkpt lat="48.35007" lon="2.77931">
        <ele>81.63</ele>
        <time>2022-02-17T13:22:19Z</time>
      </trkpt>
      <trkpt lat="48.35003" lon="2.77939">
        <ele>81.87</ele>
        <time>2022-02-17T13:22:24Z</time>
      </trkpt>
      <trkpt lat="48.34999" lon="2.77944">
        <ele>82.07</ele>
        <time>2022-02-17T13:22:29Z</time>
      </trkpt>
      <trkpt lat="48.34993" lon="2.7795">
        <ele>82.17</ele>
        <time>2022-02-17T13:22:34Z</time>
      </trkpt>
      <trkpt lat="48.34986" lon="2.77953">
        <ele>83.15</ele>
        <time>2022-02-17T13:22:39Z</time>
      </trkpt>
      <trkpt lat="48.3498" lon="2.77951">
        <ele>82.77</ele>
        <time>2022-02-17T13:22:44Z</time>
      </trkpt>
      <trkpt lat="48.34979" lon="2.77949">
        <ele>80.93</ele>
        <time>2022-02-17T13:22:49Z</time>
      </trkpt>
      <trkpt lat="48.34977" lon="2.77944">
        <ele>80.25</ele>
        <time>2022-02-17T13:22:54Z</time>
      </trkpt>
      <trkpt lat="48.34975" lon="2.77941">
        <ele>80.34</ele>
        <time>2022-02-17T13:22:59Z</time>
      </trkpt>
      <trkpt lat="48.34971" lon="2.77938">
        <ele>79.98</ele>
        <time>2022-02-17T13:23:04Z</time>
      </trkpt>
      <trkpt lat="48.34966" lon="2.77932">
        <ele>79.88</ele>
        <time>2022-02-17T13:23:09Z</time>
      </trkpt>
      <trkpt lat="48.3496" lon="2.77926">
        <ele>79.54</ele>
        <time>2022-02-17T13:23:14Z</time>
      </trkpt>
      <trkpt lat="48.34957" lon="2.77923">
        <ele>79.29</ele>
        <time>2022-02-17T13:23:19Z</time>
      </trkpt>
      <trkpt lat="48.34958" lon="2.77922">
        <ele>78.93</ele>
        <time>2022-02-17T13:23:24Z</time>
      </trkpt>
      <trkpt lat="48.34958" lon="2.77922">
        <ele>78.92</ele>
        <time>2022-02-17T13:23:29Z</time>
      </trkpt>
      <trkpt lat="48.34958" lon="2.77922">
        <ele>79.09</ele>
        <time>2022-02-17T13:23:34Z</time>
      </trkpt>
      <trkpt lat="48.34958" lon="2.77922">
        <ele>79.29</ele>
        <time>2022-02-17T13:23:39Z</time>
      </trkpt>
      <trkpt lat="48.34958" lon="2.77921">
        <ele>79.21</ele>
        <time>2022-02-17T13:23:44Z</time>
      </trkpt>
      <trkpt lat="48.34959" lon="2.7792">
        <ele>79.3</ele>
        <time>2022-02-17T13:23:49Z</time>
      </trkpt>
      <trkpt lat="48.34959" lon="2.7792">
        <ele>79.17</ele>
        <time>2022-02-17T13:23:54Z</time>
      </trkpt>
      <trkpt lat="48.34958" lon="2.7792">
        <ele>79.04</ele>
        <time>2022-02-17T13:23:59Z</time>
      </trkpt>
      <trkpt lat="48.34955" lon="2.77918">
        <ele>78.79</ele>
        <time>2022-02-17T13:24:04Z</time>
      </trkpt>
      <trkpt lat="48.34952" lon="2.77912">
        <ele>78.89</ele>
        <time>2022-02-17T13:24:09Z</time>
      </trkpt>
      <trkpt lat="48.34948" lon="2.77907">
        <ele>78.74</ele>
        <time>2022-02-17T13:24:14Z</time>
      </trkpt>
      <trkpt lat="48.34944" lon="2.77899">
        <ele>78.49</ele>
        <time>2022-02-17T13:24:19Z</time>
      </trkpt>
      <trkpt lat="48.34941" lon="2.77893">
        <ele>78.51</ele>
        <time>2022-02-17T13:24:24Z</time>
      </trkpt>
      <trkpt lat="48.34937" lon="2.77886">
        <ele>78.25</ele>
        <time>2022-02-17T13:24:29Z</time>
      </trkpt>
      <trkpt lat="48.34933" lon="2.77879">
        <ele>78.25</ele>
        <time>2022-02-17T13:24:34Z</time>
      </trkpt>
      <trkpt lat="48.3493" lon="2.7787">
        <ele>77.93</ele>
        <time>2022-02-17T13:24:39Z</time>
      </trkpt>
      <trkpt lat="48.34927" lon="2.77862">
        <ele>77.49</ele>
        <time>2022-02-17T13:24:44Z</time>
      </trkpt>
      <trkpt lat="48.34924" lon="2.77854">
        <ele>77.7</ele>
        <time>2022-02-17T13:24:49Z</time>
      </trkpt>
      <trkpt lat="48.34921" lon="2.77847">
        <ele>78.1</ele>
        <time>2022-02-17T13:24:54Z</time>
      </trkpt>
      <trkpt lat="48.34918" lon="2.77842">
        <ele>78.2</ele>
        <time>2022-02-17T13:24:59Z</time>
      </trkpt>
      <trkpt lat="48.34914" lon="2.77836">
        <ele>78.18</ele>
        <time>2022-02-17T13:25:04Z</time>
      </trkpt>
      <trkpt lat="48.34911" lon="2.77828">
        <ele>78.7</ele>
        <time>2022-02-17T13:25:09Z</time>
      </trkpt>
      <trkpt lat="48.34907" lon="2.77822">
        <ele>78.74</ele>
        <time>2022-02-17T13:25:14Z</time>
      </trkpt>
      <trkpt lat="48.34904" lon="2.77815">
        <ele>77.9</ele>
        <time>2022-02-17T13:25:19Z</time>
      </trkpt>
      <trkpt lat="48.34903" lon="2.77809">
        <ele>77.9</ele>
        <time>2022-02-17T13:25:24Z</time>
      </trkpt>
      <trkpt lat="48.34901" lon="2.77807">
        <ele>78.48</ele>
        <time>2022-02-17T13:25:29Z</time>
      </trkpt>
      <trkpt lat="48.34897" lon="2.778">
        <ele>78.82</ele>
        <time>2022-02-17T13:25:34Z</time>
      </trkpt>
      <trkpt lat="48.34895" lon="2.77794">
        <ele>78.51</ele>
        <time>2022-02-17T13:25:39Z</time>
      </trkpt>
      <trkpt lat="48.34892" lon="2.77785">
        <ele>78.86</ele>
        <time>2022-02-17T13:25:44Z</time>
      </trkpt>
      <trkpt lat="48.3489" lon="2.77777">
        <ele>78.9</ele>
        <time>2022-02-17T13:25:49Z</time>
      </trkpt>
      <trkpt lat="48.34886" lon="2.77772">
        <ele>78.62</ele>
        <time>2022-02-17T13:25:54Z</time>
      </trkpt>
      <trkpt lat="48.34881" lon="2.77765">
        <ele>79.15</ele>
        <time>2022-02-17T13:25:59Z</time>
      </trkpt>
      <trkpt lat="48.34877" lon="2.77762">
        <ele>78.92</ele>
        <time>2022-02-17T13:26:04Z</time>
      </trkpt>
      <trkpt lat="48.34875" lon="2.77757">
        <ele>78.29</ele>
        <time>2022-02-17T13:26:09Z</time>
      </trkpt>
      <trkpt lat="48.34872" lon="2.77753">
        <ele>78.13</ele>
        <time>2022-02-17T13:26:14Z</time>
      </trkpt>
      <trkpt lat="48.34869" lon="2.77746">
        <ele>78.48</ele>
        <time>2022-02-17T13:26:19Z</time>
      </trkpt>
      <trkpt lat="48.34866" lon="2.77737">
        <ele>78.65</ele>
        <time>2022-02-17T13:26:24Z</time>
      </trkpt>
      <trkpt lat="48.34862" lon="2.77728">
        <ele>78.38</ele>
        <time>2022-02-17T13:26:29Z</time>
      </trkpt>
      <trkpt lat="48.3486" lon="2.77722">
        <ele>78.2</ele>
        <time>2022-02-17T13:26:34Z</time>
      </trkpt>
      <trkpt lat="48.34856" lon="2.77717">
        <ele>77.84</ele>
        <time>2022-02-17T13:26:39Z</time>
      </trkpt>
      <trkpt lat="48.34852" lon="2.7771">
        <ele>77.65</ele>
        <time>2022-02-17T13:26:44Z</time>
      </trkpt>
      <trkpt lat="48.34848" lon="2.77703">
        <ele>77.54</ele>
        <time>2022-02-17T13:26:49Z</time>
      </trkpt>
      <trkpt lat="48.34845" lon="2.77697">
        <ele>77.66</ele>
        <time>2022-02-17T13:26:54Z</time>
      </trkpt>
      <trkpt lat="48.34841" lon="2.77691">
        <ele>77.69</ele>
        <time>2022-02-17T13:26:59Z</time>
      </trkpt>
      <trkpt lat="48.34838" lon="2.77685">
        <ele>77.08</ele>
        <time>2022-02-17T13:27:04Z</time>
      </trkpt>
      <trkpt lat="48.34834" lon="2.77679">
        <ele>76.86</ele>
        <time>2022-02-17T13:27:09Z</time>
      </trkpt>
      <trkpt lat="48.34829" lon="2.77673">
        <ele>76.83</ele>
        <time>2022-02-17T13:27:14Z</time>
      </trkpt>
      <trkpt lat="48.34827" lon="2.77669">
        <ele>76.81</ele>
        <time>2022-02-17T13:27:19Z</time>
      </trkpt>
      <trkpt lat="48.34824" lon="2.77664">
        <ele>76.48</ele>
        <time>2022-02-17T13:27:24Z</time>
      </trkpt>
      <trkpt lat="48.34822" lon="2.77655">
        <ele>75.86</ele>
        <time>2022-02-17T13:27:29Z</time>
      </trkpt>
      <trkpt lat="48.34819" lon="2.77647">
        <ele>75.83</ele>
        <time>2022-02-17T13:27:34Z</time>
      </trkpt>
      <trkpt lat="48.34815" lon="2.77638">
        <ele>76.05</ele>
        <time>2022-02-17T13:27:39Z</time>
      </trkpt>
      <trkpt lat="48.34811" lon="2.77633">
        <ele>75.9</ele>
        <time>2022-02-17T13:27:44Z</time>
      </trkpt>
      <trkpt lat="48.34806" lon="2.77627">
        <ele>75.29</ele>
        <time>2022-02-17T13:27:49Z</time>
      </trkpt>
      <trkpt lat="48.34803" lon="2.77621">
        <ele>75.08</ele>
        <time>2022-02-17T13:27:54Z</time>
      </trkpt>
      <trkpt lat="48.348" lon="2.77613">
        <ele>75.37</ele>
        <time>2022-02-17T13:27:59Z</time>
      </trkpt>
      <trkpt lat="48.34797" lon="2.77608">
        <ele>75.5</ele>
        <time>2022-02-17T13:28:04Z</time>
      </trkpt>
      <trkpt lat="48.34794" lon="2.77602">
        <ele>75.18</ele>
        <time>2022-02-17T13:28:09Z</time>
      </trkpt>
      <trkpt lat="48.3479" lon="2.77594">
        <ele>74.87</ele>
        <time>2022-02-17T13:28:14Z</time>
      </trkpt>
      <trkpt lat="48.34786" lon="2.77584">
        <ele>74.41</ele>
        <time>2022-02-17T13:28:19Z</time>
      </trkpt>
      <trkpt lat="48.34782" lon="2.77576">
        <ele>73.98</ele>
        <time>2022-02-17T13:28:24Z</time>
      </trkpt>
      <trkpt lat="48.34778" lon="2.7757">
        <ele>73.66</ele>
        <time>2022-02-17T13:28:29Z</time>
      </trkpt>
      <trkpt lat="48.34776" lon="2.77563">
        <ele>72.99</ele>
        <time>2022-02-17T13:28:34Z</time>
      </trkpt>
      <trkpt lat="48.34774" lon="2.77556">
        <ele>72.36</ele>
        <time>2022-02-17T13:28:39Z</time>
      </trkpt>
      <trkpt lat="48.34771" lon="2.77549">
        <ele>71.84</ele>
        <time>2022-02-17T13:28:44Z</time>
      </trkpt>
      <trkpt lat="48.34768" lon="2.77543">
        <ele>71.65</ele>
        <time>2022-02-17T13:28:49Z</time>
      </trkpt>
      <trkpt lat="48.34764" lon="2.77536">
        <ele>71.31</ele>
        <time>2022-02-17T13:28:54Z</time>
      </trkpt>
      <trkpt lat="48.34761" lon="2.77529">
        <ele>70.83</ele>
        <time>2022-02-17T13:28:59Z</time>
      </trkpt>
      <trkpt lat="48.34758" lon="2.77521">
        <ele>70.34</ele>
        <time>2022-02-17T13:29:04Z</time>
      </trkpt>
      <trkpt lat="48.34754" lon="2.77513">
        <ele>69.9</ele>
        <time>2022-02-17T13:29:09Z</time>
      </trkpt>
      <trkpt lat="48.34752" lon="2.77505">
        <ele>69.14</ele>
        <time>2022-02-17T13:29:14Z</time>
      </trkpt>
      <trkpt lat="48.34749" lon="2.77499">
        <ele>68.83</ele>
        <time>2022-02-17T13:29:19Z</time>
      </trkpt>
      <trkpt lat="48.34744" lon="2.77492">
        <ele>68.65</ele>
        <time>2022-02-17T13:29:24Z</time>
      </trkpt>
      <trkpt lat="48.34741" lon="2.77485">
        <ele>68.69</ele>
        <time>2022-02-17T13:29:29Z</time>
      </trkpt>
      <trkpt lat="48.34737" lon="2.77478">
        <ele>68.47</ele>
        <time>2022-02-17T13:29:34Z</time>
      </trkpt>
      <trkpt lat="48.34736" lon="2.7747">
        <ele>68.58</ele>
        <time>2022-02-17T13:29:39Z</time>
      </trkpt>
      <trkpt lat="48.34735" lon="2.77465">
        <ele>68.44</ele>
        <time>2022-02-17T13:29:44Z</time>
      </trkpt>
      <trkpt lat="48.34737" lon="2.77456">
        <ele>68.29</ele>
        <time>2022-02-17T13:29:49Z</time>
      </trkpt>
      <trkpt lat="48.34738" lon="2.77453">
        <ele>68.39</ele>
        <time>2022-02-17T13:29:54Z</time>
      </trkpt>
      <trkpt lat="48.34738" lon="2.77453">
        <ele>68.5</ele>
        <time>2022-02-17T13:29:59Z</time>
      </trkpt>
      <trkpt lat="48.34738" lon="2.77453">
        <ele>68.38</ele>
        <time>2022-02-17T13:30:04Z</time>
      </trkpt>
      <trkpt lat="48.34739" lon="2.77455">
        <ele>68.29</ele>
        <time>2022-02-17T13:30:09Z</time>
      </trkpt>
      <trkpt lat="48.34739" lon="2.77455">
        <ele>68.31</ele>
        <time>2022-02-17T13:30:14Z</time>
      </trkpt>
      <trkpt lat="48.34739" lon="2.77455">
        <ele>68.22</ele>
        <time>2022-02-17T13:30:19Z</time>
      </trkpt>
      <trkpt lat="48.3474" lon="2.77453">
        <ele>68.59</ele>
        <time>2022-02-17T13:30:24Z</time>
      </trkpt>
      <trkpt lat="48.3474" lon="2.77452">
        <ele>68.77</ele>
        <time>2022-02-17T13:30:29Z</time>
      </trkpt>
      <trkpt lat="48.3474" lon="2.77451">
        <ele>68.78</ele>
        <time>2022-02-17T13:30:34Z</time>
      </trkpt>
      <trkpt lat="48.3474" lon="2.7745">
        <ele>68.76</ele>
        <time>2022-02-17T13:30:39Z</time>
      </trkpt>
      <trkpt lat="48.3474" lon="2.7745">
        <ele>68.84</ele>
        <time>2022-02-17T13:30:44Z</time>
      </trkpt>
      <trkpt lat="48.3474" lon="2.7745">
        <ele>68.74</ele>
        <time>2022-02-17T13:30:49Z</time>
      </trkpt>
      <trkpt lat="48.3474" lon="2.77451">
        <ele>68.56</ele>
        <time>2022-02-17T13:30:54Z</time>
      </trkpt>
      <trkpt lat="48.34741" lon="2.77451">
        <ele>68.25</ele>
        <time>2022-02-17T13:30:59Z</time>
      </trkpt>
      <trkpt lat="48.34742" lon="2.7745">
        <ele>68.25</ele>
        <time>2022-02-17T13:31:04Z</time>
      </trkpt>
      <trkpt lat="48.34743" lon="2.77451">
        <ele>68.25</ele>
        <time>2022-02-17T13:31:09Z</time>
      </trkpt>
      <trkpt lat="48.34742" lon="2.77452">
        <ele>68.25</ele>
        <time>2022-02-17T13:31:14Z</time>
      </trkpt>
      <trkpt lat="48.34742" lon="2.77451">
        <ele>68.25</ele>
        <time>2022-02-17T13:31:19Z</time>
      </trkpt>
      <trkpt lat="48.34742" lon="2.77451">
        <ele>68.25</ele>
        <time>2022-02-17T13:31:24Z</time>
      </trkpt>
      <trkpt lat="48.34743" lon="2.77451">
        <ele>68.25</ele>
        <time>2022-02-17T13:31:29Z</time>
      </trkpt>
      <trkpt lat="48.34743" lon="2.77451">
        <ele>68.25</ele>
        <time>2022-02-17T13:31:34Z</time>
      </trkpt>
      <trkpt lat="48.34743" lon="2.77451">
        <ele>68.25</ele>
        <time>2022-02-17T13:31:39Z</time>
      </trkpt>
      <trkpt lat="48.34743" lon="2.77451">
        <ele>68.25</ele>
        <time>2022-02-17T13:31:44Z</time>
      </trkpt>
      <trkpt lat="48.34742" lon="2.7745">
        <ele>68.25</ele>
        <time>2022-02-17T13:31:49Z</time>
      </trkpt>
      <trkpt lat="48.34741" lon="2.7745">
        <ele>68.25</ele>
        <time>2022-02-17T13:31:54Z</time>
      </trkpt>
      <trkpt lat="48.34741" lon="2.7745">
        <ele>68.25</ele>
        <time>2022-02-17T13:31:59Z</time>
      </trkpt>
      <trkpt lat="48.34742" lon="2.7745">
        <ele>68.25</ele>
        <time>2022-02-17T13:32:04Z</time>
      </trkpt>
      <trkpt lat="48.34743" lon="2.7745">
        <ele>68.25</ele>
        <time>2022-02-17T13:32:09Z</time>
      </trkpt>
      <trkpt lat="48.34743" lon="2.7745">
        <ele>68.25</ele>
        <time>2022-02-17T13:32:14Z</time>
      </trkpt>
      <trkpt lat="48.34743" lon="2.77449">
        <ele>68.25</ele>
        <time>2022-02-17T13:32:19Z</time>
      </trkpt>
      <trkpt lat="48.34742" lon="2.77449">
        <ele>68.25</ele>
        <time>2022-02-17T13:32:24Z</time>
      </trkpt>
      <trkpt lat="48.34742" lon="2.7745">
        <ele>68.25</ele>
        <time>2022-02-17T13:32:29Z</time>
      </trkpt>
      <trkpt lat="48.34741" lon="2.77451">
        <ele>68.25</ele>
        <time>2022-02-17T13:32:34Z</time>
      </trkpt>
      <trkpt lat="48.3474" lon="2.77451">
        <ele>68.25</ele>
        <time>2022-02-17T13:32:39Z</time>
      </trkpt>
      <trkpt lat="48.3474" lon="2.77451">
        <ele>68.25</ele>
        <time>2022-02-17T13:32:44Z</time>
      </trkpt>
      <trkpt lat="48.3474" lon="2.77452">
        <ele>68.25</ele>
        <time>2022-02-17T13:32:49Z</time>
      </trkpt>
      <trkpt lat="48.34739" lon="2.77451">
        <ele>68.25</ele>
        <time>2022-02-17T13:32:54Z</time>
      </trkpt>
      <trkpt lat="48.3474" lon="2.77451">
        <ele>68.25</ele>
        <time>2022-02-17T13:32:59Z</time>
      </trkpt>
      <trkpt lat="48.3474" lon="2.77451">
        <ele>68.25</ele>
        <time>2022-02-17T13:33:04Z</time>
      </trkpt>
      <trkpt lat="48.3474" lon="2.77451">
        <ele>68.25</ele>
        <time>2022-02-17T13:33:09Z</time>
      </trkpt>
      <trkpt lat="48.3474" lon="2.7745">
        <ele>68.25</ele>
        <time>2022-02-17T13:33:14Z</time>
      </trkpt>
      <trkpt lat="48.3474" lon="2.7745">
        <ele>68.25</ele>
        <time>2022-02-17T13:33:19Z</time>
      </trkpt>
      <trkpt lat="48.34741" lon="2.7745">
        <ele>68.25</ele>
        <time>2022-02-17T13:33:24Z</time>
      </trkpt>
      <trkpt lat="48.34741" lon="2.7745">
        <ele>68.25</ele>
        <time>2022-02-17T13:33:29Z</time>
      </trkpt>
      <trkpt lat="48.34741" lon="2.77449">
        <ele>68.25</ele>
        <time>2022-02-17T13:33:34Z</time>
      </trkpt>
      <trkpt lat="48.3474" lon="2.77449">
        <ele>68.25</ele>
        <time>2022-02-17T13:33:39Z</time>
      </trkpt>
      <trkpt lat="48.3474" lon="2.77449">
        <ele>68.25</ele>
        <time>2022-02-17T13:33:44Z</time>
      </trkpt>
      <trkpt lat="48.3474" lon="2.77449">
        <ele>68.25</ele>
        <time>2022-02-17T13:33:49Z</time>
      </trkpt>
      <trkpt lat="48.3474" lon="2.77448">
        <ele>68.25</ele>
        <time>2022-02-17T13:33:54Z</time>
      </trkpt>
      <trkpt lat="48.3474" lon="2.77447">
        <ele>68.25</ele>
        <time>2022-02-17T13:33:59Z</time>
      </trkpt>
      <trkpt lat="48.34739" lon="2.77447">
        <ele>68.25</ele>
        <time>2022-02-17T13:34:04Z</time>
      </trkpt>
      <trkpt lat="48.34739" lon="2.77448">
        <ele>68.25</ele>
        <time>2022-02-17T13:34:09Z</time>
      </trkpt>
      <trkpt lat="48.34739" lon="2.77447">
        <ele>68.25</ele>
        <time>2022-02-17T13:34:14Z</time>
      </trkpt>
      <trkpt lat="48.34739" lon="2.77447">
        <ele>68.25</ele>
        <time>2022-02-17T13:34:19Z</time>
      </trkpt>
      <trkpt lat="48.34739" lon="2.77446">
        <ele>68.25</ele>
        <time>2022-02-17T13:34:24Z</time>
      </trkpt>
      <trkpt lat="48.34739" lon="2.77445">
        <ele>68.25</ele>
        <time>2022-02-17T13:34:29Z</time>
      </trkpt>
      <trkpt lat="48.34741" lon="2.77444">
        <ele>68.25</ele>
        <time>2022-02-17T13:34:34Z</time>
      </trkpt>
      <trkpt lat="48.34744" lon="2.77443">
        <ele>68.25</ele>
        <time>2022-02-17T13:34:39Z</time>
      </trkpt>
      <trkpt lat="48.34747" lon="2.77443">
        <ele>68.25</ele>
        <time>2022-02-17T13:34:44Z</time>
      </trkpt>
      <trkpt lat="48.34751" lon="2.77444">
        <ele>68.25</ele>
        <time>2022-02-17T13:34:49Z</time>
      </trkpt>
      <trkpt lat="48.34756" lon="2.77443">
        <ele>68.25</ele>
        <time>2022-02-17T13:34:54Z</time>
      </trkpt>
      <trkpt lat="48.3476" lon="2.77442">
        <ele>68.25</ele>
        <time>2022-02-17T13:34:59Z</time>
      </trkpt>
      <trkpt lat="48.34765" lon="2.77442">
        <ele>71.37</ele>
        <time>2022-02-17T13:35:04Z</time>
      </trkpt>
      <trkpt lat="48.3477" lon="2.77443">
        <ele>71.54</ele>
        <time>2022-02-17T13:35:09Z</time>
      </trkpt>
      <trkpt lat="48.34775" lon="2.77443">
        <ele>72</ele>
        <time>2022-02-17T13:35:14Z</time>
      </trkpt>
      <trkpt lat="48.3478" lon="2.77442">
        <ele>72.35</ele>
        <time>2022-02-17T13:35:19Z</time>
      </trkpt>
      <trkpt lat="48.34783" lon="2.77441">
        <ele>72.41</ele>
        <time>2022-02-17T13:35:24Z</time>
      </trkpt>
      <trkpt lat="48.34787" lon="2.7744">
        <ele>72.39</ele>
        <time>2022-02-17T13:35:29Z</time>
      </trkpt>
      <trkpt lat="48.34792" lon="2.77438">
        <ele>72.51</ele>
        <time>2022-02-17T13:35:34Z</time>
      </trkpt>
      <trkpt lat="48.34797" lon="2.77438">
        <ele>72.94</ele>
        <time>2022-02-17T13:35:39Z</time>
      </trkpt>
      <trkpt lat="48.348" lon="2.77439">
        <ele>73.44</ele>
        <time>2022-02-17T13:35:44Z</time>
      </trkpt>
      <trkpt lat="48.34804" lon="2.77438">
        <ele>73.67</ele>
        <time>2022-02-17T13:35:49Z</time>
      </trkpt>
      <trkpt lat="48.34809" lon="2.77437">
        <ele>73.87</ele>
        <time>2022-02-17T13:35:54Z</time>
      </trkpt>
      <trkpt lat="48.34814" lon="2.77436">
        <ele>74.22</ele>
        <time>2022-02-17T13:35:59Z</time>
      </trkpt>
      <trkpt lat="48.34819" lon="2.77435">
        <ele>74.55</ele>
        <time>2022-02-17T13:36:04Z</time>
      </trkpt>
      <trkpt lat="48.34823" lon="2.77435">
        <ele>74.64</ele>
        <time>2022-02-17T13:36:09Z</time>
      </trkpt>
      <trkpt lat="48.3483" lon="2.77433">
        <ele>74.98</ele>
        <time>2022-02-17T13:36:14Z</time>
      </trkpt>
      <trkpt lat="48.34837" lon="2.77433">
        <ele>75.55</ele>
        <time>2022-02-17T13:36:19Z</time>
      </trkpt>
      <trkpt lat="48.34842" lon="2.77432">
        <ele>75.85</ele>
        <time>2022-02-17T13:36:24Z</time>
      </trkpt>
      <trkpt lat="48.34846" lon="2.77432">
        <ele>75.92</ele>
        <time>2022-02-17T13:36:29Z</time>
      </trkpt>
      <trkpt lat="48.3485" lon="2.77431">
        <ele>76.07</ele>
        <time>2022-02-17T13:36:34Z</time>
      </trkpt>
      <trkpt lat="48.34854" lon="2.7743">
        <ele>76.12</ele>
        <time>2022-02-17T13:36:39Z</time>
      </trkpt>
      <trkpt lat="48.34858" lon="2.7743">
        <ele>76.14</ele>
        <time>2022-02-17T13:36:44Z</time>
      </trkpt>
      <trkpt lat="48.34863" lon="2.77431">
        <ele>76.21</ele>
        <time>2022-02-17T13:36:49Z</time>
      </trkpt>
      <trkpt lat="48.34869" lon="2.7743">
        <ele>76.36</ele>
        <time>2022-02-17T13:36:54Z</time>
      </trkpt>
      <trkpt lat="48.34874" lon="2.7743">
        <ele>76.54</ele>
        <time>2022-02-17T13:36:59Z</time>
      </trkpt>
      <trkpt lat="48.34878" lon="2.77429">
        <ele>76.86</ele>
        <time>2022-02-17T13:37:04Z</time>
      </trkpt>
      <trkpt lat="48.34882" lon="2.77428">
        <ele>77.09</ele>
        <time>2022-02-17T13:37:09Z</time>
      </trkpt>
      <trkpt lat="48.34887" lon="2.77427">
        <ele>77.05</ele>
        <time>2022-02-17T13:37:14Z</time>
      </trkpt>
      <trkpt lat="48.34893" lon="2.77426">
        <ele>76.92</ele>
        <time>2022-02-17T13:37:19Z</time>
      </trkpt>
      <trkpt lat="48.34898" lon="2.77426">
        <ele>76.83</ele>
        <time>2022-02-17T13:37:24Z</time>
      </trkpt>
      <trkpt lat="48.34903" lon="2.77427">
        <ele>76.76</ele>
        <time>2022-02-17T13:37:29Z</time>
      </trkpt>
      <trkpt lat="48.34907" lon="2.77428">
        <ele>77.12</ele>
        <time>2022-02-17T13:37:34Z</time>
      </trkpt>
      <trkpt lat="48.3491" lon="2.77428">
        <ele>77.6</ele>
        <time>2022-02-17T13:37:39Z</time>
      </trkpt>
      <trkpt lat="48.34914" lon="2.77427">
        <ele>77.94</ele>
        <time>2022-02-17T13:37:44Z</time>
      </trkpt>
      <trkpt lat="48.34918" lon="2.77424">
        <ele>77.89</ele>
        <time>2022-02-17T13:37:49Z</time>
      </trkpt>
      <trkpt lat="48.34925" lon="2.77423">
        <ele>78.33</ele>
        <time>2022-02-17T13:37:54Z</time>
      </trkpt>
      <trkpt lat="48.34932" lon="2.77426">
        <ele>78.57</ele>
        <time>2022-02-17T13:37:59Z</time>
      </trkpt>
      <trkpt lat="48.34939" lon="2.77426">
        <ele>78.59</ele>
        <time>2022-02-17T13:38:04Z</time>
      </trkpt>
      <trkpt lat="48.34944" lon="2.77426">
        <ele>78.68</ele>
        <time>2022-02-17T13:38:09Z</time>
      </trkpt>
      <trkpt lat="48.34948" lon="2.77426">
        <ele>78.72</ele>
        <time>2022-02-17T13:38:14Z</time>
      </trkpt>
      <trkpt lat="48.34951" lon="2.77425">
        <ele>78.57</ele>
        <time>2022-02-17T13:38:19Z</time>
      </trkpt>
      <trkpt lat="48.34957" lon="2.77423">
        <ele>78.37</ele>
        <time>2022-02-17T13:38:24Z</time>
      </trkpt>
      <trkpt lat="48.34961" lon="2.77421">
        <ele>78.47</ele>
        <time>2022-02-17T13:38:29Z</time>
      </trkpt>
      <trkpt lat="48.34965" lon="2.7742">
        <ele>78.71</ele>
        <time>2022-02-17T13:38:34Z</time>
      </trkpt>
      <trkpt lat="48.34969" lon="2.7742">
        <ele>79.59</ele>
        <time>2022-02-17T13:38:39Z</time>
      </trkpt>
      <trkpt lat="48.34973" lon="2.77422">
        <ele>79.93</ele>
        <time>2022-02-17T13:38:44Z</time>
      </trkpt>
      <trkpt lat="48.34979" lon="2.77424">
        <ele>79.52</ele>
        <time>2022-02-17T13:38:49Z</time>
      </trkpt>
      <trkpt lat="48.34984" lon="2.77425">
        <ele>79.6</ele>
        <time>2022-02-17T13:38:54Z</time>
      </trkpt>
      <trkpt lat="48.34989" lon="2.77425">
        <ele>79.38</ele>
        <time>2022-02-17T13:38:59Z</time>
      </trkpt>
      <trkpt lat="48.34993" lon="2.77424">
        <ele>79.36</ele>
        <time>2022-02-17T13:39:04Z</time>
      </trkpt>
      <trkpt lat="48.34999" lon="2.77423">
        <ele>79.87</ele>
        <time>2022-02-17T13:39:09Z</time>
      </trkpt>
      <trkpt lat="48.35004" lon="2.77422">
        <ele>79.5</ele>
        <time>2022-02-17T13:39:14Z</time>
      </trkpt>
      <trkpt lat="48.35011" lon="2.77421">
        <ele>79.32</ele>
        <time>2022-02-17T13:39:19Z</time>
      </trkpt>
      <trkpt lat="48.35018" lon="2.77419">
        <ele>78.88</ele>
        <time>2022-02-17T13:39:24Z</time>
      </trkpt>
      <trkpt lat="48.35023" lon="2.77419">
        <ele>79.01</ele>
        <time>2022-02-17T13:39:29Z</time>
      </trkpt>
      <trkpt lat="48.35028" lon="2.77421">
        <ele>79.88</ele>
        <time>2022-02-17T13:39:34Z</time>
      </trkpt>
      <trkpt lat="48.35033" lon="2.7742">
        <ele>80.33</ele>
        <time>2022-02-17T13:39:39Z</time>
      </trkpt>
      <trkpt lat="48.35037" lon="2.77421">
        <ele>80.67</ele>
        <time>2022-02-17T13:39:44Z</time>
      </trkpt>
      <trkpt lat="48.35043" lon="2.77419">
        <ele>80.74</ele>
        <time>2022-02-17T13:39:49Z</time>
      </trkpt>
      <trkpt lat="48.35049" lon="2.77418">
        <ele>81.07</ele>
        <time>2022-02-17T13:39:54Z</time>
      </trkpt>
      <trkpt lat="48.35056" lon="2.77417">
        <ele>81.18</ele>
        <time>2022-02-17T13:39:59Z</time>
      </trkpt>
      <trkpt lat="48.35061" lon="2.77418">
        <ele>81.35</ele>
        <time>2022-02-17T13:40:04Z</time>
      </trkpt>
      <trkpt lat="48.35065" lon="2.77418">
        <ele>81.25</ele>
        <time>2022-02-17T13:40:09Z</time>
      </trkpt>
      <trkpt lat="48.35068" lon="2.77417">
        <ele>81.76</ele>
        <time>2022-02-17T13:40:14Z</time>
      </trkpt>
      <trkpt lat="48.35073" lon="2.77417">
        <ele>82.37</ele>
        <time>2022-02-17T13:40:19Z</time>
      </trkpt>
      <trkpt lat="48.35078" lon="2.77416">
        <ele>81.94</ele>
        <time>2022-02-17T13:40:24Z</time>
      </trkpt>
      <trkpt lat="48.35082" lon="2.77414">
        <ele>81.56</ele>
        <time>2022-02-17T13:40:29Z</time>
      </trkpt>
      <trkpt lat="48.35088" lon="2.77414">
        <ele>81.69</ele>
        <time>2022-02-17T13:40:34Z</time>
      </trkpt>
      <trkpt lat="48.35096" lon="2.77414">
        <ele>82.21</ele>
        <time>2022-02-17T13:40:39Z</time>
      </trkpt>
      <trkpt lat="48.35102" lon="2.77415">
        <ele>82.52</ele>
        <time>2022-02-17T13:40:44Z</time>
      </trkpt>
      <trkpt lat="48.35108" lon="2.77415">
        <ele>82.55</ele>
        <time>2022-02-17T13:40:49Z</time>
      </trkpt>
      <trkpt lat="48.35114" lon="2.77415">
        <ele>82.73</ele>
        <time>2022-02-17T13:40:54Z</time>
      </trkpt>
      <trkpt lat="48.35119" lon="2.77414">
        <ele>82.91</ele>
        <time>2022-02-17T13:40:59Z</time>
      </trkpt>
      <trkpt lat="48.35124" lon="2.77409">
        <ele>83.21</ele>
        <time>2022-02-17T13:41:04Z</time>
      </trkpt>
      <trkpt lat="48.35128" lon="2.77403">
        <ele>83.39</ele>
        <time>2022-02-17T13:41:09Z</time>
      </trkpt>
      <trkpt lat="48.35133" lon="2.774">
        <ele>83.3</ele>
        <time>2022-02-17T13:41:14Z</time>
      </trkpt>
      <trkpt lat="48.35138" lon="2.77398">
        <ele>83.16</ele>
        <time>2022-02-17T13:41:19Z</time>
      </trkpt>
      <trkpt lat="48.35143" lon="2.77395">
        <ele>83.19</ele>
        <time>2022-02-17T13:41:24Z</time>
      </trkpt>
      <trkpt lat="48.35147" lon="2.77391">
        <ele>83.97</ele>
        <time>2022-02-17T13:41:29Z</time>
      </trkpt>
      <trkpt lat="48.35152" lon="2.77387">
        <ele>84.14</ele>
        <time>2022-02-17T13:41:34Z</time>
      </trkpt>
      <trkpt lat="48.35156" lon="2.77384">
        <ele>84.04</ele>
        <time>2022-02-17T13:41:39Z</time>
      </trkpt>
      <trkpt lat="48.35161" lon="2.77378">
        <ele>83.95</ele>
        <time>2022-02-17T13:41:44Z</time>
      </trkpt>
      <trkpt lat="48.35163" lon="2.77375">
        <ele>83.99</ele>
        <time>2022-02-17T13:41:49Z</time>
      </trkpt>
      <trkpt lat="48.35167" lon="2.7737">
        <ele>84.17</ele>
        <time>2022-02-17T13:41:54Z</time>
      </trkpt>
      <trkpt lat="48.35174" lon="2.77365">
        <ele>84.12</ele>
        <time>2022-02-17T13:41:59Z</time>
      </trkpt>
      <trkpt lat="48.35179" lon="2.77362">
        <ele>84.07</ele>
        <time>2022-02-17T13:42:04Z</time>
      </trkpt>
      <trkpt lat="48.35186" lon="2.77358">
        <ele>84.31</ele>
        <time>2022-02-17T13:42:09Z</time>
      </trkpt>
      <trkpt lat="48.35192" lon="2.77355">
        <ele>84.1</ele>
        <time>2022-02-17T13:42:14Z</time>
      </trkpt>
      <trkpt lat="48.35197" lon="2.77351">
        <ele>83.33</ele>
        <time>2022-02-17T13:42:19Z</time>
      </trkpt>
      <trkpt lat="48.35201" lon="2.77346">
        <ele>83.35</ele>
        <time>2022-02-17T13:42:24Z</time>
      </trkpt>
      <trkpt lat="48.35206" lon="2.77343">
        <ele>83.52</ele>
        <time>2022-02-17T13:42:29Z</time>
      </trkpt>
      <trkpt lat="48.3521" lon="2.77338">
        <ele>83.62</ele>
        <time>2022-02-17T13:42:34Z</time>
      </trkpt>
      <trkpt lat="48.35212" lon="2.77335">
        <ele>83.64</ele>
        <time>2022-02-17T13:42:39Z</time>
      </trkpt>
      <trkpt lat="48.35216" lon="2.77331">
        <ele>83.49</ele>
        <time>2022-02-17T13:42:44Z</time>
      </trkpt>
      <trkpt lat="48.35219" lon="2.77327">
        <ele>83.13</ele>
        <time>2022-02-17T13:42:49Z</time>
      </trkpt>
      <trkpt lat="48.35223" lon="2.77325">
        <ele>83.07</ele>
        <time>2022-02-17T13:42:54Z</time>
      </trkpt>
      <trkpt lat="48.35228" lon="2.77322">
        <ele>83.06</ele>
        <time>2022-02-17T13:42:59Z</time>
      </trkpt>
      <trkpt lat="48.35232" lon="2.77317">
        <ele>83.77</ele>
        <time>2022-02-17T13:43:04Z</time>
      </trkpt>
      <trkpt lat="48.35237" lon="2.77312">
        <ele>83.99</ele>
        <time>2022-02-17T13:43:09Z</time>
      </trkpt>
      <trkpt lat="48.35243" lon="2.77307">
        <ele>83.97</ele>
        <time>2022-02-17T13:43:14Z</time>
      </trkpt>
      <trkpt lat="48.3525" lon="2.77302">
        <ele>84.11</ele>
        <time>2022-02-17T13:43:19Z</time>
      </trkpt>
      <trkpt lat="48.35257" lon="2.77296">
        <ele>84.45</ele>
        <time>2022-02-17T13:43:24Z</time>
      </trkpt>
      <trkpt lat="48.35261" lon="2.77292">
        <ele>84.74</ele>
        <time>2022-02-17T13:43:29Z</time>
      </trkpt>
      <trkpt lat="48.35263" lon="2.77292">
        <ele>85.37</ele>
        <time>2022-02-17T13:43:34Z</time>
      </trkpt>
      <trkpt lat="48.35267" lon="2.77288">
        <ele>85.38</ele>
        <time>2022-02-17T13:43:39Z</time>
      </trkpt>
      <trkpt lat="48.3527" lon="2.77284">
        <ele>85.25</ele>
        <time>2022-02-17T13:43:44Z</time>
      </trkpt>
      <trkpt lat="48.35274" lon="2.7728">
        <ele>85.45</ele>
        <time>2022-02-17T13:43:49Z</time>
      </trkpt>
      <trkpt lat="48.3528" lon="2.77277">
        <ele>85.78</ele>
        <time>2022-02-17T13:43:54Z</time>
      </trkpt>
      <trkpt lat="48.35283" lon="2.77276">
        <ele>86.11</ele>
        <time>2022-02-17T13:43:59Z</time>
      </trkpt>
      <trkpt lat="48.35288" lon="2.77274">
        <ele>86.43</ele>
        <time>2022-02-17T13:44:04Z</time>
      </trkpt>
      <trkpt lat="48.35293" lon="2.77273">
        <ele>86.92</ele>
        <time>2022-02-17T13:44:09Z</time>
      </trkpt>
      <trkpt lat="48.35297" lon="2.77271">
        <ele>87.64</ele>
        <time>2022-02-17T13:44:14Z</time>
      </trkpt>
      <trkpt lat="48.35302" lon="2.7727">
        <ele>88.83</ele>
        <time>2022-02-17T13:44:19Z</time>
      </trkpt>
      <trkpt lat="48.35306" lon="2.77269">
        <ele>90.78</ele>
        <time>2022-02-17T13:44:24Z</time>
      </trkpt>
      <trkpt lat="48.3531" lon="2.77268">
        <ele>92.26</ele>
        <time>2022-02-17T13:44:29Z</time>
      </trkpt>
      <trkpt lat="48.35315" lon="2.77266">
        <ele>93.04</ele>
        <time>2022-02-17T13:44:34Z</time>
      </trkpt>
      <trkpt lat="48.35318" lon="2.77266">
        <ele>93.83</ele>
        <time>2022-02-17T13:44:39Z</time>
      </trkpt>
      <trkpt lat="48.35323" lon="2.77265">
        <ele>94.52</ele>
        <time>2022-02-17T13:44:44Z</time>
      </trkpt>
      <trkpt lat="48.35329" lon="2.77261">
        <ele>95.13</ele>
        <time>2022-02-17T13:44:49Z</time>
      </trkpt>
      <trkpt lat="48.35333" lon="2.77254">
        <ele>96.11</ele>
        <time>2022-02-17T13:44:54Z</time>
      </trkpt>
      <trkpt lat="48.35337" lon="2.77251">
        <ele>96.92</ele>
        <time>2022-02-17T13:44:59Z</time>
      </trkpt>
      <trkpt lat="48.35338" lon="2.7725">
        <ele>97.26</ele>
        <time>2022-02-17T13:45:04Z</time>
      </trkpt>
      <trkpt lat="48.3534" lon="2.7725">
        <ele>97.23</ele>
        <time>2022-02-17T13:45:09Z</time>
      </trkpt>
      <trkpt lat="48.35344" lon="2.77251">
        <ele>96.78</ele>
        <time>2022-02-17T13:45:14Z</time>
      </trkpt>
      <trkpt lat="48.35348" lon="2.77252">
        <ele>96.57</ele>
        <time>2022-02-17T13:45:19Z</time>
      </trkpt>
      <trkpt lat="48.35351" lon="2.77253">
        <ele>96.44</ele>
        <time>2022-02-17T13:45:24Z</time>
      </trkpt>
      <trkpt lat="48.35354" lon="2.77254">
        <ele>95.71</ele>
        <time>2022-02-17T13:45:29Z</time>
      </trkpt>
      <trkpt lat="48.35358" lon="2.77254">
        <ele>95.09</ele>
        <time>2022-02-17T13:45:34Z</time>
      </trkpt>
      <trkpt lat="48.35362" lon="2.77253">
        <ele>94.2</ele>
        <time>2022-02-17T13:45:39Z</time>
      </trkpt>
      <trkpt lat="48.35367" lon="2.77253">
        <ele>93.36</ele>
        <time>2022-02-17T13:45:44Z</time>
      </trkpt>
      <trkpt lat="48.35372" lon="2.77253">
        <ele>92.33</ele>
        <time>2022-02-17T13:45:49Z</time>
      </trkpt>
      <trkpt lat="48.35375" lon="2.77253">
        <ele>91.43</ele>
        <time>2022-02-17T13:45:54Z</time>
      </trkpt>
      <trkpt lat="48.35378" lon="2.77252">
        <ele>90.46</ele>
        <time>2022-02-17T13:45:59Z</time>
      </trkpt>
      <trkpt lat="48.35383" lon="2.77251">
        <ele>89.53</ele>
        <time>2022-02-17T13:46:04Z</time>
      </trkpt>
      <trkpt lat="48.35388" lon="2.7725">
        <ele>88.66</ele>
        <time>2022-02-17T13:46:09Z</time>
      </trkpt>
      <trkpt lat="48.35393" lon="2.77248">
        <ele>87.81</ele>
        <time>2022-02-17T13:46:14Z</time>
      </trkpt>
      <trkpt lat="48.35398" lon="2.77243">
        <ele>87.22</ele>
        <time>2022-02-17T13:46:19Z</time>
      </trkpt>
      <trkpt lat="48.35401" lon="2.7724">
        <ele>86.95</ele>
        <time>2022-02-17T13:46:24Z</time>
      </trkpt>
      <trkpt lat="48.35404" lon="2.77235">
        <ele>86.37</ele>
        <time>2022-02-17T13:46:29Z</time>
      </trkpt>
      <trkpt lat="48.3541" lon="2.77228">
        <ele>86.11</ele>
        <time>2022-02-17T13:46:34Z</time>
      </trkpt>
      <trkpt lat="48.35416" lon="2.77223">
        <ele>85.44</ele>
        <time>2022-02-17T13:46:39Z</time>
      </trkpt>
      <trkpt lat="48.35419" lon="2.77216">
        <ele>84.44</ele>
        <time>2022-02-17T13:46:44Z</time>
      </trkpt>
      <trkpt lat="48.35423" lon="2.77211">
        <ele>83.68</ele>
        <time>2022-02-17T13:46:49Z</time>
      </trkpt>
      <trkpt lat="48.35425" lon="2.77204">
        <ele>83.22</ele>
        <time>2022-02-17T13:46:54Z</time>
      </trkpt>
      <trkpt lat="48.35427" lon="2.77198">
        <ele>82.83</ele>
        <time>2022-02-17T13:46:59Z</time>
      </trkpt>
      <trkpt lat="48.35428" lon="2.77192">
        <ele>82.37</ele>
        <time>2022-02-17T13:47:04Z</time>
      </trkpt>
      <trkpt lat="48.3543" lon="2.77186">
        <ele>82.11</ele>
        <time>2022-02-17T13:47:09Z</time>
      </trkpt>
      <trkpt lat="48.35431" lon="2.7718">
        <ele>81.65</ele>
        <time>2022-02-17T13:47:14Z</time>
      </trkpt>
      <trkpt lat="48.35434" lon="2.77176">
        <ele>81.43</ele>
        <time>2022-02-17T13:47:19Z</time>
      </trkpt>
      <trkpt lat="48.35436" lon="2.77175">
        <ele>81.38</ele>
        <time>2022-02-17T13:47:24Z</time>
      </trkpt>
      <trkpt lat="48.35438" lon="2.77174">
        <ele>81.24</ele>
        <time>2022-02-17T13:47:29Z</time>
      </trkpt>
      <trkpt lat="48.35441" lon="2.7717">
        <ele>81.13</ele>
        <time>2022-02-17T13:47:34Z</time>
      </trkpt>
      <trkpt lat="48.35443" lon="2.77163">
        <ele>81.28</ele>
        <time>2022-02-17T13:47:39Z</time>
      </trkpt>
      <trkpt lat="48.35447" lon="2.77159">
        <ele>81.48</ele>
        <time>2022-02-17T13:47:44Z</time>
      </trkpt>
      <trkpt lat="48.35451" lon="2.77154">
        <ele>81.53</ele>
        <time>2022-02-17T13:47:49Z</time>
      </trkpt>
      <trkpt lat="48.35454" lon="2.77149">
        <ele>81.55</ele>
        <time>2022-02-17T13:47:54Z</time>
      </trkpt>
      <trkpt lat="48.35459" lon="2.77143">
        <ele>81.45</ele>
        <time>2022-02-17T13:47:59Z</time>
      </trkpt>
      <trkpt lat="48.35462" lon="2.77139">
        <ele>81.35</ele>
        <time>2022-02-17T13:48:04Z</time>
      </trkpt>
      <trkpt lat="48.35462" lon="2.77135">
        <ele>81.05</ele>
        <time>2022-02-17T13:48:09Z</time>
      </trkpt>
      <trkpt lat="48.35465" lon="2.77129">
        <ele>80.58</ele>
        <time>2022-02-17T13:48:14Z</time>
      </trkpt>
      <trkpt lat="48.35468" lon="2.77122">
        <ele>80.22</ele>
        <time>2022-02-17T13:48:19Z</time>
      </trkpt>
      <trkpt lat="48.35471" lon="2.77116">
        <ele>80.21</ele>
        <time>2022-02-17T13:48:24Z</time>
      </trkpt>
      <trkpt lat="48.35471" lon="2.77109">
        <ele>80.45</ele>
        <time>2022-02-17T13:48:29Z</time>
      </trkpt>
      <trkpt lat="48.35474" lon="2.77101">
        <ele>79.92</ele>
        <time>2022-02-17T13:48:34Z</time>
      </trkpt>
      <trkpt lat="48.35476" lon="2.77091">
        <ele>79.72</ele>
        <time>2022-02-17T13:48:39Z</time>
      </trkpt>
      <trkpt lat="48.35478" lon="2.77083">
        <ele>79.64</ele>
        <time>2022-02-17T13:48:44Z</time>
      </trkpt>
      <trkpt lat="48.35482" lon="2.77077">
        <ele>79.79</ele>
        <time>2022-02-17T13:48:49Z</time>
      </trkpt>
      <trkpt lat="48.35485" lon="2.77074">
        <ele>79.83</ele>
        <time>2022-02-17T13:48:54Z</time>
      </trkpt>
      <trkpt lat="48.35488" lon="2.77074">
        <ele>79.83</ele>
        <time>2022-02-17T13:48:59Z</time>
      </trkpt>
      <trkpt lat="48.35492" lon="2.77075">
        <ele>79.84</ele>
        <time>2022-02-17T13:49:04Z</time>
      </trkpt>
      <trkpt lat="48.35496" lon="2.77076">
        <ele>79.71</ele>
        <time>2022-02-17T13:49:09Z</time>
      </trkpt>
      <trkpt lat="48.35501" lon="2.77077">
        <ele>79.63</ele>
        <time>2022-02-17T13:49:14Z</time>
      </trkpt>
      <trkpt lat="48.35505" lon="2.77078">
        <ele>79.46</ele>
        <time>2022-02-17T13:49:19Z</time>
      </trkpt>
      <trkpt lat="48.3551" lon="2.77078">
        <ele>79.27</ele>
        <time>2022-02-17T13:49:24Z</time>
      </trkpt>
      <trkpt lat="48.35515" lon="2.7708">
        <ele>79.09</ele>
        <time>2022-02-17T13:49:29Z</time>
      </trkpt>
      <trkpt lat="48.35521" lon="2.77079">
        <ele>78.96</ele>
        <time>2022-02-17T13:49:34Z</time>
      </trkpt>
      <trkpt lat="48.35525" lon="2.77079">
        <ele>78.87</ele>
        <time>2022-02-17T13:49:39Z</time>
      </trkpt>
      <trkpt lat="48.3553" lon="2.77081">
        <ele>78.82</ele>
        <time>2022-02-17T13:49:44Z</time>
      </trkpt>
      <trkpt lat="48.35536" lon="2.77081">
        <ele>78.76</ele>
        <time>2022-02-17T13:49:49Z</time>
      </trkpt>
      <trkpt lat="48.35542" lon="2.77081">
        <ele>78.73</ele>
        <time>2022-02-17T13:49:54Z</time>
      </trkpt>
      <trkpt lat="48.35546" lon="2.77081">
        <ele>78.68</ele>
        <time>2022-02-17T13:49:59Z</time>
      </trkpt>
      <trkpt lat="48.35552" lon="2.77081">
        <ele>78.56</ele>
        <time>2022-02-17T13:50:04Z</time>
      </trkpt>
      <trkpt lat="48.35557" lon="2.77081">
        <ele>78.67</ele>
        <time>2022-02-17T13:50:09Z</time>
      </trkpt>
      <trkpt lat="48.35563" lon="2.77082">
        <ele>78.78</ele>
        <time>2022-02-17T13:50:14Z</time>
      </trkpt>
      <trkpt lat="48.35567" lon="2.77083">
        <ele>78.85</ele>
        <time>2022-02-17T13:50:19Z</time>
      </trkpt>
      <trkpt lat="48.35572" lon="2.77083">
        <ele>79.11</ele>
        <time>2022-02-17T13:50:24Z</time>
      </trkpt>
      <trkpt lat="48.35578" lon="2.77083">
        <ele>79.48</ele>
        <time>2022-02-17T13:50:29Z</time>
      </trkpt>
      <trkpt lat="48.35583" lon="2.77084">
        <ele>79.74</ele>
        <time>2022-02-17T13:50:34Z</time>
      </trkpt>
      <trkpt lat="48.35589" lon="2.77083">
        <ele>79.77</ele>
        <time>2022-02-17T13:50:39Z</time>
      </trkpt>
      <trkpt lat="48.35595" lon="2.77084">
        <ele>79.57</ele>
        <time>2022-02-17T13:50:44Z</time>
      </trkpt>
      <trkpt lat="48.356" lon="2.77084">
        <ele>79.19</ele>
        <time>2022-02-17T13:50:49Z</time>
      </trkpt>
      <trkpt lat="48.35605" lon="2.77085">
        <ele>78.84</ele>
        <time>2022-02-17T13:50:54Z</time>
      </trkpt>
      <trkpt lat="48.35609" lon="2.77086">
        <ele>79.08</ele>
        <time>2022-02-17T13:50:59Z</time>
      </trkpt>
      <trkpt lat="48.35614" lon="2.77086">
        <ele>79.04</ele>
        <time>2022-02-17T13:51:04Z</time>
      </trkpt>
      <trkpt lat="48.35619" lon="2.77086">
        <ele>79.23</ele>
        <time>2022-02-17T13:51:09Z</time>
      </trkpt>
      <trkpt lat="48.35624" lon="2.77085">
        <ele>79.31</ele>
        <time>2022-02-17T13:51:14Z</time>
      </trkpt>
      <trkpt lat="48.3563" lon="2.77085">
        <ele>78.62</ele>
        <time>2022-02-17T13:51:19Z</time>
      </trkpt>
      <trkpt lat="48.35637" lon="2.77085">
        <ele>78.7</ele>
        <time>2022-02-17T13:51:24Z</time>
      </trkpt>
      <trkpt lat="48.35645" lon="2.77086">
        <ele>78.68</ele>
        <time>2022-02-17T13:51:29Z</time>
      </trkpt>
      <trkpt lat="48.3565" lon="2.77087">
        <ele>78.62</ele>
        <time>2022-02-17T13:51:34Z</time>
      </trkpt>
      <trkpt lat="48.35655" lon="2.77088">
        <ele>78.55</ele>
        <time>2022-02-17T13:51:39Z</time>
      </trkpt>
      <trkpt lat="48.35658" lon="2.77089">
        <ele>78.73</ele>
        <time>2022-02-17T13:51:44Z</time>
      </trkpt>
      <trkpt lat="48.35663" lon="2.7709">
        <ele>78.66</ele>
        <time>2022-02-17T13:51:49Z</time>
      </trkpt>
      <trkpt lat="48.35669" lon="2.77091">
        <ele>78.5</ele>
        <time>2022-02-17T13:51:54Z</time>
      </trkpt>
      <trkpt lat="48.35674" lon="2.77091">
        <ele>78.38</ele>
        <time>2022-02-17T13:51:59Z</time>
      </trkpt>
      <trkpt lat="48.35681" lon="2.77091">
        <ele>78.15</ele>
        <time>2022-02-17T13:52:04Z</time>
      </trkpt>
      <trkpt lat="48.35688" lon="2.7709">
        <ele>78.24</ele>
        <time>2022-02-17T13:52:09Z</time>
      </trkpt>
      <trkpt lat="48.35694" lon="2.77091">
        <ele>78.32</ele>
        <time>2022-02-17T13:52:14Z</time>
      </trkpt>
      <trkpt lat="48.35697" lon="2.77091">
        <ele>78.29</ele>
        <time>2022-02-17T13:52:19Z</time>
      </trkpt>
      <trkpt lat="48.35703" lon="2.77093">
        <ele>78.6</ele>
        <time>2022-02-17T13:52:24Z</time>
      </trkpt>
      <trkpt lat="48.35709" lon="2.77095">
        <ele>78.57</ele>
        <time>2022-02-17T13:52:29Z</time>
      </trkpt>
      <trkpt lat="48.35714" lon="2.77095">
        <ele>78.59</ele>
        <time>2022-02-17T13:52:34Z</time>
      </trkpt>
      <trkpt lat="48.35719" lon="2.77094">
        <ele>78.65</ele>
        <time>2022-02-17T13:52:39Z</time>
      </trkpt>
      <trkpt lat="48.35725" lon="2.77095">
        <ele>78.79</ele>
        <time>2022-02-17T13:52:44Z</time>
      </trkpt>
      <trkpt lat="48.3573" lon="2.77096">
        <ele>78.65</ele>
        <time>2022-02-17T13:52:49Z</time>
      </trkpt>
      <trkpt lat="48.35737" lon="2.77095">
        <ele>78.09</ele>
        <time>2022-02-17T13:52:54Z</time>
      </trkpt>
      <trkpt lat="48.35742" lon="2.77094">
        <ele>77.84</ele>
        <time>2022-02-17T13:52:59Z</time>
      </trkpt>
      <trkpt lat="48.35749" lon="2.77095">
        <ele>77.87</ele>
        <time>2022-02-17T13:53:04Z</time>
      </trkpt>
      <trkpt lat="48.35755" lon="2.77095">
        <ele>77.71</ele>
        <time>2022-02-17T13:53:09Z</time>
      </trkpt>
      <trkpt lat="48.3576" lon="2.77095">
        <ele>77.6</ele>
        <time>2022-02-17T13:53:14Z</time>
      </trkpt>
      <trkpt lat="48.35765" lon="2.77094">
        <ele>77.69</ele>
        <time>2022-02-17T13:53:19Z</time>
      </trkpt>
      <trkpt lat="48.3577" lon="2.77096">
        <ele>77.84</ele>
        <time>2022-02-17T13:53:24Z</time>
      </trkpt>
      <trkpt lat="48.35775" lon="2.77099">
        <ele>78.02</ele>
        <time>2022-02-17T13:53:29Z</time>
      </trkpt>
      <trkpt lat="48.35782" lon="2.77102">
        <ele>78.33</ele>
        <time>2022-02-17T13:53:34Z</time>
      </trkpt>
      <trkpt lat="48.35789" lon="2.77101">
        <ele>78.62</ele>
        <time>2022-02-17T13:53:39Z</time>
      </trkpt>
      <trkpt lat="48.35795" lon="2.77101">
        <ele>78.27</ele>
        <time>2022-02-17T13:53:44Z</time>
      </trkpt>
      <trkpt lat="48.35799" lon="2.771">
        <ele>78.11</ele>
        <time>2022-02-17T13:53:49Z</time>
      </trkpt>
      <trkpt lat="48.35804" lon="2.771">
        <ele>78.22</ele>
        <time>2022-02-17T13:53:54Z</time>
      </trkpt>
      <trkpt lat="48.3581" lon="2.77101">
        <ele>78.33</ele>
        <time>2022-02-17T13:53:59Z</time>
      </trkpt>
      <trkpt lat="48.35816" lon="2.77102">
        <ele>78.26</ele>
        <time>2022-02-17T13:54:04Z</time>
      </trkpt>
      <trkpt lat="48.35821" lon="2.77103">
        <ele>78.25</ele>
        <time>2022-02-17T13:54:09Z</time>
      </trkpt>
      <trkpt lat="48.35826" lon="2.77105">
        <ele>78.31</ele>
        <time>2022-02-17T13:54:14Z</time>
      </trkpt>
      <trkpt lat="48.35832" lon="2.77105">
        <ele>78.55</ele>
        <time>2022-02-17T13:54:19Z</time>
      </trkpt>
      <trkpt lat="48.35838" lon="2.77106">
        <ele>78.6</ele>
        <time>2022-02-17T13:54:24Z</time>
      </trkpt>
      <trkpt lat="48.35842" lon="2.77105">
        <ele>78.63</ele>
        <time>2022-02-17T13:54:29Z</time>
      </trkpt>
      <trkpt lat="48.35848" lon="2.77106">
        <ele>78.49</ele>
        <time>2022-02-17T13:54:34Z</time>
      </trkpt>
      <trkpt lat="48.35853" lon="2.77107">
        <ele>78.42</ele>
        <time>2022-02-17T13:54:39Z</time>
      </trkpt>
      <trkpt lat="48.35859" lon="2.77108">
        <ele>78.45</ele>
        <time>2022-02-17T13:54:44Z</time>
      </trkpt>
      <trkpt lat="48.35866" lon="2.77111">
        <ele>78.59</ele>
        <time>2022-02-17T13:54:49Z</time>
      </trkpt>
      <trkpt lat="48.35872" lon="2.77112">
        <ele>78.53</ele>
        <time>2022-02-17T13:54:54Z</time>
      </trkpt>
      <trkpt lat="48.35879" lon="2.77112">
        <ele>78.5</ele>
        <time>2022-02-17T13:54:59Z</time>
      </trkpt>
      <trkpt lat="48.35883" lon="2.77111">
        <ele>78.65</ele>
        <time>2022-02-17T13:55:04Z</time>
      </trkpt>
      <trkpt lat="48.35888" lon="2.77111">
        <ele>78.65</ele>
        <time>2022-02-17T13:55:09Z</time>
      </trkpt>
      <trkpt lat="48.35895" lon="2.77113">
        <ele>78.62</ele>
        <time>2022-02-17T13:55:14Z</time>
      </trkpt>
      <trkpt lat="48.359" lon="2.77112">
        <ele>78.54</ele>
        <time>2022-02-17T13:55:19Z</time>
      </trkpt>
      <trkpt lat="48.35905" lon="2.77113">
        <ele>78.34</ele>
        <time>2022-02-17T13:55:24Z</time>
      </trkpt>
      <trkpt lat="48.3591" lon="2.77114">
        <ele>78.05</ele>
        <time>2022-02-17T13:55:29Z</time>
      </trkpt>
      <trkpt lat="48.35914" lon="2.77111">
        <ele>77.65</ele>
        <time>2022-02-17T13:55:34Z</time>
      </trkpt>
      <trkpt lat="48.3592" lon="2.77109">
        <ele>77.34</ele>
        <time>2022-02-17T13:55:39Z</time>
      </trkpt>
      <trkpt lat="48.35927" lon="2.77109">
        <ele>77.23</ele>
        <time>2022-02-17T13:55:44Z</time>
      </trkpt>
      <trkpt lat="48.35931" lon="2.7711">
        <ele>77.28</ele>
        <time>2022-02-17T13:55:49Z</time>
      </trkpt>
      <trkpt lat="48.35939" lon="2.77113">
        <ele>77.38</ele>
        <time>2022-02-17T13:55:54Z</time>
      </trkpt>
      <trkpt lat="48.35945" lon="2.77114">
        <ele>77.35</ele>
        <time>2022-02-17T13:55:59Z</time>
      </trkpt>
      <trkpt lat="48.35951" lon="2.77114">
        <ele>77.25</ele>
        <time>2022-02-17T13:56:04Z</time>
      </trkpt>
      <trkpt lat="48.35957" lon="2.77115">
        <ele>77.48</ele>
        <time>2022-02-17T13:56:09Z</time>
      </trkpt>
      <trkpt lat="48.35963" lon="2.77116">
        <ele>77.41</ele>
        <time>2022-02-17T13:56:14Z</time>
      </trkpt>
      <trkpt lat="48.35969" lon="2.77116">
        <ele>77.28</ele>
        <time>2022-02-17T13:56:19Z</time>
      </trkpt>
      <trkpt lat="48.35974" lon="2.77117">
        <ele>76.58</ele>
        <time>2022-02-17T13:56:24Z</time>
      </trkpt>
      <trkpt lat="48.3598" lon="2.77117">
        <ele>76.45</ele>
        <time>2022-02-17T13:56:29Z</time>
      </trkpt>
      <trkpt lat="48.35987" lon="2.77118">
        <ele>76.82</ele>
        <time>2022-02-17T13:56:34Z</time>
      </trkpt>
      <trkpt lat="48.35993" lon="2.7712">
        <ele>76.5</ele>
        <time>2022-02-17T13:56:39Z</time>
      </trkpt>
      <trkpt lat="48.35997" lon="2.77123">
        <ele>76.96</ele>
        <time>2022-02-17T13:56:44Z</time>
      </trkpt>
      <trkpt lat="48.36002" lon="2.77125">
        <ele>77.42</ele>
        <time>2022-02-17T13:56:49Z</time>
      </trkpt>
      <trkpt lat="48.36007" lon="2.77126">
        <ele>77.19</ele>
        <time>2022-02-17T13:56:54Z</time>
      </trkpt>
      <trkpt lat="48.36012" lon="2.77124">
        <ele>77.17</ele>
        <time>2022-02-17T13:56:59Z</time>
      </trkpt>
      <trkpt lat="48.36018" lon="2.77124">
        <ele>77.27</ele>
        <time>2022-02-17T13:57:04Z</time>
      </trkpt>
      <trkpt lat="48.36026" lon="2.77125">
        <ele>77.36</ele>
        <time>2022-02-17T13:57:09Z</time>
      </trkpt>
      <trkpt lat="48.36031" lon="2.77126">
        <ele>77.45</ele>
        <time>2022-02-17T13:57:14Z</time>
      </trkpt>
      <trkpt lat="48.36037" lon="2.77127">
        <ele>77.87</ele>
        <time>2022-02-17T13:57:19Z</time>
      </trkpt>
      <trkpt lat="48.36042" lon="2.77128">
        <ele>78.65</ele>
        <time>2022-02-17T13:57:24Z</time>
      </trkpt>
      <trkpt lat="48.36048" lon="2.77129">
        <ele>78.15</ele>
        <time>2022-02-17T13:57:29Z</time>
      </trkpt>
      <trkpt lat="48.36055" lon="2.77128">
        <ele>77.42</ele>
        <time>2022-02-17T13:57:34Z</time>
      </trkpt>
      <trkpt lat="48.36062" lon="2.77126">
        <ele>77.56</ele>
        <time>2022-02-17T13:57:39Z</time>
      </trkpt>
      <trkpt lat="48.36067" lon="2.77125">
        <ele>77.92</ele>
        <time>2022-02-17T13:57:44Z</time>
      </trkpt>
      <trkpt lat="48.36074" lon="2.77127">
        <ele>78.59</ele>
        <time>2022-02-17T13:57:49Z</time>
      </trkpt>
      <trkpt lat="48.36079" lon="2.77129">
        <ele>78.41</ele>
        <time>2022-02-17T13:57:54Z</time>
      </trkpt>
      <trkpt lat="48.36081" lon="2.7713">
        <ele>77.8</ele>
        <time>2022-02-17T13:57:59Z</time>
      </trkpt>
      <trkpt lat="48.36082" lon="2.7713">
        <ele>77.67</ele>
        <time>2022-02-17T13:58:04Z</time>
      </trkpt>
      <trkpt lat="48.36085" lon="2.77125">
        <ele>77.67</ele>
        <time>2022-02-17T13:58:09Z</time>
      </trkpt>
      <trkpt lat="48.36086" lon="2.77118">
        <ele>77.67</ele>
        <time>2022-02-17T13:58:14Z</time>
      </trkpt>
      <trkpt lat="48.36088" lon="2.77111">
        <ele>77.94</ele>
        <time>2022-02-17T13:58:19Z</time>
      </trkpt>
      <trkpt lat="48.36089" lon="2.77102">
        <ele>78.63</ele>
        <time>2022-02-17T13:58:24Z</time>
      </trkpt>
      <trkpt lat="48.3609" lon="2.77094">
        <ele>78.2</ele>
        <time>2022-02-17T13:58:29Z</time>
      </trkpt>
      <trkpt lat="48.36091" lon="2.77086">
        <ele>77.92</ele>
        <time>2022-02-17T13:58:34Z</time>
      </trkpt>
      <trkpt lat="48.36091" lon="2.77077">
        <ele>77.98</ele>
        <time>2022-02-17T13:58:39Z</time>
      </trkpt>
      <trkpt lat="48.36091" lon="2.77069">
        <ele>77.95</ele>
        <time>2022-02-17T13:58:44Z</time>
      </trkpt>
      <trkpt lat="48.36091" lon="2.77062">
        <ele>77.97</ele>
        <time>2022-02-17T13:58:49Z</time>
      </trkpt>
      <trkpt lat="48.36092" lon="2.77052">
        <ele>78.3</ele>
        <time>2022-02-17T13:58:54Z</time>
      </trkpt>
      <trkpt lat="48.36093" lon="2.77044">
        <ele>78.74</ele>
        <time>2022-02-17T13:58:59Z</time>
      </trkpt>
      <trkpt lat="48.36093" lon="2.77036">
        <ele>79.05</ele>
        <time>2022-02-17T13:59:04Z</time>
      </trkpt>
      <trkpt lat="48.36096" lon="2.77029">
        <ele>79.51</ele>
        <time>2022-02-17T13:59:09Z</time>
      </trkpt>
      <trkpt lat="48.36097" lon="2.7702">
        <ele>79.43</ele>
        <time>2022-02-17T13:59:14Z</time>
      </trkpt>
      <trkpt lat="48.36098" lon="2.77012">
        <ele>79.12</ele>
        <time>2022-02-17T13:59:19Z</time>
      </trkpt>
      <trkpt lat="48.36099" lon="2.77004">
        <ele>78.85</ele>
        <time>2022-02-17T13:59:24Z</time>
      </trkpt>
      <trkpt lat="48.361" lon="2.76995">
        <ele>79.04</ele>
        <time>2022-02-17T13:59:29Z</time>
      </trkpt>
      <trkpt lat="48.36101" lon="2.76988">
        <ele>79.13</ele>
        <time>2022-02-17T13:59:34Z</time>
      </trkpt>
      <trkpt lat="48.36102" lon="2.76981">
        <ele>79.07</ele>
        <time>2022-02-17T13:59:39Z</time>
      </trkpt>
      <trkpt lat="48.36103" lon="2.76974">
        <ele>79.14</ele>
        <time>2022-02-17T13:59:44Z</time>
      </trkpt>
      <trkpt lat="48.36105" lon="2.76967">
        <ele>79.3</ele>
        <time>2022-02-17T13:59:49Z</time>
      </trkpt>
      <trkpt lat="48.36105" lon="2.7696">
        <ele>79.29</ele>
        <time>2022-02-17T13:59:54Z</time>
      </trkpt>
      <trkpt lat="48.36106" lon="2.7695">
        <ele>79.32</ele>
        <time>2022-02-17T13:59:59Z</time>
      </trkpt>
      <trkpt lat="48.36107" lon="2.7694">
        <ele>79.25</ele>
        <time>2022-02-17T14:00:04Z</time>
      </trkpt>
      <trkpt lat="48.3611" lon="2.76931">
        <ele>79.34</ele>
        <time>2022-02-17T14:00:09Z</time>
      </trkpt>
      <trkpt lat="48.36111" lon="2.76923">
        <ele>79.46</ele>
        <time>2022-02-17T14:00:14Z</time>
      </trkpt>
      <trkpt lat="48.36112" lon="2.76914">
        <ele>79.48</ele>
        <time>2022-02-17T14:00:19Z</time>
      </trkpt>
      <trkpt lat="48.36112" lon="2.76907">
        <ele>79.52</ele>
        <time>2022-02-17T14:00:24Z</time>
      </trkpt>
      <trkpt lat="48.36113" lon="2.76898">
        <ele>79.62</ele>
        <time>2022-02-17T14:00:29Z</time>
      </trkpt>
      <trkpt lat="48.36113" lon="2.7689">
        <ele>79.7</ele>
        <time>2022-02-17T14:00:34Z</time>
      </trkpt>
      <trkpt lat="48.36114" lon="2.76881">
        <ele>79.52</ele>
        <time>2022-02-17T14:00:39Z</time>
      </trkpt>
      <trkpt lat="48.36114" lon="2.76873">
        <ele>79.47</ele>
        <time>2022-02-17T14:00:44Z</time>
      </trkpt>
      <trkpt lat="48.36116" lon="2.76865">
        <ele>79.6</ele>
        <time>2022-02-17T14:00:49Z</time>
      </trkpt>
      <trkpt lat="48.36117" lon="2.76856">
        <ele>79.62</ele>
        <time>2022-02-17T14:00:54Z</time>
      </trkpt>
      <trkpt lat="48.36119" lon="2.76848">
        <ele>79.63</ele>
        <time>2022-02-17T14:00:59Z</time>
      </trkpt>
      <trkpt lat="48.3612" lon="2.76839">
        <ele>79.69</ele>
        <time>2022-02-17T14:01:04Z</time>
      </trkpt>
      <trkpt lat="48.36121" lon="2.7683">
        <ele>79.77</ele>
        <time>2022-02-17T14:01:09Z</time>
      </trkpt>
      <trkpt lat="48.36123" lon="2.76822">
        <ele>79.71</ele>
        <time>2022-02-17T14:01:14Z</time>
      </trkpt>
      <trkpt lat="48.36125" lon="2.76814">
        <ele>79.84</ele>
        <time>2022-02-17T14:01:19Z</time>
      </trkpt>
      <trkpt lat="48.36127" lon="2.76805">
        <ele>79.88</ele>
        <time>2022-02-17T14:01:24Z</time>
      </trkpt>
      <trkpt lat="48.36129" lon="2.76797">
        <ele>79.82</ele>
        <time>2022-02-17T14:01:29Z</time>
      </trkpt>
      <trkpt lat="48.36132" lon="2.76789">
        <ele>79.41</ele>
        <time>2022-02-17T14:01:34Z</time>
      </trkpt>
      <trkpt lat="48.36135" lon="2.7678">
        <ele>78.62</ele>
        <time>2022-02-17T14:01:39Z</time>
      </trkpt>
      <trkpt lat="48.36134" lon="2.76773">
        <ele>78.63</ele>
        <time>2022-02-17T14:01:44Z</time>
      </trkpt>
      <trkpt lat="48.36136" lon="2.76765">
        <ele>79.17</ele>
        <time>2022-02-17T14:01:49Z</time>
      </trkpt>
      <trkpt lat="48.36137" lon="2.76757">
        <ele>79.43</ele>
        <time>2022-02-17T14:01:54Z</time>
      </trkpt>
      <trkpt lat="48.36139" lon="2.76748">
        <ele>79.47</ele>
        <time>2022-02-17T14:01:59Z</time>
      </trkpt>
      <trkpt lat="48.36141" lon="2.76741">
        <ele>79.67</ele>
        <time>2022-02-17T14:02:04Z</time>
      </trkpt>
      <trkpt lat="48.36145" lon="2.76732">
        <ele>79.81</ele>
        <time>2022-02-17T14:02:09Z</time>
      </trkpt>
      <trkpt lat="48.36145" lon="2.76725">
        <ele>80.02</ele>
        <time>2022-02-17T14:02:14Z</time>
      </trkpt>
      <trkpt lat="48.36147" lon="2.76715">
        <ele>80.15</ele>
        <time>2022-02-17T14:02:19Z</time>
      </trkpt>
      <trkpt lat="48.36148" lon="2.76708">
        <ele>79.58</ele>
        <time>2022-02-17T14:02:24Z</time>
      </trkpt>
      <trkpt lat="48.36151" lon="2.767">
        <ele>79.45</ele>
        <time>2022-02-17T14:02:29Z</time>
      </trkpt>
      <trkpt lat="48.36152" lon="2.76691">
        <ele>79.46</ele>
        <time>2022-02-17T14:02:34Z</time>
      </trkpt>
      <trkpt lat="48.36151" lon="2.76684">
        <ele>79.54</ele>
        <time>2022-02-17T14:02:39Z</time>
      </trkpt>
      <trkpt lat="48.3615" lon="2.76674">
        <ele>79.85</ele>
        <time>2022-02-17T14:02:44Z</time>
      </trkpt>
      <trkpt lat="48.3615" lon="2.76664">
        <ele>79.96</ele>
        <time>2022-02-17T14:02:49Z</time>
      </trkpt>
      <trkpt lat="48.36152" lon="2.76654">
        <ele>80.08</ele>
        <time>2022-02-17T14:02:54Z</time>
      </trkpt>
      <trkpt lat="48.36154" lon="2.76645">
        <ele>80.15</ele>
        <time>2022-02-17T14:02:59Z</time>
      </trkpt>
      <trkpt lat="48.36155" lon="2.76637">
        <ele>80.17</ele>
        <time>2022-02-17T14:03:04Z</time>
      </trkpt>
      <trkpt lat="48.36156" lon="2.76635">
        <ele>80.25</ele>
        <time>2022-02-17T14:03:09Z</time>
      </trkpt>
      <trkpt lat="48.36156" lon="2.76635">
        <ele>80.13</ele>
        <time>2022-02-17T14:03:14Z</time>
      </trkpt>
      <trkpt lat="48.36157" lon="2.76635">
        <ele>80.02</ele>
        <time>2022-02-17T14:03:19Z</time>
      </trkpt>
      <trkpt lat="48.36157" lon="2.76635">
        <ele>80.15</ele>
        <time>2022-02-17T14:03:24Z</time>
      </trkpt>
      <trkpt lat="48.36158" lon="2.76636">
        <ele>80.41</ele>
        <time>2022-02-17T14:03:29Z</time>
      </trkpt>
      <trkpt lat="48.36157" lon="2.76637">
        <ele>80.31</ele>
        <time>2022-02-17T14:03:34Z</time>
      </trkpt>
      <trkpt lat="48.36157" lon="2.76638">
        <ele>80.38</ele>
        <time>2022-02-17T14:03:39Z</time>
      </trkpt>
      <trkpt lat="48.36158" lon="2.76638">
        <ele>80.87</ele>
        <time>2022-02-17T14:03:44Z</time>
      </trkpt>
      <trkpt lat="48.36158" lon="2.76636">
        <ele>81.34</ele>
        <time>2022-02-17T14:03:49Z</time>
      </trkpt>
      <trkpt lat="48.36158" lon="2.76636">
        <ele>80.87</ele>
        <time>2022-02-17T14:03:54Z</time>
      </trkpt>
      <trkpt lat="48.36159" lon="2.76637">
        <ele>80.7</ele>
        <time>2022-02-17T14:03:59Z</time>
      </trkpt>
      <trkpt lat="48.36159" lon="2.76637">
        <ele>80.57</ele>
        <time>2022-02-17T14:04:04Z</time>
      </trkpt>
      <trkpt lat="48.36159" lon="2.76637">
        <ele>80.71</ele>
        <time>2022-02-17T14:04:09Z</time>
      </trkpt>
      <trkpt lat="48.36158" lon="2.76637">
        <ele>80.84</ele>
        <time>2022-02-17T14:04:14Z</time>
      </trkpt>
      <trkpt lat="48.36159" lon="2.76637">
        <ele>80.7</ele>
        <time>2022-02-17T14:04:19Z</time>
      </trkpt>
      <trkpt lat="48.36159" lon="2.76636">
        <ele>80.73</ele>
        <time>2022-02-17T14:04:24Z</time>
      </trkpt>
      <trkpt lat="48.3616" lon="2.76636">
        <ele>80.58</ele>
        <time>2022-02-17T14:04:29Z</time>
      </trkpt>
      <trkpt lat="48.36161" lon="2.76637">
        <ele>80.27</ele>
        <time>2022-02-17T14:04:34Z</time>
      </trkpt>
      <trkpt lat="48.36161" lon="2.76637">
        <ele>80.31</ele>
        <time>2022-02-17T14:04:39Z</time>
      </trkpt>
      <trkpt lat="48.36161" lon="2.76636">
        <ele>80.6</ele>
        <time>2022-02-17T14:04:44Z</time>
      </trkpt>
      <trkpt lat="48.36161" lon="2.76636">
        <ele>80.46</ele>
        <time>2022-02-17T14:04:49Z</time>
      </trkpt>
      <trkpt lat="48.36162" lon="2.76635">
        <ele>80.45</ele>
        <time>2022-02-17T14:04:54Z</time>
      </trkpt>
      <trkpt lat="48.36161" lon="2.76635">
        <ele>80.47</ele>
        <time>2022-02-17T14:04:59Z</time>
      </trkpt>
      <trkpt lat="48.36162" lon="2.76634">
        <ele>80.6</ele>
        <time>2022-02-17T14:05:04Z</time>
      </trkpt>
      <trkpt lat="48.36162" lon="2.76634">
        <ele>80.6</ele>
        <time>2022-02-17T14:05:09Z</time>
      </trkpt>
      <trkpt lat="48.36161" lon="2.76634">
        <ele>81.05</ele>
        <time>2022-02-17T14:05:14Z</time>
      </trkpt>
      <trkpt lat="48.3616" lon="2.76635">
        <ele>81.05</ele>
        <time>2022-02-17T14:05:19Z</time>
      </trkpt>
      <trkpt lat="48.3616" lon="2.76635">
        <ele>81.05</ele>
        <time>2022-02-17T14:05:24Z</time>
      </trkpt>
      <trkpt lat="48.3616" lon="2.76633">
        <ele>81.05</ele>
        <time>2022-02-17T14:05:29Z</time>
      </trkpt>
      <trkpt lat="48.3616" lon="2.76633">
        <ele>81.05</ele>
        <time>2022-02-17T14:05:34Z</time>
      </trkpt>
      <trkpt lat="48.36159" lon="2.76633">
        <ele>81.05</ele>
        <time>2022-02-17T14:05:39Z</time>
      </trkpt>
      <trkpt lat="48.36159" lon="2.76633">
        <ele>81.05</ele>
        <time>2022-02-17T14:05:44Z</time>
      </trkpt>
      <trkpt lat="48.3616" lon="2.76632">
        <ele>81.05</ele>
        <time>2022-02-17T14:05:49Z</time>
      </trkpt>
      <trkpt lat="48.36163" lon="2.76633">
        <ele>81.05</ele>
        <time>2022-02-17T14:05:54Z</time>
      </trkpt>
      <trkpt lat="48.36165" lon="2.76632">
        <ele>81.05</ele>
        <time>2022-02-17T14:05:59Z</time>
      </trkpt>
      <trkpt lat="48.36167" lon="2.76633">
        <ele>81.05</ele>
        <time>2022-02-17T14:06:04Z</time>
      </trkpt>
      <trkpt lat="48.36167" lon="2.76634">
        <ele>81.05</ele>
        <time>2022-02-17T14:06:09Z</time>
      </trkpt>
      <trkpt lat="48.36168" lon="2.76635">
        <ele>81.05</ele>
        <time>2022-02-17T14:06:14Z</time>
      </trkpt>
      <trkpt lat="48.36169" lon="2.76635">
        <ele>81.05</ele>
        <time>2022-02-17T14:06:19Z</time>
      </trkpt>
      <trkpt lat="48.36171" lon="2.76636">
        <ele>81.05</ele>
        <time>2022-02-17T14:06:24Z</time>
      </trkpt>
      <trkpt lat="48.36175" lon="2.76637">
        <ele>81.05</ele>
        <time>2022-02-17T14:06:29Z</time>
      </trkpt>
      <trkpt lat="48.36179" lon="2.76637">
        <ele>81.05</ele>
        <time>2022-02-17T14:06:34Z</time>
      </trkpt>
      <trkpt lat="48.36185" lon="2.76637">
        <ele>80.89</ele>
        <time>2022-02-17T14:06:39Z</time>
      </trkpt>
      <trkpt lat="48.3619" lon="2.76639">
        <ele>80.61</ele>
        <time>2022-02-17T14:06:44Z</time>
      </trkpt>
      <trkpt lat="48.36194" lon="2.7664">
        <ele>80.56</ele>
        <time>2022-02-17T14:06:49Z</time>
      </trkpt>
      <trkpt lat="48.36199" lon="2.76641">
        <ele>80.38</ele>
        <time>2022-02-17T14:06:54Z</time>
      </trkpt>
      <trkpt lat="48.36201" lon="2.76643">
        <ele>80.15</ele>
        <time>2022-02-17T14:06:59Z</time>
      </trkpt>
      <trkpt lat="48.36203" lon="2.76644">
        <ele>80.27</ele>
        <time>2022-02-17T14:07:04Z</time>
      </trkpt>
      <trkpt lat="48.36207" lon="2.76644">
        <ele>80.15</ele>
        <time>2022-02-17T14:07:09Z</time>
      </trkpt>
      <trkpt lat="48.36214" lon="2.76643">
        <ele>80.04</ele>
        <time>2022-02-17T14:07:14Z</time>
      </trkpt>
      <trkpt lat="48.36219" lon="2.76643">
        <ele>80.15</ele>
        <time>2022-02-17T14:07:19Z</time>
      </trkpt>
      <trkpt lat="48.36225" lon="2.76645">
        <ele>80.58</ele>
        <time>2022-02-17T14:07:24Z</time>
      </trkpt>
      <trkpt lat="48.3623" lon="2.76647">
        <ele>80.41</ele>
        <time>2022-02-17T14:07:29Z</time>
      </trkpt>
      <trkpt lat="48.36235" lon="2.76647">
        <ele>80.47</ele>
        <time>2022-02-17T14:07:34Z</time>
      </trkpt>
      <trkpt lat="48.36241" lon="2.76647">
        <ele>80.46</ele>
        <time>2022-02-17T14:07:39Z</time>
      </trkpt>
      <trkpt lat="48.36246" lon="2.76647">
        <ele>80.42</ele>
        <time>2022-02-17T14:07:44Z</time>
      </trkpt>
      <trkpt lat="48.3625" lon="2.76649">
        <ele>80.43</ele>
        <time>2022-02-17T14:07:49Z</time>
      </trkpt>
      <trkpt lat="48.36256" lon="2.7665">
        <ele>80.54</ele>
        <time>2022-02-17T14:07:54Z</time>
      </trkpt>
      <trkpt lat="48.36261" lon="2.76651">
        <ele>80.69</ele>
        <time>2022-02-17T14:07:59Z</time>
      </trkpt>
      <trkpt lat="48.36266" lon="2.76651">
        <ele>80.69</ele>
        <time>2022-02-17T14:08:04Z</time>
      </trkpt>
      <trkpt lat="48.3627" lon="2.76651">
        <ele>80.58</ele>
        <time>2022-02-17T14:08:09Z</time>
      </trkpt>
      <trkpt lat="48.36279" lon="2.76652">
        <ele>80.61</ele>
        <time>2022-02-17T14:08:14Z</time>
      </trkpt>
      <trkpt lat="48.36285" lon="2.76651">
        <ele>80.62</ele>
        <time>2022-02-17T14:08:19Z</time>
      </trkpt>
      <trkpt lat="48.36292" lon="2.76651">
        <ele>80.64</ele>
        <time>2022-02-17T14:08:24Z</time>
      </trkpt>
      <trkpt lat="48.36297" lon="2.76651">
        <ele>80.68</ele>
        <time>2022-02-17T14:08:29Z</time>
      </trkpt>
      <trkpt lat="48.36304" lon="2.76654">
        <ele>80.64</ele>
        <time>2022-02-17T14:08:34Z</time>
      </trkpt>
      <trkpt lat="48.3631" lon="2.76654">
        <ele>80.93</ele>
        <time>2022-02-17T14:08:39Z</time>
      </trkpt>
      <trkpt lat="48.36317" lon="2.76651">
        <ele>80.77</ele>
        <time>2022-02-17T14:08:44Z</time>
      </trkpt>
      <trkpt lat="48.36321" lon="2.76652">
        <ele>80.74</ele>
        <time>2022-02-17T14:08:49Z</time>
      </trkpt>
      <trkpt lat="48.36325" lon="2.76652">
        <ele>80.49</ele>
        <time>2022-02-17T14:08:54Z</time>
      </trkpt>
      <trkpt lat="48.3633" lon="2.76651">
        <ele>80.38</ele>
        <time>2022-02-17T14:08:59Z</time>
      </trkpt>
      <trkpt lat="48.36335" lon="2.76651">
        <ele>80.39</ele>
        <time>2022-02-17T14:09:04Z</time>
      </trkpt>
      <trkpt lat="48.36341" lon="2.76652">
        <ele>80.24</ele>
        <time>2022-02-17T14:09:09Z</time>
      </trkpt>
      <trkpt lat="48.36347" lon="2.76652">
        <ele>80.26</ele>
        <time>2022-02-17T14:09:14Z</time>
      </trkpt>
      <trkpt lat="48.36352" lon="2.76652">
        <ele>80.25</ele>
        <time>2022-02-17T14:09:19Z</time>
      </trkpt>
      <trkpt lat="48.36359" lon="2.76652">
        <ele>80.22</ele>
        <time>2022-02-17T14:09:24Z</time>
      </trkpt>
      <trkpt lat="48.36365" lon="2.76653">
        <ele>80.21</ele>
        <time>2022-02-17T14:09:29Z</time>
      </trkpt>
      <trkpt lat="48.36371" lon="2.76651">
        <ele>80.13</ele>
        <time>2022-02-17T14:09:34Z</time>
      </trkpt>
      <trkpt lat="48.36377" lon="2.76652">
        <ele>80.32</ele>
        <time>2022-02-17T14:09:39Z</time>
      </trkpt>
      <trkpt lat="48.36384" lon="2.76653">
        <ele>80.65</ele>
        <time>2022-02-17T14:09:44Z</time>
      </trkpt>
      <trkpt lat="48.36389" lon="2.76654">
        <ele>80.99</ele>
        <time>2022-02-17T14:09:49Z</time>
      </trkpt>
      <trkpt lat="48.36394" lon="2.76656">
        <ele>81.03</ele>
        <time>2022-02-17T14:09:54Z</time>
      </trkpt>
      <trkpt lat="48.364" lon="2.76657">
        <ele>80.94</ele>
        <time>2022-02-17T14:09:59Z</time>
      </trkpt>
      <trkpt lat="48.36406" lon="2.76658">
        <ele>80.91</ele>
        <time>2022-02-17T14:10:04Z</time>
      </trkpt>
      <trkpt lat="48.36413" lon="2.7666">
        <ele>81.18</ele>
        <time>2022-02-17T14:10:09Z</time>
      </trkpt>
      <trkpt lat="48.3642" lon="2.76662">
        <ele>81.39</ele>
        <time>2022-02-17T14:10:14Z</time>
      </trkpt>
      <trkpt lat="48.36425" lon="2.76665">
        <ele>81.43</ele>
        <time>2022-02-17T14:10:19Z</time>
      </trkpt>
      <trkpt lat="48.36432" lon="2.76663">
        <ele>81.46</ele>
        <time>2022-02-17T14:10:24Z</time>
      </trkpt>
      <trkpt lat="48.36438" lon="2.76661">
        <ele>81.47</ele>
        <time>2022-02-17T14:10:29Z</time>
      </trkpt>
      <trkpt lat="48.36445" lon="2.76662">
        <ele>81.49</ele>
        <time>2022-02-17T14:10:34Z</time>
      </trkpt>
      <trkpt lat="48.36454" lon="2.76662">
        <ele>81.57</ele>
        <time>2022-02-17T14:10:39Z</time>
      </trkpt>
      <trkpt lat="48.36459" lon="2.76665">
        <ele>81.32</ele>
        <time>2022-02-17T14:10:44Z</time>
      </trkpt>
      <trkpt lat="48.36464" lon="2.76666">
        <ele>81.32</ele>
        <time>2022-02-17T14:10:49Z</time>
      </trkpt>
      <trkpt lat="48.36469" lon="2.76667">
        <ele>81.32</ele>
        <time>2022-02-17T14:10:54Z</time>
      </trkpt>
      <trkpt lat="48.3647" lon="2.76667">
        <ele>81.36</ele>
        <time>2022-02-17T14:10:59Z</time>
      </trkpt>
      <trkpt lat="48.36472" lon="2.76667">
        <ele>81.25</ele>
        <time>2022-02-17T14:11:04Z</time>
      </trkpt>
      <trkpt lat="48.36475" lon="2.76668">
        <ele>81.48</ele>
        <time>2022-02-17T14:11:09Z</time>
      </trkpt>
      <trkpt lat="48.36479" lon="2.76665">
        <ele>81.87</ele>
        <time>2022-02-17T14:11:14Z</time>
      </trkpt>
      <trkpt lat="48.36485" lon="2.76665">
        <ele>81.93</ele>
        <time>2022-02-17T14:11:19Z</time>
      </trkpt>
      <trkpt lat="48.3649" lon="2.76663">
        <ele>81.91</ele>
        <time>2022-02-17T14:11:24Z</time>
      </trkpt>
      <trkpt lat="48.36494" lon="2.76664">
        <ele>82.11</ele>
        <time>2022-02-17T14:11:29Z</time>
      </trkpt>
      <trkpt lat="48.36498" lon="2.76665">
        <ele>81.91</ele>
        <time>2022-02-17T14:11:34Z</time>
      </trkpt>
      <trkpt lat="48.36501" lon="2.76666">
        <ele>81.87</ele>
        <time>2022-02-17T14:11:39Z</time>
      </trkpt>
      <trkpt lat="48.36506" lon="2.76666">
        <ele>81.93</ele>
        <time>2022-02-17T14:11:44Z</time>
      </trkpt>
      <trkpt lat="48.36511" lon="2.76668">
        <ele>82.06</ele>
        <time>2022-02-17T14:11:49Z</time>
      </trkpt>
      <trkpt lat="48.36516" lon="2.76668">
        <ele>82.23</ele>
        <time>2022-02-17T14:11:54Z</time>
      </trkpt>
      <trkpt lat="48.36522" lon="2.76669">
        <ele>82.3</ele>
        <time>2022-02-17T14:11:59Z</time>
      </trkpt>
      <trkpt lat="48.36528" lon="2.76672">
        <ele>82.3</ele>
        <time>2022-02-17T14:12:04Z</time>
      </trkpt>
      <trkpt lat="48.36534" lon="2.76673">
        <ele>82.4</ele>
        <time>2022-02-17T14:12:09Z</time>
      </trkpt>
      <trkpt lat="48.36542" lon="2.76675">
        <ele>82.46</ele>
        <time>2022-02-17T14:12:14Z</time>
      </trkpt>
      <trkpt lat="48.36548" lon="2.76676">
        <ele>82.47</ele>
        <time>2022-02-17T14:12:19Z</time>
      </trkpt>
      <trkpt lat="48.36551" lon="2.76676">
        <ele>82.49</ele>
        <time>2022-02-17T14:12:24Z</time>
      </trkpt>
      <trkpt lat="48.36556" lon="2.76677">
        <ele>82.57</ele>
        <time>2022-02-17T14:12:29Z</time>
      </trkpt>
      <trkpt lat="48.36562" lon="2.76677">
        <ele>82.67</ele>
        <time>2022-02-17T14:12:34Z</time>
      </trkpt>
      <trkpt lat="48.36568" lon="2.76678">
        <ele>82.68</ele>
        <time>2022-02-17T14:12:39Z</time>
      </trkpt>
      <trkpt lat="48.36575" lon="2.7668">
        <ele>82.66</ele>
        <time>2022-02-17T14:12:44Z</time>
      </trkpt>
      <trkpt lat="48.36582" lon="2.76678">
        <ele>83.31</ele>
        <time>2022-02-17T14:12:49Z</time>
      </trkpt>
      <trkpt lat="48.36587" lon="2.76676">
        <ele>83.61</ele>
        <time>2022-02-17T14:12:54Z</time>
      </trkpt>
      <trkpt lat="48.36593" lon="2.76675">
        <ele>83.46</ele>
        <time>2022-02-17T14:12:59Z</time>
      </trkpt>
      <trkpt lat="48.36599" lon="2.76673">
        <ele>83.46</ele>
        <time>2022-02-17T14:13:04Z</time>
      </trkpt>
      <trkpt lat="48.36604" lon="2.76674">
        <ele>83.67</ele>
        <time>2022-02-17T14:13:09Z</time>
      </trkpt>
      <trkpt lat="48.3661" lon="2.76674">
        <ele>84.06</ele>
        <time>2022-02-17T14:13:14Z</time>
      </trkpt>
      <trkpt lat="48.36616" lon="2.76674">
        <ele>84.07</ele>
        <time>2022-02-17T14:13:19Z</time>
      </trkpt>
      <trkpt lat="48.36622" lon="2.76675">
        <ele>83.92</ele>
        <time>2022-02-17T14:13:24Z</time>
      </trkpt>
      <trkpt lat="48.36628" lon="2.76677">
        <ele>83.78</ele>
        <time>2022-02-17T14:13:29Z</time>
      </trkpt>
      <trkpt lat="48.36633" lon="2.76678">
        <ele>83.63</ele>
        <time>2022-02-17T14:13:34Z</time>
      </trkpt>
      <trkpt lat="48.36638" lon="2.76678">
        <ele>83.81</ele>
        <time>2022-02-17T14:13:39Z</time>
      </trkpt>
      <trkpt lat="48.36642" lon="2.76679">
        <ele>83.97</ele>
        <time>2022-02-17T14:13:44Z</time>
      </trkpt>
      <trkpt lat="48.36649" lon="2.76681">
        <ele>84.07</ele>
        <time>2022-02-17T14:13:49Z</time>
      </trkpt>
      <trkpt lat="48.36655" lon="2.76681">
        <ele>84.34</ele>
        <time>2022-02-17T14:13:54Z</time>
      </trkpt>
      <trkpt lat="48.36662" lon="2.76682">
        <ele>84.44</ele>
        <time>2022-02-17T14:13:59Z</time>
      </trkpt>
      <trkpt lat="48.36666" lon="2.76684">
        <ele>84.55</ele>
        <time>2022-02-17T14:14:04Z</time>
      </trkpt>
      <trkpt lat="48.36672" lon="2.76685">
        <ele>84.65</ele>
        <time>2022-02-17T14:14:09Z</time>
      </trkpt>
      <trkpt lat="48.36674" lon="2.76687">
        <ele>84.62</ele>
        <time>2022-02-17T14:14:14Z</time>
      </trkpt>
      <trkpt lat="48.36682" lon="2.76688">
        <ele>84.43</ele>
        <time>2022-02-17T14:14:19Z</time>
      </trkpt>
      <trkpt lat="48.36689" lon="2.76688">
        <ele>84.34</ele>
        <time>2022-02-17T14:14:24Z</time>
      </trkpt>
      <trkpt lat="48.36694" lon="2.76687">
        <ele>84.31</ele>
        <time>2022-02-17T14:14:29Z</time>
      </trkpt>
      <trkpt lat="48.36699" lon="2.76688">
        <ele>84.59</ele>
        <time>2022-02-17T14:14:34Z</time>
      </trkpt>
      <trkpt lat="48.36704" lon="2.76688">
        <ele>85.23</ele>
        <time>2022-02-17T14:14:39Z</time>
      </trkpt>
      <trkpt lat="48.3671" lon="2.76689">
        <ele>85.42</ele>
        <time>2022-02-17T14:14:44Z</time>
      </trkpt>
      <trkpt lat="48.36716" lon="2.76689">
        <ele>85.44</ele>
        <time>2022-02-17T14:14:49Z</time>
      </trkpt>
      <trkpt lat="48.36722" lon="2.76689">
        <ele>85</ele>
        <time>2022-02-17T14:14:54Z</time>
      </trkpt>
      <trkpt lat="48.36726" lon="2.76688">
        <ele>84.74</ele>
        <time>2022-02-17T14:14:59Z</time>
      </trkpt>
      <trkpt lat="48.36733" lon="2.76687">
        <ele>84.74</ele>
        <time>2022-02-17T14:15:04Z</time>
      </trkpt>
      <trkpt lat="48.36736" lon="2.76688">
        <ele>84.76</ele>
        <time>2022-02-17T14:15:09Z</time>
      </trkpt>
      <trkpt lat="48.36742" lon="2.76689">
        <ele>84.68</ele>
        <time>2022-02-17T14:15:14Z</time>
      </trkpt>
      <trkpt lat="48.36748" lon="2.76688">
        <ele>84.68</ele>
        <time>2022-02-17T14:15:19Z</time>
      </trkpt>
      <trkpt lat="48.36752" lon="2.76688">
        <ele>84.81</ele>
        <time>2022-02-17T14:15:24Z</time>
      </trkpt>
      <trkpt lat="48.36757" lon="2.76688">
        <ele>84.74</ele>
        <time>2022-02-17T14:15:29Z</time>
      </trkpt>
      <trkpt lat="48.36763" lon="2.76688">
        <ele>84.49</ele>
        <time>2022-02-17T14:15:34Z</time>
      </trkpt>
      <trkpt lat="48.36769" lon="2.76689">
        <ele>84.51</ele>
        <time>2022-02-17T14:15:39Z</time>
      </trkpt>
      <trkpt lat="48.36776" lon="2.76691">
        <ele>85.1</ele>
        <time>2022-02-17T14:15:44Z</time>
      </trkpt>
      <trkpt lat="48.36782" lon="2.76694">
        <ele>85.75</ele>
        <time>2022-02-17T14:15:49Z</time>
      </trkpt>
      <trkpt lat="48.36787" lon="2.76695">
        <ele>86.07</ele>
        <time>2022-02-17T14:15:54Z</time>
      </trkpt>
      <trkpt lat="48.36792" lon="2.76697">
        <ele>85.68</ele>
        <time>2022-02-17T14:15:59Z</time>
      </trkpt>
      <trkpt lat="48.36796" lon="2.767">
        <ele>85.62</ele>
        <time>2022-02-17T14:16:04Z</time>
      </trkpt>
      <trkpt lat="48.36799" lon="2.76702">
        <ele>86.01</ele>
        <time>2022-02-17T14:16:09Z</time>
      </trkpt>
      <trkpt lat="48.36802" lon="2.76706">
        <ele>85.67</ele>
        <time>2022-02-17T14:16:14Z</time>
      </trkpt>
      <trkpt lat="48.36806" lon="2.76709">
        <ele>85.35</ele>
        <time>2022-02-17T14:16:19Z</time>
      </trkpt>
      <trkpt lat="48.3681" lon="2.76714">
        <ele>85.2</ele>
        <time>2022-02-17T14:16:24Z</time>
      </trkpt>
      <trkpt lat="48.36815" lon="2.76719">
        <ele>85.17</ele>
        <time>2022-02-17T14:16:29Z</time>
      </trkpt>
      <trkpt lat="48.3682" lon="2.76722">
        <ele>85.23</ele>
        <time>2022-02-17T14:16:34Z</time>
      </trkpt>
      <trkpt lat="48.36823" lon="2.76725">
        <ele>85.33</ele>
        <time>2022-02-17T14:16:39Z</time>
      </trkpt>
      <trkpt lat="48.36827" lon="2.76732">
        <ele>85.46</ele>
        <time>2022-02-17T14:16:44Z</time>
      </trkpt>
      <trkpt lat="48.3683" lon="2.76738">
        <ele>85.25</ele>
        <time>2022-02-17T14:16:49Z</time>
      </trkpt>
      <trkpt lat="48.36832" lon="2.76743">
        <ele>85.16</ele>
        <time>2022-02-17T14:16:54Z</time>
      </trkpt>
      <trkpt lat="48.36833" lon="2.76745">
        <ele>85.19</ele>
        <time>2022-02-17T14:16:59Z</time>
      </trkpt>
      <trkpt lat="48.36835" lon="2.76746">
        <ele>85.32</ele>
        <time>2022-02-17T14:17:04Z</time>
      </trkpt>
      <trkpt lat="48.36838" lon="2.7675">
        <ele>85.4</ele>
        <time>2022-02-17T14:17:09Z</time>
      </trkpt>
      <trkpt lat="48.36838" lon="2.76754">
        <ele>85.67</ele>
        <time>2022-02-17T14:17:14Z</time>
      </trkpt>
      <trkpt lat="48.3684" lon="2.76757">
        <ele>86.26</ele>
        <time>2022-02-17T14:17:19Z</time>
      </trkpt>
      <trkpt lat="48.36841" lon="2.76763">
        <ele>86.49</ele>
        <time>2022-02-17T14:17:24Z</time>
      </trkpt>
      <trkpt lat="48.36843" lon="2.76771">
        <ele>86.51</ele>
        <time>2022-02-17T14:17:29Z</time>
      </trkpt>
      <trkpt lat="48.36848" lon="2.76777">
        <ele>86.51</ele>
        <time>2022-02-17T14:17:34Z</time>
      </trkpt>
      <trkpt lat="48.36853" lon="2.76782">
        <ele>86.58</ele>
        <time>2022-02-17T14:17:39Z</time>
      </trkpt>
      <trkpt lat="48.36857" lon="2.76789">
        <ele>87.48</ele>
        <time>2022-02-17T14:17:44Z</time>
      </trkpt>
      <trkpt lat="48.36861" lon="2.76792">
        <ele>88.1</ele>
        <time>2022-02-17T14:17:49Z</time>
      </trkpt>
      <trkpt lat="48.36865" lon="2.76795">
        <ele>88.94</ele>
        <time>2022-02-17T14:17:54Z</time>
      </trkpt>
      <trkpt lat="48.36869" lon="2.76797">
        <ele>89.38</ele>
        <time>2022-02-17T14:17:59Z</time>
      </trkpt>
      <trkpt lat="48.36873" lon="2.76802">
        <ele>89.77</ele>
        <time>2022-02-17T14:18:04Z</time>
      </trkpt>
      <trkpt lat="48.36878" lon="2.76807">
        <ele>90.07</ele>
        <time>2022-02-17T14:18:09Z</time>
      </trkpt>
      <trkpt lat="48.36879" lon="2.76812">
        <ele>90.28</ele>
        <time>2022-02-17T14:18:14Z</time>
      </trkpt>
      <trkpt lat="48.36881" lon="2.76818">
        <ele>90.47</ele>
        <time>2022-02-17T14:18:19Z</time>
      </trkpt>
      <trkpt lat="48.36882" lon="2.76824">
        <ele>90.88</ele>
        <time>2022-02-17T14:18:24Z</time>
      </trkpt>
      <trkpt lat="48.36882" lon="2.76831">
        <ele>90.95</ele>
        <time>2022-02-17T14:18:29Z</time>
      </trkpt>
      <trkpt lat="48.36884" lon="2.76837">
        <ele>90.49</ele>
        <time>2022-02-17T14:18:34Z</time>
      </trkpt>
      <trkpt lat="48.36887" lon="2.76844">
        <ele>89.97</ele>
        <time>2022-02-17T14:18:39Z</time>
      </trkpt>
      <trkpt lat="48.3689" lon="2.76852">
        <ele>89.93</ele>
        <time>2022-02-17T14:18:44Z</time>
      </trkpt>
      <trkpt lat="48.36894" lon="2.76859">
        <ele>90.23</ele>
        <time>2022-02-17T14:18:49Z</time>
      </trkpt>
      <trkpt lat="48.36897" lon="2.76866">
        <ele>90.7</ele>
        <time>2022-02-17T14:18:54Z</time>
      </trkpt>
      <trkpt lat="48.369" lon="2.7687">
        <ele>90.91</ele>
        <time>2022-02-17T14:18:59Z</time>
      </trkpt>
      <trkpt lat="48.36904" lon="2.76875">
        <ele>90.74</ele>
        <time>2022-02-17T14:19:04Z</time>
      </trkpt>
      <trkpt lat="48.36907" lon="2.76881">
        <ele>90.54</ele>
        <time>2022-02-17T14:19:09Z</time>
      </trkpt>
      <trkpt lat="48.36909" lon="2.76889">
        <ele>90.2</ele>
        <time>2022-02-17T14:19:14Z</time>
      </trkpt>
      <trkpt lat="48.36912" lon="2.76896">
        <ele>90.15</ele>
        <time>2022-02-17T14:19:19Z</time>
      </trkpt>
      <trkpt lat="48.36913" lon="2.76905">
        <ele>90.57</ele>
        <time>2022-02-17T14:19:24Z</time>
      </trkpt>
      <trkpt lat="48.36915" lon="2.76914">
        <ele>90.75</ele>
        <time>2022-02-17T14:19:29Z</time>
      </trkpt>
      <trkpt lat="48.36918" lon="2.76922">
        <ele>90.54</ele>
        <time>2022-02-17T14:19:34Z</time>
      </trkpt>
      <trkpt lat="48.3692" lon="2.76929">
        <ele>90.46</ele>
        <time>2022-02-17T14:19:39Z</time>
      </trkpt>
      <trkpt lat="48.36925" lon="2.76935">
        <ele>90.3</ele>
        <time>2022-02-17T14:19:44Z</time>
      </trkpt>
      <trkpt lat="48.36929" lon="2.76942">
        <ele>90.21</ele>
        <time>2022-02-17T14:19:49Z</time>
      </trkpt>
      <trkpt lat="48.36932" lon="2.76951">
        <ele>90.37</ele>
        <time>2022-02-17T14:19:54Z</time>
      </trkpt>
      <trkpt lat="48.36933" lon="2.76959">
        <ele>90.54</ele>
        <time>2022-02-17T14:19:59Z</time>
      </trkpt>
      <trkpt lat="48.36933" lon="2.76969">
        <ele>90.6</ele>
        <time>2022-02-17T14:20:04Z</time>
      </trkpt>
      <trkpt lat="48.36936" lon="2.76974">
        <ele>90.68</ele>
        <time>2022-02-17T14:20:09Z</time>
      </trkpt>
      <trkpt lat="48.36938" lon="2.76981">
        <ele>90.77</ele>
        <time>2022-02-17T14:20:14Z</time>
      </trkpt>
      <trkpt lat="48.3694" lon="2.76987">
        <ele>90.88</ele>
        <time>2022-02-17T14:20:19Z</time>
      </trkpt>
      <trkpt lat="48.36946" lon="2.76994">
        <ele>91.23</ele>
        <time>2022-02-17T14:20:24Z</time>
      </trkpt>
      <trkpt lat="48.3695" lon="2.76998">
        <ele>91.51</ele>
        <time>2022-02-17T14:20:29Z</time>
      </trkpt>
      <trkpt lat="48.36956" lon="2.77003">
        <ele>91.54</ele>
        <time>2022-02-17T14:20:34Z</time>
      </trkpt>
      <trkpt lat="48.36961" lon="2.77009">
        <ele>91.27</ele>
        <time>2022-02-17T14:20:39Z</time>
      </trkpt>
      <trkpt lat="48.36966" lon="2.77017">
        <ele>91.1</ele>
        <time>2022-02-17T14:20:44Z</time>
      </trkpt>
      <trkpt lat="48.36971" lon="2.77024">
        <ele>91.07</ele>
        <time>2022-02-17T14:20:49Z</time>
      </trkpt>
      <trkpt lat="48.36976" lon="2.77029">
        <ele>91.07</ele>
        <time>2022-02-17T14:20:54Z</time>
      </trkpt>
      <trkpt lat="48.3698" lon="2.77033">
        <ele>91.36</ele>
        <time>2022-02-17T14:20:59Z</time>
      </trkpt>
      <trkpt lat="48.36983" lon="2.77037">
        <ele>91.35</ele>
        <time>2022-02-17T14:21:04Z</time>
      </trkpt>
      <trkpt lat="48.36983" lon="2.77044">
        <ele>91.53</ele>
        <time>2022-02-17T14:21:09Z</time>
      </trkpt>
      <trkpt lat="48.36985" lon="2.77051">
        <ele>91.92</ele>
        <time>2022-02-17T14:21:14Z</time>
      </trkpt>
      <trkpt lat="48.36986" lon="2.77057">
        <ele>91.96</ele>
        <time>2022-02-17T14:21:19Z</time>
      </trkpt>
      <trkpt lat="48.36989" lon="2.77063">
        <ele>92</ele>
        <time>2022-02-17T14:21:24Z</time>
      </trkpt>
      <trkpt lat="48.36992" lon="2.77069">
        <ele>92.03</ele>
        <time>2022-02-17T14:21:29Z</time>
      </trkpt>
      <trkpt lat="48.36993" lon="2.77073">
        <ele>91.73</ele>
        <time>2022-02-17T14:21:34Z</time>
      </trkpt>
      <trkpt lat="48.36993" lon="2.77081">
        <ele>92.22</ele>
        <time>2022-02-17T14:21:39Z</time>
      </trkpt>
      <trkpt lat="48.36997" lon="2.7709">
        <ele>92.21</ele>
        <time>2022-02-17T14:21:44Z</time>
      </trkpt>
      <trkpt lat="48.36998" lon="2.77094">
        <ele>91.56</ele>
        <time>2022-02-17T14:21:49Z</time>
      </trkpt>
      <trkpt lat="48.37002" lon="2.77096">
        <ele>91.43</ele>
        <time>2022-02-17T14:21:54Z</time>
      </trkpt>
      <trkpt lat="48.37004" lon="2.77095">
        <ele>91.26</ele>
        <time>2022-02-17T14:21:59Z</time>
      </trkpt>
      <trkpt lat="48.37006" lon="2.77092">
        <ele>91.26</ele>
        <time>2022-02-17T14:22:04Z</time>
      </trkpt>
      <trkpt lat="48.37009" lon="2.77085">
        <ele>91.27</ele>
        <time>2022-02-17T14:22:09Z</time>
      </trkpt>
      <trkpt lat="48.3701" lon="2.77085">
        <ele>91.27</ele>
        <time>2022-02-17T14:22:14Z</time>
      </trkpt>
      <trkpt lat="48.37011" lon="2.77085">
        <ele>91.27</ele>
        <time>2022-02-17T14:22:19Z</time>
      </trkpt>
      <trkpt lat="48.37011" lon="2.77086">
        <ele>91.27</ele>
        <time>2022-02-17T14:22:24Z</time>
      </trkpt>
      <trkpt lat="48.3701" lon="2.77088">
        <ele>91.27</ele>
        <time>2022-02-17T14:22:29Z</time>
      </trkpt>
      <trkpt lat="48.3701" lon="2.77089">
        <ele>91.27</ele>
        <time>2022-02-17T14:22:34Z</time>
      </trkpt>
      <trkpt lat="48.37009" lon="2.77091">
        <ele>91.27</ele>
        <time>2022-02-17T14:22:39Z</time>
      </trkpt>
      <trkpt lat="48.37008" lon="2.77093">
        <ele>91.27</ele>
        <time>2022-02-17T14:22:44Z</time>
      </trkpt>
      <trkpt lat="48.37006" lon="2.77096">
        <ele>91.27</ele>
        <time>2022-02-17T14:22:49Z</time>
      </trkpt>
      <trkpt lat="48.37004" lon="2.77097">
        <ele>91.26</ele>
        <time>2022-02-17T14:22:54Z</time>
      </trkpt>
      <trkpt lat="48.37004" lon="2.77099">
        <ele>91.26</ele>
        <time>2022-02-17T14:22:59Z</time>
      </trkpt>
      <trkpt lat="48.37004" lon="2.77105">
        <ele>91.26</ele>
        <time>2022-02-17T14:23:04Z</time>
      </trkpt>
      <trkpt lat="48.37007" lon="2.7711">
        <ele>90.61</ele>
        <time>2022-02-17T14:23:09Z</time>
      </trkpt>
      <trkpt lat="48.37009" lon="2.77116">
        <ele>90.26</ele>
        <time>2022-02-17T14:23:14Z</time>
      </trkpt>
      <trkpt lat="48.37011" lon="2.77125">
        <ele>90.2</ele>
        <time>2022-02-17T14:23:19Z</time>
      </trkpt>
      <trkpt lat="48.37013" lon="2.77132">
        <ele>90.14</ele>
        <time>2022-02-17T14:23:24Z</time>
      </trkpt>
      <trkpt lat="48.37016" lon="2.77137">
        <ele>89.63</ele>
        <time>2022-02-17T14:23:29Z</time>
      </trkpt>
      <trkpt lat="48.37019" lon="2.77144">
        <ele>89.09</ele>
        <time>2022-02-17T14:23:34Z</time>
      </trkpt>
      <trkpt lat="48.37021" lon="2.77151">
        <ele>88.87</ele>
        <time>2022-02-17T14:23:39Z</time>
      </trkpt>
      <trkpt lat="48.37024" lon="2.77158">
        <ele>88.93</ele>
        <time>2022-02-17T14:23:44Z</time>
      </trkpt>
      <trkpt lat="48.37027" lon="2.77165">
        <ele>89.24</ele>
        <time>2022-02-17T14:23:49Z</time>
      </trkpt>
      <trkpt lat="48.37029" lon="2.77171">
        <ele>89.37</ele>
        <time>2022-02-17T14:23:54Z</time>
      </trkpt>
      <trkpt lat="48.37032" lon="2.77176">
        <ele>89.62</ele>
        <time>2022-02-17T14:23:59Z</time>
      </trkpt>
      <trkpt lat="48.37037" lon="2.77182">
        <ele>89.28</ele>
        <time>2022-02-17T14:24:04Z</time>
      </trkpt>
      <trkpt lat="48.37043" lon="2.77189">
        <ele>88.71</ele>
        <time>2022-02-17T14:24:09Z</time>
      </trkpt>
      <trkpt lat="48.37046" lon="2.77198">
        <ele>88.59</ele>
        <time>2022-02-17T14:24:14Z</time>
      </trkpt>
      <trkpt lat="48.3705" lon="2.77204">
        <ele>89.29</ele>
        <time>2022-02-17T14:24:19Z</time>
      </trkpt>
      <trkpt lat="48.3705" lon="2.7721">
        <ele>89.39</ele>
        <time>2022-02-17T14:24:24Z</time>
      </trkpt>
      <trkpt lat="48.37053" lon="2.77216">
        <ele>89.36</ele>
        <time>2022-02-17T14:24:29Z</time>
      </trkpt>
      <trkpt lat="48.37055" lon="2.77225">
        <ele>89.38</ele>
        <time>2022-02-17T14:24:34Z</time>
      </trkpt>
      <trkpt lat="48.37057" lon="2.77233">
        <ele>89.39</ele>
        <time>2022-02-17T14:24:39Z</time>
      </trkpt>
      <trkpt lat="48.37059" lon="2.77238">
        <ele>89.18</ele>
        <time>2022-02-17T14:24:44Z</time>
      </trkpt>
      <trkpt lat="48.37064" lon="2.77243">
        <ele>89.1</ele>
        <time>2022-02-17T14:24:49Z</time>
      </trkpt>
      <trkpt lat="48.37068" lon="2.77248">
        <ele>89.06</ele>
        <time>2022-02-17T14:24:54Z</time>
      </trkpt>
      <trkpt lat="48.37069" lon="2.77256">
        <ele>89.03</ele>
        <time>2022-02-17T14:24:59Z</time>
      </trkpt>
      <trkpt lat="48.3707" lon="2.77263">
        <ele>89.06</ele>
        <time>2022-02-17T14:25:04Z</time>
      </trkpt>
      <trkpt lat="48.37072" lon="2.77272">
        <ele>89.46</ele>
        <time>2022-02-17T14:25:09Z</time>
      </trkpt>
      <trkpt lat="48.37076" lon="2.7728">
        <ele>89.74</ele>
        <time>2022-02-17T14:25:14Z</time>
      </trkpt>
      <trkpt lat="48.37079" lon="2.77285">
        <ele>89.55</ele>
        <time>2022-02-17T14:25:19Z</time>
      </trkpt>
      <trkpt lat="48.37082" lon="2.77292">
        <ele>89.65</ele>
        <time>2022-02-17T14:25:24Z</time>
      </trkpt>
      <trkpt lat="48.37084" lon="2.77299">
        <ele>90.05</ele>
        <time>2022-02-17T14:25:29Z</time>
      </trkpt>
      <trkpt lat="48.37087" lon="2.77304">
        <ele>90.1</ele>
        <time>2022-02-17T14:25:34Z</time>
      </trkpt>
      <trkpt lat="48.3709" lon="2.77307">
        <ele>90.19</ele>
        <time>2022-02-17T14:25:38Z</time>
      </trkpt>
      <trkpt lat="48.37093" lon="2.77313">
        <ele>90.47</ele>
        <time>2022-02-17T14:25:44Z</time>
      </trkpt>
      <trkpt lat="48.37096" lon="2.77318">
        <ele>90.94</ele>
        <time>2022-02-17T14:25:49Z</time>
      </trkpt>
      <trkpt lat="48.371" lon="2.77322">
        <ele>90.74</ele>
        <time>2022-02-17T14:25:54Z</time>
      </trkpt>
      <trkpt lat="48.37102" lon="2.77328">
        <ele>90.38</ele>
        <time>2022-02-17T14:25:59Z</time>
      </trkpt>
      <trkpt lat="48.37105" lon="2.77333">
        <ele>90.17</ele>
        <time>2022-02-17T14:26:04Z</time>
      </trkpt>
      <trkpt lat="48.37109" lon="2.77338">
        <ele>90.02</ele>
        <time>2022-02-17T14:26:09Z</time>
      </trkpt>
      <trkpt lat="48.37112" lon="2.77343">
        <ele>90.19</ele>
        <time>2022-02-17T14:26:14Z</time>
      </trkpt>
      <trkpt lat="48.37117" lon="2.7735">
        <ele>90.28</ele>
        <time>2022-02-17T14:26:19Z</time>
      </trkpt>
      <trkpt lat="48.37121" lon="2.77357">
        <ele>90.32</ele>
        <time>2022-02-17T14:26:24Z</time>
      </trkpt>
      <trkpt lat="48.37124" lon="2.77363">
        <ele>90.52</ele>
        <time>2022-02-17T14:26:29Z</time>
      </trkpt>
      <trkpt lat="48.37127" lon="2.7737">
        <ele>90.37</ele>
        <time>2022-02-17T14:26:34Z</time>
      </trkpt>
      <trkpt lat="48.37131" lon="2.77374">
        <ele>90.13</ele>
        <time>2022-02-17T14:26:39Z</time>
      </trkpt>
      <trkpt lat="48.37137" lon="2.77381">
        <ele>89.91</ele>
        <time>2022-02-17T14:26:44Z</time>
      </trkpt>
      <trkpt lat="48.37141" lon="2.77385">
        <ele>89.9</ele>
        <time>2022-02-17T14:26:49Z</time>
      </trkpt>
      <trkpt lat="48.37145" lon="2.77391">
        <ele>89.98</ele>
        <time>2022-02-17T14:26:54Z</time>
      </trkpt>
      <trkpt lat="48.37149" lon="2.77396">
        <ele>89.85</ele>
        <time>2022-02-17T14:26:59Z</time>
      </trkpt>
      <trkpt lat="48.37152" lon="2.77402">
        <ele>89.51</ele>
        <time>2022-02-17T14:27:04Z</time>
      </trkpt>
      <trkpt lat="48.37156" lon="2.77408">
        <ele>89.46</ele>
        <time>2022-02-17T14:27:09Z</time>
      </trkpt>
      <trkpt lat="48.3716" lon="2.77414">
        <ele>89.36</ele>
        <time>2022-02-17T14:27:14Z</time>
      </trkpt>
      <trkpt lat="48.37164" lon="2.77417">
        <ele>89.2</ele>
        <time>2022-02-17T14:27:19Z</time>
      </trkpt>
      <trkpt lat="48.37168" lon="2.77421">
        <ele>89.12</ele>
        <time>2022-02-17T14:27:24Z</time>
      </trkpt>
      <trkpt lat="48.37174" lon="2.77426">
        <ele>88.88</ele>
        <time>2022-02-17T14:27:29Z</time>
      </trkpt>
      <trkpt lat="48.37177" lon="2.77432">
        <ele>88.65</ele>
        <time>2022-02-17T14:27:34Z</time>
      </trkpt>
      <trkpt lat="48.37181" lon="2.77438">
        <ele>88.79</ele>
        <time>2022-02-17T14:27:39Z</time>
      </trkpt>
      <trkpt lat="48.37185" lon="2.77444">
        <ele>89.54</ele>
        <time>2022-02-17T14:27:44Z</time>
      </trkpt>
      <trkpt lat="48.37189" lon="2.7745">
        <ele>89.91</ele>
        <time>2022-02-17T14:27:49Z</time>
      </trkpt>
      <trkpt lat="48.37192" lon="2.77455">
        <ele>90.22</ele>
        <time>2022-02-17T14:27:54Z</time>
      </trkpt>
      <trkpt lat="48.37197" lon="2.77459">
        <ele>90.44</ele>
        <time>2022-02-17T14:27:59Z</time>
      </trkpt>
      <trkpt lat="48.37202" lon="2.77463">
        <ele>90.47</ele>
        <time>2022-02-17T14:28:04Z</time>
      </trkpt>
      <trkpt lat="48.37208" lon="2.77466">
        <ele>90.61</ele>
        <time>2022-02-17T14:28:09Z</time>
      </trkpt>
      <trkpt lat="48.37214" lon="2.77471">
        <ele>90.75</ele>
        <time>2022-02-17T14:28:14Z</time>
      </trkpt>
      <trkpt lat="48.37218" lon="2.77476">
        <ele>90.79</ele>
        <time>2022-02-17T14:28:19Z</time>
      </trkpt>
      <trkpt lat="48.37221" lon="2.77483">
        <ele>90.75</ele>
        <time>2022-02-17T14:28:24Z</time>
      </trkpt>
      <trkpt lat="48.37225" lon="2.77488">
        <ele>90.91</ele>
        <time>2022-02-17T14:28:29Z</time>
      </trkpt>
      <trkpt lat="48.37228" lon="2.77492">
        <ele>90.97</ele>
        <time>2022-02-17T14:28:34Z</time>
      </trkpt>
      <trkpt lat="48.37231" lon="2.77498">
        <ele>91.04</ele>
        <time>2022-02-17T14:28:39Z</time>
      </trkpt>
      <trkpt lat="48.37238" lon="2.77502">
        <ele>91.08</ele>
        <time>2022-02-17T14:28:44Z</time>
      </trkpt>
      <trkpt lat="48.37242" lon="2.77505">
        <ele>91.18</ele>
        <time>2022-02-17T14:28:49Z</time>
      </trkpt>
      <trkpt lat="48.37243" lon="2.77512">
        <ele>91.15</ele>
        <time>2022-02-17T14:28:54Z</time>
      </trkpt>
      <trkpt lat="48.37243" lon="2.77519">
        <ele>91.01</ele>
        <time>2022-02-17T14:28:59Z</time>
      </trkpt>
      <trkpt lat="48.37242" lon="2.77527">
        <ele>90.97</ele>
        <time>2022-02-17T14:29:04Z</time>
      </trkpt>
      <trkpt lat="48.37242" lon="2.77532">
        <ele>91.25</ele>
        <time>2022-02-17T14:29:09Z</time>
      </trkpt>
      <trkpt lat="48.37241" lon="2.77537">
        <ele>91.4</ele>
        <time>2022-02-17T14:29:14Z</time>
      </trkpt>
      <trkpt lat="48.37241" lon="2.77546">
        <ele>91.47</ele>
        <time>2022-02-17T14:29:19Z</time>
      </trkpt>
      <trkpt lat="48.3724" lon="2.77554">
        <ele>91.61</ele>
        <time>2022-02-17T14:29:24Z</time>
      </trkpt>
      <trkpt lat="48.37238" lon="2.77562">
        <ele>91.62</ele>
        <time>2022-02-17T14:29:29Z</time>
      </trkpt>
      <trkpt lat="48.37238" lon="2.77568">
        <ele>91.73</ele>
        <time>2022-02-17T14:29:34Z</time>
      </trkpt>
      <trkpt lat="48.37238" lon="2.77575">
        <ele>91.57</ele>
        <time>2022-02-17T14:29:39Z</time>
      </trkpt>
      <trkpt lat="48.37235" lon="2.77586">
        <ele>91.39</ele>
        <time>2022-02-17T14:29:44Z</time>
      </trkpt>
      <trkpt lat="48.37236" lon="2.77596">
        <ele>91.06</ele>
        <time>2022-02-17T14:29:49Z</time>
      </trkpt>
      <trkpt lat="48.37234" lon="2.77606">
        <ele>90.76</ele>
        <time>2022-02-17T14:29:54Z</time>
      </trkpt>
      <trkpt lat="48.37232" lon="2.77613">
        <ele>90.36</ele>
        <time>2022-02-17T14:29:59Z</time>
      </trkpt>
      <trkpt lat="48.37228" lon="2.7762">
        <ele>90.21</ele>
        <time>2022-02-17T14:30:04Z</time>
      </trkpt>
      <trkpt lat="48.37227" lon="2.77629">
        <ele>90.28</ele>
        <time>2022-02-17T14:30:09Z</time>
      </trkpt>
      <trkpt lat="48.37226" lon="2.77638">
        <ele>90.3</ele>
        <time>2022-02-17T14:30:14Z</time>
      </trkpt>
      <trkpt lat="48.37226" lon="2.77646">
        <ele>89.64</ele>
        <time>2022-02-17T14:30:19Z</time>
      </trkpt>
      <trkpt lat="48.37225" lon="2.77652">
        <ele>89.68</ele>
        <time>2022-02-17T14:30:24Z</time>
      </trkpt>
      <trkpt lat="48.37224" lon="2.7766">
        <ele>90.61</ele>
        <time>2022-02-17T14:30:29Z</time>
      </trkpt>
      <trkpt lat="48.37225" lon="2.77669">
        <ele>89.91</ele>
        <time>2022-02-17T14:30:34Z</time>
      </trkpt>
      <trkpt lat="48.37223" lon="2.77679">
        <ele>89.15</ele>
        <time>2022-02-17T14:30:39Z</time>
      </trkpt>
      <trkpt lat="48.37222" lon="2.77687">
        <ele>89.33</ele>
        <time>2022-02-17T14:30:44Z</time>
      </trkpt>
      <trkpt lat="48.37222" lon="2.77692">
        <ele>90.23</ele>
        <time>2022-02-17T14:30:49Z</time>
      </trkpt>
      <trkpt lat="48.37224" lon="2.77694">
        <ele>90.99</ele>
        <time>2022-02-17T14:30:54Z</time>
      </trkpt>
      <trkpt lat="48.37226" lon="2.77695">
        <ele>90.63</ele>
        <time>2022-02-17T14:30:59Z</time>
      </trkpt>
      <trkpt lat="48.37226" lon="2.77697">
        <ele>90.16</ele>
        <time>2022-02-17T14:31:04Z</time>
      </trkpt>
      <trkpt lat="48.37226" lon="2.77697">
        <ele>89.89</ele>
        <time>2022-02-17T14:31:09Z</time>
      </trkpt>
      <trkpt lat="48.37224" lon="2.77698">
        <ele>90.15</ele>
        <time>2022-02-17T14:31:14Z</time>
      </trkpt>
      <trkpt lat="48.37224" lon="2.77699">
        <ele>90.17</ele>
        <time>2022-02-17T14:31:19Z</time>
      </trkpt>
      <trkpt lat="48.37224" lon="2.77699">
        <ele>89.95</ele>
        <time>2022-02-17T14:31:24Z</time>
      </trkpt>
      <trkpt lat="48.37225" lon="2.777">
        <ele>89.9</ele>
        <time>2022-02-17T14:31:29Z</time>
      </trkpt>
      <trkpt lat="48.37229" lon="2.777">
        <ele>90.25</ele>
        <time>2022-02-17T14:31:34Z</time>
      </trkpt>
      <trkpt lat="48.3723" lon="2.77699">
        <ele>90.47</ele>
        <time>2022-02-17T14:31:39Z</time>
      </trkpt>
      <trkpt lat="48.37231" lon="2.77695">
        <ele>90.54</ele>
        <time>2022-02-17T14:31:44Z</time>
      </trkpt>
      <trkpt lat="48.3723" lon="2.7769">
        <ele>90.48</ele>
        <time>2022-02-17T14:31:49Z</time>
      </trkpt>
      <trkpt lat="48.37231" lon="2.7769">
        <ele>90.94</ele>
        <time>2022-02-17T14:31:54Z</time>
      </trkpt>
      <trkpt lat="48.3723" lon="2.7769">
        <ele>91.14</ele>
        <time>2022-02-17T14:31:59Z</time>
      </trkpt>
      <trkpt lat="48.3723" lon="2.7769">
        <ele>91.15</ele>
        <time>2022-02-17T14:32:04Z</time>
      </trkpt>
      <trkpt lat="48.37228" lon="2.7769">
        <ele>90.89</ele>
        <time>2022-02-17T14:32:09Z</time>
      </trkpt>
      <trkpt lat="48.37232" lon="2.7769">
        <ele>90.36</ele>
        <time>2022-02-17T14:32:14Z</time>
      </trkpt>
      <trkpt lat="48.37241" lon="2.77689">
        <ele>90.34</ele>
        <time>2022-02-17T14:32:19Z</time>
      </trkpt>
      <trkpt lat="48.3724" lon="2.77691">
        <ele>90.57</ele>
        <time>2022-02-17T14:32:24Z</time>
      </trkpt>
      <trkpt lat="48.37241" lon="2.77691">
        <ele>90.75</ele>
        <time>2022-02-17T14:32:29Z</time>
      </trkpt>
      <trkpt lat="48.37243" lon="2.77693">
        <ele>90.73</ele>
        <time>2022-02-17T14:32:34Z</time>
      </trkpt>
      <trkpt lat="48.37242" lon="2.77694">
        <ele>90.85</ele>
        <time>2022-02-17T14:32:39Z</time>
      </trkpt>
      <trkpt lat="48.37243" lon="2.77695">
        <ele>90.61</ele>
        <time>2022-02-17T14:32:44Z</time>
      </trkpt>
      <trkpt lat="48.37243" lon="2.77694">
        <ele>90.75</ele>
        <time>2022-02-17T14:32:49Z</time>
      </trkpt>
      <trkpt lat="48.3724" lon="2.77695">
        <ele>90.72</ele>
        <time>2022-02-17T14:32:54Z</time>
      </trkpt>
      <trkpt lat="48.37236" lon="2.77696">
        <ele>90.71</ele>
        <time>2022-02-17T14:32:59Z</time>
      </trkpt>
      <trkpt lat="48.37232" lon="2.77696">
        <ele>90.73</ele>
        <time>2022-02-17T14:33:04Z</time>
      </trkpt>
      <trkpt lat="48.3723" lon="2.77696">
        <ele>90.54</ele>
        <time>2022-02-17T14:33:09Z</time>
      </trkpt>
      <trkpt lat="48.37228" lon="2.77696">
        <ele>90</ele>
        <time>2022-02-17T14:33:14Z</time>
      </trkpt>
      <trkpt lat="48.37227" lon="2.77695">
        <ele>89.68</ele>
        <time>2022-02-17T14:33:19Z</time>
      </trkpt>
      <trkpt lat="48.37227" lon="2.77695">
        <ele>90.18</ele>
        <time>2022-02-17T14:33:24Z</time>
      </trkpt>
      <trkpt lat="48.37227" lon="2.77695">
        <ele>89.86</ele>
        <time>2022-02-17T14:33:29Z</time>
      </trkpt>
      <trkpt lat="48.37228" lon="2.77695">
        <ele>90.2</ele>
        <time>2022-02-17T14:33:34Z</time>
      </trkpt>
      <trkpt lat="48.37229" lon="2.77695">
        <ele>90.59</ele>
        <time>2022-02-17T14:33:39Z</time>
      </trkpt>
      <trkpt lat="48.3723" lon="2.77696">
        <ele>90.63</ele>
        <time>2022-02-17T14:33:44Z</time>
      </trkpt>
      <trkpt lat="48.3723" lon="2.77695">
        <ele>90.61</ele>
        <time>2022-02-17T14:33:49Z</time>
      </trkpt>
      <trkpt lat="48.3723" lon="2.77694">
        <ele>90.7</ele>
        <time>2022-02-17T14:33:54Z</time>
      </trkpt>
      <trkpt lat="48.37227" lon="2.77693">
        <ele>90.44</ele>
        <time>2022-02-17T14:33:59Z</time>
      </trkpt>
      <trkpt lat="48.37226" lon="2.77693">
        <ele>90.08</ele>
        <time>2022-02-17T14:34:04Z</time>
      </trkpt>
      <trkpt lat="48.37224" lon="2.77694">
        <ele>90.37</ele>
        <time>2022-02-17T14:34:09Z</time>
      </trkpt>
      <trkpt lat="48.37228" lon="2.77692">
        <ele>90.37</ele>
        <time>2022-02-17T14:34:14Z</time>
      </trkpt>
      <trkpt lat="48.37229" lon="2.77691">
        <ele>90.37</ele>
        <time>2022-02-17T14:34:19Z</time>
      </trkpt>
      <trkpt lat="48.37231" lon="2.77692">
        <ele>90.37</ele>
        <time>2022-02-17T14:34:24Z</time>
      </trkpt>
      <trkpt lat="48.37233" lon="2.77691">
        <ele>90.37</ele>
        <time>2022-02-17T14:34:29Z</time>
      </trkpt>
      <trkpt lat="48.37232" lon="2.77689">
        <ele>90.37</ele>
        <time>2022-02-17T14:34:34Z</time>
      </trkpt>
      <trkpt lat="48.3723" lon="2.77687">
        <ele>90.37</ele>
        <time>2022-02-17T14:34:39Z</time>
      </trkpt>
      <trkpt lat="48.37229" lon="2.77688">
        <ele>90.37</ele>
        <time>2022-02-17T14:34:44Z</time>
      </trkpt>
      <trkpt lat="48.3723" lon="2.77696">
        <ele>90.37</ele>
        <time>2022-02-17T14:34:49Z</time>
      </trkpt>
      <trkpt lat="48.37228" lon="2.77703">
        <ele>90.37</ele>
        <time>2022-02-17T14:34:54Z</time>
      </trkpt>
      <trkpt lat="48.37228" lon="2.77709">
        <ele>90.38</ele>
        <time>2022-02-17T14:34:59Z</time>
      </trkpt>
      <trkpt lat="48.37228" lon="2.77716">
        <ele>90.6</ele>
        <time>2022-02-17T14:35:04Z</time>
      </trkpt>
      <trkpt lat="48.37226" lon="2.77724">
        <ele>90.6</ele>
        <time>2022-02-17T14:35:09Z</time>
      </trkpt>
      <trkpt lat="48.37227" lon="2.77731">
        <ele>90.57</ele>
        <time>2022-02-17T14:35:14Z</time>
      </trkpt>
      <trkpt lat="48.37227" lon="2.77738">
        <ele>90.51</ele>
        <time>2022-02-17T14:35:19Z</time>
      </trkpt>
      <trkpt lat="48.37224" lon="2.77748">
        <ele>90.61</ele>
        <time>2022-02-17T14:35:24Z</time>
      </trkpt>
      <trkpt lat="48.37222" lon="2.77754">
        <ele>90.48</ele>
        <time>2022-02-17T14:35:29Z</time>
      </trkpt>
      <trkpt lat="48.37219" lon="2.77761">
        <ele>90.45</ele>
        <time>2022-02-17T14:35:34Z</time>
      </trkpt>
      <trkpt lat="48.37216" lon="2.7777">
        <ele>90.46</ele>
        <time>2022-02-17T14:35:39Z</time>
      </trkpt>
      <trkpt lat="48.37215" lon="2.77778">
        <ele>90.41</ele>
        <time>2022-02-17T14:35:44Z</time>
      </trkpt>
      <trkpt lat="48.37215" lon="2.77785">
        <ele>90.28</ele>
        <time>2022-02-17T14:35:49Z</time>
      </trkpt>
      <trkpt lat="48.37214" lon="2.77794">
        <ele>90.29</ele>
        <time>2022-02-17T14:35:54Z</time>
      </trkpt>
      <trkpt lat="48.37212" lon="2.77804">
        <ele>90.47</ele>
        <time>2022-02-17T14:35:59Z</time>
      </trkpt>
      <trkpt lat="48.37212" lon="2.77813">
        <ele>90.6</ele>
        <time>2022-02-17T14:36:04Z</time>
      </trkpt>
      <trkpt lat="48.3721" lon="2.7782">
        <ele>90.53</ele>
        <time>2022-02-17T14:36:09Z</time>
      </trkpt>
      <trkpt lat="48.37209" lon="2.77827">
        <ele>90.6</ele>
        <time>2022-02-17T14:36:14Z</time>
      </trkpt>
      <trkpt lat="48.3721" lon="2.77835">
        <ele>90.52</ele>
        <time>2022-02-17T14:36:19Z</time>
      </trkpt>
      <trkpt lat="48.37208" lon="2.77841">
        <ele>90.55</ele>
        <time>2022-02-17T14:36:24Z</time>
      </trkpt>
      <trkpt lat="48.37205" lon="2.7785">
        <ele>90.51</ele>
        <time>2022-02-17T14:36:29Z</time>
      </trkpt>
      <trkpt lat="48.37205" lon="2.7786">
        <ele>90.58</ele>
        <time>2022-02-17T14:36:34Z</time>
      </trkpt>
      <trkpt lat="48.37205" lon="2.77871">
        <ele>90.53</ele>
        <time>2022-02-17T14:36:39Z</time>
      </trkpt>
      <trkpt lat="48.372" lon="2.7788">
        <ele>90.51</ele>
        <time>2022-02-17T14:36:44Z</time>
      </trkpt>
      <trkpt lat="48.37199" lon="2.77888">
        <ele>90.62</ele>
        <time>2022-02-17T14:36:49Z</time>
      </trkpt>
      <trkpt lat="48.37197" lon="2.77897">
        <ele>90.74</ele>
        <time>2022-02-17T14:36:54Z</time>
      </trkpt>
      <trkpt lat="48.37199" lon="2.77902">
        <ele>90.87</ele>
        <time>2022-02-17T14:36:59Z</time>
      </trkpt>
      <trkpt lat="48.37198" lon="2.7791">
        <ele>90.75</ele>
        <time>2022-02-17T14:37:04Z</time>
      </trkpt>
      <trkpt lat="48.37198" lon="2.77918">
        <ele>90.55</ele>
        <time>2022-02-17T14:37:09Z</time>
      </trkpt>
      <trkpt lat="48.37195" lon="2.77927">
        <ele>90.19</ele>
        <time>2022-02-17T14:37:14Z</time>
      </trkpt>
      <trkpt lat="48.37195" lon="2.77934">
        <ele>89.91</ele>
        <time>2022-02-17T14:37:19Z</time>
      </trkpt>
      <trkpt lat="48.37195" lon="2.77941">
        <ele>89.85</ele>
        <time>2022-02-17T14:37:24Z</time>
      </trkpt>
      <trkpt lat="48.37196" lon="2.77948">
        <ele>89.85</ele>
        <time>2022-02-17T14:37:29Z</time>
      </trkpt>
      <trkpt lat="48.37196" lon="2.77956">
        <ele>89.85</ele>
        <time>2022-02-17T14:37:34Z</time>
      </trkpt>
      <trkpt lat="48.37196" lon="2.77966">
        <ele>89.86</ele>
        <time>2022-02-17T14:37:39Z</time>
      </trkpt>
      <trkpt lat="48.37195" lon="2.77974">
        <ele>89.86</ele>
        <time>2022-02-17T14:37:44Z</time>
      </trkpt>
      <trkpt lat="48.37192" lon="2.77983">
        <ele>89.67</ele>
        <time>2022-02-17T14:37:49Z</time>
      </trkpt>
      <trkpt lat="48.37189" lon="2.77992">
        <ele>89.73</ele>
        <time>2022-02-17T14:37:54Z</time>
      </trkpt>
      <trkpt lat="48.37187" lon="2.78">
        <ele>89.91</ele>
        <time>2022-02-17T14:37:59Z</time>
      </trkpt>
      <trkpt lat="48.37186" lon="2.78009">
        <ele>90.01</ele>
        <time>2022-02-17T14:38:04Z</time>
      </trkpt>
      <trkpt lat="48.37183" lon="2.78019">
        <ele>90.19</ele>
        <time>2022-02-17T14:38:09Z</time>
      </trkpt>
      <trkpt lat="48.37183" lon="2.78027">
        <ele>90.18</ele>
        <time>2022-02-17T14:38:14Z</time>
      </trkpt>
      <trkpt lat="48.37183" lon="2.78033">
        <ele>90.03</ele>
        <time>2022-02-17T14:38:19Z</time>
      </trkpt>
      <trkpt lat="48.37183" lon="2.78042">
        <ele>89.98</ele>
        <time>2022-02-17T14:38:24Z</time>
      </trkpt>
      <trkpt lat="48.37186" lon="2.78049">
        <ele>89.98</ele>
        <time>2022-02-17T14:38:29Z</time>
      </trkpt>
      <trkpt lat="48.37187" lon="2.78058">
        <ele>89.92</ele>
        <time>2022-02-17T14:38:34Z</time>
      </trkpt>
      <trkpt lat="48.37188" lon="2.78066">
        <ele>89.87</ele>
        <time>2022-02-17T14:38:39Z</time>
      </trkpt>
      <trkpt lat="48.37186" lon="2.78076">
        <ele>90.12</ele>
        <time>2022-02-17T14:38:44Z</time>
      </trkpt>
      <trkpt lat="48.37183" lon="2.78085">
        <ele>90.14</ele>
        <time>2022-02-17T14:38:49Z</time>
      </trkpt>
      <trkpt lat="48.37184" lon="2.78093">
        <ele>90.14</ele>
        <time>2022-02-17T14:38:54Z</time>
      </trkpt>
      <trkpt lat="48.37183" lon="2.78103">
        <ele>90.13</ele>
        <time>2022-02-17T14:38:59Z</time>
      </trkpt>
      <trkpt lat="48.37181" lon="2.78112">
        <ele>89.9</ele>
        <time>2022-02-17T14:39:04Z</time>
      </trkpt>
      <trkpt lat="48.37181" lon="2.78118">
        <ele>89.79</ele>
        <time>2022-02-17T14:39:09Z</time>
      </trkpt>
      <trkpt lat="48.37181" lon="2.78122">
        <ele>89.63</ele>
        <time>2022-02-17T14:39:14Z</time>
      </trkpt>
      <trkpt lat="48.3718" lon="2.78131">
        <ele>89.48</ele>
        <time>2022-02-17T14:39:19Z</time>
      </trkpt>
      <trkpt lat="48.37178" lon="2.78143">
        <ele>89.43</ele>
        <time>2022-02-17T14:39:24Z</time>
      </trkpt>
      <trkpt lat="48.37175" lon="2.78154">
        <ele>89.4</ele>
        <time>2022-02-17T14:39:29Z</time>
      </trkpt>
      <trkpt lat="48.37176" lon="2.78161">
        <ele>89.33</ele>
        <time>2022-02-17T14:39:34Z</time>
      </trkpt>
      <trkpt lat="48.37174" lon="2.78169">
        <ele>89.1</ele>
        <time>2022-02-17T14:39:39Z</time>
      </trkpt>
      <trkpt lat="48.37171" lon="2.78179">
        <ele>89.07</ele>
        <time>2022-02-17T14:39:44Z</time>
      </trkpt>
      <trkpt lat="48.3717" lon="2.78189">
        <ele>88.88</ele>
        <time>2022-02-17T14:39:49Z</time>
      </trkpt>
      <trkpt lat="48.3717" lon="2.78197">
        <ele>88.69</ele>
        <time>2022-02-17T14:39:54Z</time>
      </trkpt>
      <trkpt lat="48.3717" lon="2.78204">
        <ele>88.58</ele>
        <time>2022-02-17T14:39:59Z</time>
      </trkpt>
      <trkpt lat="48.3717" lon="2.78212">
        <ele>88.55</ele>
        <time>2022-02-17T14:40:04Z</time>
      </trkpt>
      <trkpt lat="48.37169" lon="2.78219">
        <ele>88.76</ele>
        <time>2022-02-17T14:40:09Z</time>
      </trkpt>
      <trkpt lat="48.37164" lon="2.78228">
        <ele>89</ele>
        <time>2022-02-17T14:40:14Z</time>
      </trkpt>
      <trkpt lat="48.37161" lon="2.78238">
        <ele>89</ele>
        <time>2022-02-17T14:40:19Z</time>
      </trkpt>
      <trkpt lat="48.37158" lon="2.78245">
        <ele>88.83</ele>
        <time>2022-02-17T14:40:24Z</time>
      </trkpt>
      <trkpt lat="48.37157" lon="2.78254">
        <ele>88.59</ele>
        <time>2022-02-17T14:40:29Z</time>
      </trkpt>
      <trkpt lat="48.37156" lon="2.78263">
        <ele>88.51</ele>
        <time>2022-02-17T14:40:34Z</time>
      </trkpt>
      <trkpt lat="48.37157" lon="2.78271">
        <ele>88.74</ele>
        <time>2022-02-17T14:40:39Z</time>
      </trkpt>
      <trkpt lat="48.37156" lon="2.78279">
        <ele>88.85</ele>
        <time>2022-02-17T14:40:44Z</time>
      </trkpt>
      <trkpt lat="48.37156" lon="2.78287">
        <ele>88.75</ele>
        <time>2022-02-17T14:40:49Z</time>
      </trkpt>
      <trkpt lat="48.37158" lon="2.78291">
        <ele>88.7</ele>
        <time>2022-02-17T14:40:54Z</time>
      </trkpt>
      <trkpt lat="48.37157" lon="2.78297">
        <ele>88.78</ele>
        <time>2022-02-17T14:40:59Z</time>
      </trkpt>
      <trkpt lat="48.37157" lon="2.78307">
        <ele>88.81</ele>
        <time>2022-02-17T14:41:04Z</time>
      </trkpt>
      <trkpt lat="48.37156" lon="2.78315">
        <ele>88.61</ele>
        <time>2022-02-17T14:41:09Z</time>
      </trkpt>
      <trkpt lat="48.37155" lon="2.78323">
        <ele>88.69</ele>
        <time>2022-02-17T14:41:14Z</time>
      </trkpt>
      <trkpt lat="48.37155" lon="2.78329">
        <ele>89.12</ele>
        <time>2022-02-17T14:41:19Z</time>
      </trkpt>
      <trkpt lat="48.37152" lon="2.78339">
        <ele>89.27</ele>
        <time>2022-02-17T14:41:24Z</time>
      </trkpt>
      <trkpt lat="48.37152" lon="2.78348">
        <ele>89.47</ele>
        <time>2022-02-17T14:41:29Z</time>
      </trkpt>
      <trkpt lat="48.37152" lon="2.78359">
        <ele>89.51</ele>
        <time>2022-02-17T14:41:34Z</time>
      </trkpt>
      <trkpt lat="48.37148" lon="2.78369">
        <ele>89.51</ele>
        <time>2022-02-17T14:41:39Z</time>
      </trkpt>
      <trkpt lat="48.37146" lon="2.78378">
        <ele>89.08</ele>
        <time>2022-02-17T14:41:44Z</time>
      </trkpt>
      <trkpt lat="48.37146" lon="2.78387">
        <ele>88.83</ele>
        <time>2022-02-17T14:41:49Z</time>
      </trkpt>
      <trkpt lat="48.37145" lon="2.78396">
        <ele>88.63</ele>
        <time>2022-02-17T14:41:54Z</time>
      </trkpt>
      <trkpt lat="48.37145" lon="2.78404">
        <ele>88.75</ele>
        <time>2022-02-17T14:41:59Z</time>
      </trkpt>
      <trkpt lat="48.37144" lon="2.78413">
        <ele>88.89</ele>
        <time>2022-02-17T14:42:04Z</time>
      </trkpt>
      <trkpt lat="48.37145" lon="2.78421">
        <ele>88.89</ele>
        <time>2022-02-17T14:42:09Z</time>
      </trkpt>
      <trkpt lat="48.37147" lon="2.78428">
        <ele>88.48</ele>
        <time>2022-02-17T14:42:14Z</time>
      </trkpt>
      <trkpt lat="48.37148" lon="2.78433">
        <ele>88.21</ele>
        <time>2022-02-17T14:42:19Z</time>
      </trkpt>
      <trkpt lat="48.37144" lon="2.78442">
        <ele>88.1</ele>
        <time>2022-02-17T14:42:24Z</time>
      </trkpt>
      <trkpt lat="48.37141" lon="2.78452">
        <ele>87.82</ele>
        <time>2022-02-17T14:42:29Z</time>
      </trkpt>
      <trkpt lat="48.37139" lon="2.78461">
        <ele>88.29</ele>
        <time>2022-02-17T14:42:34Z</time>
      </trkpt>
      <trkpt lat="48.37137" lon="2.78471">
        <ele>88.11</ele>
        <time>2022-02-17T14:42:39Z</time>
      </trkpt>
      <trkpt lat="48.37133" lon="2.78481">
        <ele>87.88</ele>
        <time>2022-02-17T14:42:44Z</time>
      </trkpt>
      <trkpt lat="48.37131" lon="2.78491">
        <ele>87.97</ele>
        <time>2022-02-17T14:42:49Z</time>
      </trkpt>
      <trkpt lat="48.37129" lon="2.78503">
        <ele>87.69</ele>
        <time>2022-02-17T14:42:54Z</time>
      </trkpt>
      <trkpt lat="48.37128" lon="2.7851">
        <ele>87.18</ele>
        <time>2022-02-17T14:42:59Z</time>
      </trkpt>
      <trkpt lat="48.37124" lon="2.78521">
        <ele>86.94</ele>
        <time>2022-02-17T14:43:04Z</time>
      </trkpt>
      <trkpt lat="48.3712" lon="2.78531">
        <ele>86.98</ele>
        <time>2022-02-17T14:43:09Z</time>
      </trkpt>
      <trkpt lat="48.37122" lon="2.78539">
        <ele>87.49</ele>
        <time>2022-02-17T14:43:14Z</time>
      </trkpt>
      <trkpt lat="48.37123" lon="2.78545">
        <ele>87.59</ele>
        <time>2022-02-17T14:43:19Z</time>
      </trkpt>
      <trkpt lat="48.37122" lon="2.78553">
        <ele>87.09</ele>
        <time>2022-02-17T14:43:24Z</time>
      </trkpt>
      <trkpt lat="48.37121" lon="2.78564">
        <ele>86.87</ele>
        <time>2022-02-17T14:43:29Z</time>
      </trkpt>
      <trkpt lat="48.37118" lon="2.78573">
        <ele>87.21</ele>
        <time>2022-02-17T14:43:34Z</time>
      </trkpt>
      <trkpt lat="48.37118" lon="2.78579">
        <ele>88.12</ele>
        <time>2022-02-17T14:43:39Z</time>
      </trkpt>
      <trkpt lat="48.37116" lon="2.78586">
        <ele>88.56</ele>
        <time>2022-02-17T14:43:44Z</time>
      </trkpt>
      <trkpt lat="48.37115" lon="2.78595">
        <ele>88.46</ele>
        <time>2022-02-17T14:43:49Z</time>
      </trkpt>
      <trkpt lat="48.3712" lon="2.786">
        <ele>88.6</ele>
        <time>2022-02-17T14:43:54Z</time>
      </trkpt>
      <trkpt lat="48.37123" lon="2.78605">
        <ele>88.97</ele>
        <time>2022-02-17T14:43:59Z</time>
      </trkpt>
      <trkpt lat="48.3712" lon="2.78615">
        <ele>89.54</ele>
        <time>2022-02-17T14:44:04Z</time>
      </trkpt>
      <trkpt lat="48.37116" lon="2.78624">
        <ele>90.03</ele>
        <time>2022-02-17T14:44:09Z</time>
      </trkpt>
      <trkpt lat="48.37116" lon="2.78635">
        <ele>90.41</ele>
        <time>2022-02-17T14:44:14Z</time>
      </trkpt>
      <trkpt lat="48.37116" lon="2.78643">
        <ele>90.49</ele>
        <time>2022-02-17T14:44:19Z</time>
      </trkpt>
      <trkpt lat="48.37114" lon="2.78651">
        <ele>90.25</ele>
        <time>2022-02-17T14:44:24Z</time>
      </trkpt>
      <trkpt lat="48.37113" lon="2.78656">
        <ele>89.76</ele>
        <time>2022-02-17T14:44:29Z</time>
      </trkpt>
      <trkpt lat="48.3711" lon="2.78662">
        <ele>89.34</ele>
        <time>2022-02-17T14:44:34Z</time>
      </trkpt>
      <trkpt lat="48.37105" lon="2.78671">
        <ele>89.04</ele>
        <time>2022-02-17T14:44:39Z</time>
      </trkpt>
      <trkpt lat="48.37101" lon="2.78681">
        <ele>88.81</ele>
        <time>2022-02-17T14:44:44Z</time>
      </trkpt>
      <trkpt lat="48.37103" lon="2.7869">
        <ele>88.72</ele>
        <time>2022-02-17T14:44:49Z</time>
      </trkpt>
      <trkpt lat="48.37101" lon="2.78698">
        <ele>88.79</ele>
        <time>2022-02-17T14:44:54Z</time>
      </trkpt>
      <trkpt lat="48.371" lon="2.78708">
        <ele>88.9</ele>
        <time>2022-02-17T14:44:59Z</time>
      </trkpt>
      <trkpt lat="48.37099" lon="2.78719">
        <ele>88.9</ele>
        <time>2022-02-17T14:45:04Z</time>
      </trkpt>
      <trkpt lat="48.37096" lon="2.78727">
        <ele>88.84</ele>
        <time>2022-02-17T14:45:09Z</time>
      </trkpt>
      <trkpt lat="48.37096" lon="2.78735">
        <ele>88.61</ele>
        <time>2022-02-17T14:45:14Z</time>
      </trkpt>
      <trkpt lat="48.37094" lon="2.78746">
        <ele>88.41</ele>
        <time>2022-02-17T14:45:19Z</time>
      </trkpt>
      <trkpt lat="48.37094" lon="2.78754">
        <ele>88.34</ele>
        <time>2022-02-17T14:45:24Z</time>
      </trkpt>
      <trkpt lat="48.37094" lon="2.7876">
        <ele>88.37</ele>
        <time>2022-02-17T14:45:29Z</time>
      </trkpt>
      <trkpt lat="48.37092" lon="2.78769">
        <ele>88.52</ele>
        <time>2022-02-17T14:45:34Z</time>
      </trkpt>
      <trkpt lat="48.37089" lon="2.78779">
        <ele>88.94</ele>
        <time>2022-02-17T14:45:39Z</time>
      </trkpt>
      <trkpt lat="48.37087" lon="2.78787">
        <ele>89.61</ele>
        <time>2022-02-17T14:45:44Z</time>
      </trkpt>
      <trkpt lat="48.37084" lon="2.78797">
        <ele>89.95</ele>
        <time>2022-02-17T14:45:49Z</time>
      </trkpt>
      <trkpt lat="48.37083" lon="2.78807">
        <ele>89.97</ele>
        <time>2022-02-17T14:45:54Z</time>
      </trkpt>
      <trkpt lat="48.37082" lon="2.78815">
        <ele>89.91</ele>
        <time>2022-02-17T14:45:59Z</time>
      </trkpt>
      <trkpt lat="48.37079" lon="2.78823">
        <ele>89.91</ele>
        <time>2022-02-17T14:46:04Z</time>
      </trkpt>
      <trkpt lat="48.3708" lon="2.78828">
        <ele>90.04</ele>
        <time>2022-02-17T14:46:09Z</time>
      </trkpt>
      <trkpt lat="48.37082" lon="2.78835">
        <ele>90.02</ele>
        <time>2022-02-17T14:46:14Z</time>
      </trkpt>
      <trkpt lat="48.37083" lon="2.78837">
        <ele>90.4</ele>
        <time>2022-02-17T14:46:19Z</time>
      </trkpt>
      <trkpt lat="48.37086" lon="2.78837">
        <ele>90.4</ele>
        <time>2022-02-17T14:46:24Z</time>
      </trkpt>
      <trkpt lat="48.37088" lon="2.78837">
        <ele>90.4</ele>
        <time>2022-02-17T14:46:29Z</time>
      </trkpt>
      <trkpt lat="48.37088" lon="2.78838">
        <ele>90.4</ele>
        <time>2022-02-17T14:46:34Z</time>
      </trkpt>
      <trkpt lat="48.37088" lon="2.78838">
        <ele>90.4</ele>
        <time>2022-02-17T14:46:39Z</time>
      </trkpt>
      <trkpt lat="48.37087" lon="2.78839">
        <ele>90.4</ele>
        <time>2022-02-17T14:46:44Z</time>
      </trkpt>
      <trkpt lat="48.37087" lon="2.78838">
        <ele>90.4</ele>
        <time>2022-02-17T14:46:49Z</time>
      </trkpt>
      <trkpt lat="48.37087" lon="2.78838">
        <ele>90.4</ele>
        <time>2022-02-17T14:46:54Z</time>
      </trkpt>
      <trkpt lat="48.37087" lon="2.78838">
        <ele>90.4</ele>
        <time>2022-02-17T14:46:59Z</time>
      </trkpt>
      <trkpt lat="48.37086" lon="2.78837">
        <ele>90.4</ele>
        <time>2022-02-17T14:47:04Z</time>
      </trkpt>
      <trkpt lat="48.37088" lon="2.78838">
        <ele>90.4</ele>
        <time>2022-02-17T14:47:09Z</time>
      </trkpt>
      <trkpt lat="48.37087" lon="2.7884">
        <ele>90.4</ele>
        <time>2022-02-17T14:47:14Z</time>
      </trkpt>
      <trkpt lat="48.37086" lon="2.7884">
        <ele>90.4</ele>
        <time>2022-02-17T14:47:19Z</time>
      </trkpt>
      <trkpt lat="48.37087" lon="2.78838">
        <ele>90.4</ele>
        <time>2022-02-17T14:47:24Z</time>
      </trkpt>
      <trkpt lat="48.37087" lon="2.78836">
        <ele>90.4</ele>
        <time>2022-02-17T14:47:29Z</time>
      </trkpt>
      <trkpt lat="48.37088" lon="2.78836">
        <ele>90.4</ele>
        <time>2022-02-17T14:47:34Z</time>
      </trkpt>
      <trkpt lat="48.3709" lon="2.78835">
        <ele>90.4</ele>
        <time>2022-02-17T14:47:39Z</time>
      </trkpt>
      <trkpt lat="48.37094" lon="2.78835">
        <ele>90.24</ele>
        <time>2022-02-17T14:47:44Z</time>
      </trkpt>
      <trkpt lat="48.37101" lon="2.78837">
        <ele>89.62</ele>
        <time>2022-02-17T14:47:49Z</time>
      </trkpt>
      <trkpt lat="48.37101" lon="2.78836">
        <ele>89.59</ele>
        <time>2022-02-17T14:47:54Z</time>
      </trkpt>
      <trkpt lat="48.37102" lon="2.78836">
        <ele>89.61</ele>
        <time>2022-02-17T14:47:59Z</time>
      </trkpt>
      <trkpt lat="48.37101" lon="2.78836">
        <ele>89.68</ele>
        <time>2022-02-17T14:48:04Z</time>
      </trkpt>
      <trkpt lat="48.37099" lon="2.78838">
        <ele>89.63</ele>
        <time>2022-02-17T14:48:09Z</time>
      </trkpt>
      <trkpt lat="48.37097" lon="2.78838">
        <ele>90.11</ele>
        <time>2022-02-17T14:48:14Z</time>
      </trkpt>
      <trkpt lat="48.37095" lon="2.78834">
        <ele>90.33</ele>
        <time>2022-02-17T14:48:19Z</time>
      </trkpt>
      <trkpt lat="48.37095" lon="2.78835">
        <ele>89.51</ele>
        <time>2022-02-17T14:48:24Z</time>
      </trkpt>
      <trkpt lat="48.37095" lon="2.78835">
        <ele>89.2</ele>
        <time>2022-02-17T14:48:29Z</time>
      </trkpt>
      <trkpt lat="48.37095" lon="2.78836">
        <ele>89.45</ele>
        <time>2022-02-17T14:48:34Z</time>
      </trkpt>
      <trkpt lat="48.37092" lon="2.78844">
        <ele>89.93</ele>
        <time>2022-02-17T14:48:39Z</time>
      </trkpt>
      <trkpt lat="48.37091" lon="2.7885">
        <ele>90.25</ele>
        <time>2022-02-17T14:48:44Z</time>
      </trkpt>
      <trkpt lat="48.3709" lon="2.78857">
        <ele>90.8</ele>
        <time>2022-02-17T14:48:49Z</time>
      </trkpt>
      <trkpt lat="48.3709" lon="2.78865">
        <ele>90.91</ele>
        <time>2022-02-17T14:48:54Z</time>
      </trkpt>
      <trkpt lat="48.37089" lon="2.7887">
        <ele>90.64</ele>
        <time>2022-02-17T14:48:59Z</time>
      </trkpt>
      <trkpt lat="48.37087" lon="2.78876">
        <ele>90.23</ele>
        <time>2022-02-17T14:49:04Z</time>
      </trkpt>
      <trkpt lat="48.37083" lon="2.78878">
        <ele>89.68</ele>
        <time>2022-02-17T14:49:09Z</time>
      </trkpt>
      <trkpt lat="48.37079" lon="2.78882">
        <ele>89.63</ele>
        <time>2022-02-17T14:49:14Z</time>
      </trkpt>
      <trkpt lat="48.37075" lon="2.78885">
        <ele>89.49</ele>
        <time>2022-02-17T14:49:19Z</time>
      </trkpt>
      <trkpt lat="48.37068" lon="2.78891">
        <ele>88.97</ele>
        <time>2022-02-17T14:49:24Z</time>
      </trkpt>
      <trkpt lat="48.37062" lon="2.78896">
        <ele>88.66</ele>
        <time>2022-02-17T14:49:29Z</time>
      </trkpt>
      <trkpt lat="48.37059" lon="2.789">
        <ele>88.87</ele>
        <time>2022-02-17T14:49:34Z</time>
      </trkpt>
      <trkpt lat="48.37056" lon="2.78903">
        <ele>88.65</ele>
        <time>2022-02-17T14:49:39Z</time>
      </trkpt>
      <trkpt lat="48.37053" lon="2.78906">
        <ele>88.31</ele>
        <time>2022-02-17T14:49:44Z</time>
      </trkpt>
      <trkpt lat="48.37047" lon="2.78909">
        <ele>88.11</ele>
        <time>2022-02-17T14:49:49Z</time>
      </trkpt>
      <trkpt lat="48.37043" lon="2.78911">
        <ele>87.49</ele>
        <time>2022-02-17T14:49:54Z</time>
      </trkpt>
      <trkpt lat="48.37041" lon="2.78916">
        <ele>87.39</ele>
        <time>2022-02-17T14:49:59Z</time>
      </trkpt>
      <trkpt lat="48.37039" lon="2.78921">
        <ele>87.29</ele>
        <time>2022-02-17T14:50:04Z</time>
      </trkpt>
      <trkpt lat="48.37035" lon="2.78926">
        <ele>87.11</ele>
        <time>2022-02-17T14:50:09Z</time>
      </trkpt>
      <trkpt lat="48.37032" lon="2.7893">
        <ele>86.97</ele>
        <time>2022-02-17T14:50:14Z</time>
      </trkpt>
      <trkpt lat="48.37027" lon="2.78935">
        <ele>86.96</ele>
        <time>2022-02-17T14:50:19Z</time>
      </trkpt>
      <trkpt lat="48.37022" lon="2.78938">
        <ele>86.97</ele>
        <time>2022-02-17T14:50:24Z</time>
      </trkpt>
      <trkpt lat="48.37017" lon="2.78943">
        <ele>87.15</ele>
        <time>2022-02-17T14:50:29Z</time>
      </trkpt>
      <trkpt lat="48.37013" lon="2.78947">
        <ele>87.57</ele>
        <time>2022-02-17T14:50:34Z</time>
      </trkpt>
      <trkpt lat="48.37012" lon="2.78952">
        <ele>87.38</ele>
        <time>2022-02-17T14:50:39Z</time>
      </trkpt>
      <trkpt lat="48.37008" lon="2.78957">
        <ele>87.04</ele>
        <time>2022-02-17T14:50:44Z</time>
      </trkpt>
      <trkpt lat="48.37004" lon="2.78962">
        <ele>86.68</ele>
        <time>2022-02-17T14:50:49Z</time>
      </trkpt>
      <trkpt lat="48.37" lon="2.78967">
        <ele>86.61</ele>
        <time>2022-02-17T14:50:54Z</time>
      </trkpt>
      <trkpt lat="48.36995" lon="2.78972">
        <ele>86.7</ele>
        <time>2022-02-17T14:50:59Z</time>
      </trkpt>
      <trkpt lat="48.36992" lon="2.78978">
        <ele>86.65</ele>
        <time>2022-02-17T14:51:04Z</time>
      </trkpt>
      <trkpt lat="48.36988" lon="2.78986">
        <ele>86.15</ele>
        <time>2022-02-17T14:51:09Z</time>
      </trkpt>
      <trkpt lat="48.36984" lon="2.78989">
        <ele>85.73</ele>
        <time>2022-02-17T14:51:14Z</time>
      </trkpt>
      <trkpt lat="48.36978" lon="2.78992">
        <ele>85.84</ele>
        <time>2022-02-17T14:51:19Z</time>
      </trkpt>
      <trkpt lat="48.36971" lon="2.78996">
        <ele>86.29</ele>
        <time>2022-02-17T14:51:24Z</time>
      </trkpt>
      <trkpt lat="48.36964" lon="2.79001">
        <ele>86.22</ele>
        <time>2022-02-17T14:51:29Z</time>
      </trkpt>
      <trkpt lat="48.36956" lon="2.79008">
        <ele>86.15</ele>
        <time>2022-02-17T14:51:34Z</time>
      </trkpt>
      <trkpt lat="48.36947" lon="2.79015">
        <ele>85.94</ele>
        <time>2022-02-17T14:51:39Z</time>
      </trkpt>
      <trkpt lat="48.36941" lon="2.79021">
        <ele>85.86</ele>
        <time>2022-02-17T14:51:44Z</time>
      </trkpt>
      <trkpt lat="48.36936" lon="2.79025">
        <ele>85.85</ele>
        <time>2022-02-17T14:51:49Z</time>
      </trkpt>
      <trkpt lat="48.36931" lon="2.79029">
        <ele>85.85</ele>
        <time>2022-02-17T14:51:54Z</time>
      </trkpt>
      <trkpt lat="48.36928" lon="2.79033">
        <ele>86.43</ele>
        <time>2022-02-17T14:51:59Z</time>
      </trkpt>
      <trkpt lat="48.36922" lon="2.79038">
        <ele>86.36</ele>
        <time>2022-02-17T14:52:04Z</time>
      </trkpt>
      <trkpt lat="48.36916" lon="2.79043">
        <ele>86.19</ele>
        <time>2022-02-17T14:52:09Z</time>
      </trkpt>
      <trkpt lat="48.36913" lon="2.79047">
        <ele>85.8</ele>
        <time>2022-02-17T14:52:14Z</time>
      </trkpt>
      <trkpt lat="48.36909" lon="2.79053">
        <ele>85.86</ele>
        <time>2022-02-17T14:52:19Z</time>
      </trkpt>
      <trkpt lat="48.36904" lon="2.79057">
        <ele>85.79</ele>
        <time>2022-02-17T14:52:24Z</time>
      </trkpt>
      <trkpt lat="48.36896" lon="2.79064">
        <ele>85.59</ele>
        <time>2022-02-17T14:52:29Z</time>
      </trkpt>
      <trkpt lat="48.36893" lon="2.79066">
        <ele>85.38</ele>
        <time>2022-02-17T14:52:34Z</time>
      </trkpt>
      <trkpt lat="48.3689" lon="2.79069">
        <ele>85.19</ele>
        <time>2022-02-17T14:52:39Z</time>
      </trkpt>
      <trkpt lat="48.36886" lon="2.79075">
        <ele>85.13</ele>
        <time>2022-02-17T14:52:44Z</time>
      </trkpt>
      <trkpt lat="48.36881" lon="2.79082">
        <ele>85.12</ele>
        <time>2022-02-17T14:52:49Z</time>
      </trkpt>
      <trkpt lat="48.36875" lon="2.79087">
        <ele>85.17</ele>
        <time>2022-02-17T14:52:54Z</time>
      </trkpt>
      <trkpt lat="48.36869" lon="2.79092">
        <ele>85.01</ele>
        <time>2022-02-17T14:52:59Z</time>
      </trkpt>
      <trkpt lat="48.36864" lon="2.79095">
        <ele>84.9</ele>
        <time>2022-02-17T14:53:04Z</time>
      </trkpt>
      <trkpt lat="48.3686" lon="2.79101">
        <ele>84.91</ele>
        <time>2022-02-17T14:53:09Z</time>
      </trkpt>
      <trkpt lat="48.36855" lon="2.79105">
        <ele>85.01</ele>
        <time>2022-02-17T14:53:14Z</time>
      </trkpt>
      <trkpt lat="48.36851" lon="2.79109">
        <ele>85.02</ele>
        <time>2022-02-17T14:53:19Z</time>
      </trkpt>
      <trkpt lat="48.36847" lon="2.79114">
        <ele>84.86</ele>
        <time>2022-02-17T14:53:24Z</time>
      </trkpt>
      <trkpt lat="48.36842" lon="2.79119">
        <ele>84.91</ele>
        <time>2022-02-17T14:53:29Z</time>
      </trkpt>
      <trkpt lat="48.36839" lon="2.79121">
        <ele>85.16</ele>
        <time>2022-02-17T14:53:34Z</time>
      </trkpt>
      <trkpt lat="48.36833" lon="2.79125">
        <ele>85.3</ele>
        <time>2022-02-17T14:53:39Z</time>
      </trkpt>
      <trkpt lat="48.36828" lon="2.79129">
        <ele>85.36</ele>
        <time>2022-02-17T14:53:44Z</time>
      </trkpt>
      <trkpt lat="48.36815" lon="2.79136">
        <ele>85.35</ele>
        <time>2022-02-17T14:53:49Z</time>
      </trkpt>
      <trkpt lat="48.36806" lon="2.79142">
        <ele>85.23</ele>
        <time>2022-02-17T14:53:54Z</time>
      </trkpt>
      <trkpt lat="48.36798" lon="2.79146">
        <ele>85.05</ele>
        <time>2022-02-17T14:53:59Z</time>
      </trkpt>
      <trkpt lat="48.36792" lon="2.7915">
        <ele>84.97</ele>
        <time>2022-02-17T14:54:04Z</time>
      </trkpt>
      <trkpt lat="48.36787" lon="2.79153">
        <ele>84.95</ele>
        <time>2022-02-17T14:54:09Z</time>
      </trkpt>
      <trkpt lat="48.36783" lon="2.79155">
        <ele>84.95</ele>
        <time>2022-02-17T14:54:14Z</time>
      </trkpt>
      <trkpt lat="48.36779" lon="2.79159">
        <ele>84.86</ele>
        <time>2022-02-17T14:54:19Z</time>
      </trkpt>
      <trkpt lat="48.36776" lon="2.79165">
        <ele>84.85</ele>
        <time>2022-02-17T14:54:24Z</time>
      </trkpt>
      <trkpt lat="48.36771" lon="2.79171">
        <ele>84.85</ele>
        <time>2022-02-17T14:54:29Z</time>
      </trkpt>
      <trkpt lat="48.36766" lon="2.79175">
        <ele>85.42</ele>
        <time>2022-02-17T14:54:34Z</time>
      </trkpt>
      <trkpt lat="48.36758" lon="2.79179">
        <ele>85.25</ele>
        <time>2022-02-17T14:54:39Z</time>
      </trkpt>
      <trkpt lat="48.36753" lon="2.79181">
        <ele>84.93</ele>
        <time>2022-02-17T14:54:44Z</time>
      </trkpt>
      <trkpt lat="48.36751" lon="2.79179">
        <ele>84.76</ele>
        <time>2022-02-17T14:54:49Z</time>
      </trkpt>
      <trkpt lat="48.36749" lon="2.79179">
        <ele>84.74</ele>
        <time>2022-02-17T14:54:54Z</time>
      </trkpt>
      <trkpt lat="48.36744" lon="2.79182">
        <ele>84.76</ele>
        <time>2022-02-17T14:54:59Z</time>
      </trkpt>
      <trkpt lat="48.36738" lon="2.79185">
        <ele>84.84</ele>
        <time>2022-02-17T14:55:04Z</time>
      </trkpt>
      <trkpt lat="48.36734" lon="2.79189">
        <ele>85.02</ele>
        <time>2022-02-17T14:55:09Z</time>
      </trkpt>
      <trkpt lat="48.3673" lon="2.79191">
        <ele>84.98</ele>
        <time>2022-02-17T14:55:14Z</time>
      </trkpt>
      <trkpt lat="48.36724" lon="2.79196">
        <ele>85.04</ele>
        <time>2022-02-17T14:55:19Z</time>
      </trkpt>
      <trkpt lat="48.36721" lon="2.792">
        <ele>84.89</ele>
        <time>2022-02-17T14:55:24Z</time>
      </trkpt>
      <trkpt lat="48.36715" lon="2.79203">
        <ele>84.82</ele>
        <time>2022-02-17T14:55:29Z</time>
      </trkpt>
      <trkpt lat="48.36709" lon="2.79209">
        <ele>85.08</ele>
        <time>2022-02-17T14:55:34Z</time>
      </trkpt>
      <trkpt lat="48.36703" lon="2.79214">
        <ele>85.17</ele>
        <time>2022-02-17T14:55:39Z</time>
      </trkpt>
      <trkpt lat="48.36698" lon="2.79219">
        <ele>85.15</ele>
        <time>2022-02-17T14:55:44Z</time>
      </trkpt>
      <trkpt lat="48.36692" lon="2.79221">
        <ele>84.95</ele>
        <time>2022-02-17T14:55:49Z</time>
      </trkpt>
      <trkpt lat="48.36689" lon="2.79223">
        <ele>84.7</ele>
        <time>2022-02-17T14:55:54Z</time>
      </trkpt>
      <trkpt lat="48.36685" lon="2.79226">
        <ele>84.84</ele>
        <time>2022-02-17T14:55:59Z</time>
      </trkpt>
      <trkpt lat="48.36681" lon="2.79228">
        <ele>84.88</ele>
        <time>2022-02-17T14:56:04Z</time>
      </trkpt>
      <trkpt lat="48.36675" lon="2.79232">
        <ele>84.68</ele>
        <time>2022-02-17T14:56:09Z</time>
      </trkpt>
      <trkpt lat="48.36666" lon="2.79234">
        <ele>84.58</ele>
        <time>2022-02-17T14:56:14Z</time>
      </trkpt>
      <trkpt lat="48.36658" lon="2.79235">
        <ele>84.63</ele>
        <time>2022-02-17T14:56:19Z</time>
      </trkpt>
      <trkpt lat="48.36652" lon="2.79237">
        <ele>84.91</ele>
        <time>2022-02-17T14:56:24Z</time>
      </trkpt>
      <trkpt lat="48.36647" lon="2.7924">
        <ele>84.98</ele>
        <time>2022-02-17T14:56:29Z</time>
      </trkpt>
      <trkpt lat="48.36642" lon="2.79244">
        <ele>85</ele>
        <time>2022-02-17T14:56:34Z</time>
      </trkpt>
      <trkpt lat="48.36637" lon="2.79248">
        <ele>85.01</ele>
        <time>2022-02-17T14:56:39Z</time>
      </trkpt>
      <trkpt lat="48.36632" lon="2.7925">
        <ele>84.91</ele>
        <time>2022-02-17T14:56:44Z</time>
      </trkpt>
      <trkpt lat="48.36627" lon="2.79251">
        <ele>84.97</ele>
        <time>2022-02-17T14:56:49Z</time>
      </trkpt>
      <trkpt lat="48.36621" lon="2.79254">
        <ele>85</ele>
        <time>2022-02-17T14:56:54Z</time>
      </trkpt>
      <trkpt lat="48.36617" lon="2.79257">
        <ele>84.89</ele>
        <time>2022-02-17T14:56:59Z</time>
      </trkpt>
      <trkpt lat="48.36612" lon="2.79258">
        <ele>84.73</ele>
        <time>2022-02-17T14:57:04Z</time>
      </trkpt>
      <trkpt lat="48.36608" lon="2.7926">
        <ele>84.58</ele>
        <time>2022-02-17T14:57:09Z</time>
      </trkpt>
      <trkpt lat="48.36605" lon="2.79261">
        <ele>84.35</ele>
        <time>2022-02-17T14:57:14Z</time>
      </trkpt>
      <trkpt lat="48.36598" lon="2.79264">
        <ele>84.23</ele>
        <time>2022-02-17T14:57:19Z</time>
      </trkpt>
      <trkpt lat="48.36593" lon="2.79268">
        <ele>84.18</ele>
        <time>2022-02-17T14:57:24Z</time>
      </trkpt>
      <trkpt lat="48.36591" lon="2.79271">
        <ele>84.23</ele>
        <time>2022-02-17T14:57:29Z</time>
      </trkpt>
      <trkpt lat="48.36584" lon="2.79274">
        <ele>84.11</ele>
        <time>2022-02-17T14:57:34Z</time>
      </trkpt>
      <trkpt lat="48.36579" lon="2.79278">
        <ele>83.91</ele>
        <time>2022-02-17T14:57:39Z</time>
      </trkpt>
      <trkpt lat="48.36572" lon="2.79282">
        <ele>83.79</ele>
        <time>2022-02-17T14:57:44Z</time>
      </trkpt>
      <trkpt lat="48.36568" lon="2.79284">
        <ele>83.41</ele>
        <time>2022-02-17T14:57:49Z</time>
      </trkpt>
      <trkpt lat="48.36561" lon="2.79287">
        <ele>83.05</ele>
        <time>2022-02-17T14:57:54Z</time>
      </trkpt>
      <trkpt lat="48.36557" lon="2.79289">
        <ele>83.23</ele>
        <time>2022-02-17T14:57:59Z</time>
      </trkpt>
      <trkpt lat="48.36548" lon="2.79293">
        <ele>83.6</ele>
        <time>2022-02-17T14:58:04Z</time>
      </trkpt>
      <trkpt lat="48.36542" lon="2.79299">
        <ele>84.16</ele>
        <time>2022-02-17T14:58:09Z</time>
      </trkpt>
      <trkpt lat="48.36539" lon="2.79308">
        <ele>84.19</ele>
        <time>2022-02-17T14:58:14Z</time>
      </trkpt>
      <trkpt lat="48.36535" lon="2.79315">
        <ele>84.11</ele>
        <time>2022-02-17T14:58:19Z</time>
      </trkpt>
      <trkpt lat="48.36534" lon="2.79325">
        <ele>84.14</ele>
        <time>2022-02-17T14:58:24Z</time>
      </trkpt>
      <trkpt lat="48.36534" lon="2.79332">
        <ele>84.19</ele>
        <time>2022-02-17T14:58:29Z</time>
      </trkpt>
      <trkpt lat="48.36534" lon="2.79338">
        <ele>84.16</ele>
        <time>2022-02-17T14:58:34Z</time>
      </trkpt>
      <trkpt lat="48.36538" lon="2.79341">
        <ele>83.96</ele>
        <time>2022-02-17T14:58:39Z</time>
      </trkpt>
      <trkpt lat="48.36538" lon="2.7935">
        <ele>83.92</ele>
        <time>2022-02-17T14:58:45Z</time>
      </trkpt>
      <trkpt lat="48.36539" lon="2.79356">
        <ele>84.2</ele>
        <time>2022-02-17T14:58:50Z</time>
      </trkpt>
      <trkpt lat="48.36538" lon="2.79367">
        <ele>84.25</ele>
        <time>2022-02-17T14:58:55Z</time>
      </trkpt>
      <trkpt lat="48.36537" lon="2.79375">
        <ele>84.44</ele>
        <time>2022-02-17T14:59:00Z</time>
      </trkpt>
      <trkpt lat="48.36538" lon="2.79383">
        <ele>84.6</ele>
        <time>2022-02-17T14:59:05Z</time>
      </trkpt>
      <trkpt lat="48.36541" lon="2.7939">
        <ele>84.64</ele>
        <time>2022-02-17T14:59:10Z</time>
      </trkpt>
      <trkpt lat="48.36544" lon="2.79398">
        <ele>84.55</ele>
        <time>2022-02-17T14:59:15Z</time>
      </trkpt>
      <trkpt lat="48.36545" lon="2.79404">
        <ele>84.5</ele>
        <time>2022-02-17T14:59:20Z</time>
      </trkpt>
      <trkpt lat="48.36545" lon="2.7941">
        <ele>84.59</ele>
        <time>2022-02-17T14:59:25Z</time>
      </trkpt>
      <trkpt lat="48.36544" lon="2.79419">
        <ele>84.7</ele>
        <time>2022-02-17T14:59:30Z</time>
      </trkpt>
      <trkpt lat="48.36543" lon="2.79429">
        <ele>85.1</ele>
        <time>2022-02-17T14:59:35Z</time>
      </trkpt>
      <trkpt lat="48.36543" lon="2.79438">
        <ele>85.31</ele>
        <time>2022-02-17T14:59:40Z</time>
      </trkpt>
      <trkpt lat="48.36544" lon="2.79449">
        <ele>85.35</ele>
        <time>2022-02-17T14:59:45Z</time>
      </trkpt>
      <trkpt lat="48.36544" lon="2.79458">
        <ele>85.36</ele>
        <time>2022-02-17T14:59:50Z</time>
      </trkpt>
      <trkpt lat="48.36547" lon="2.79467">
        <ele>85.4</ele>
        <time>2022-02-17T14:59:55Z</time>
      </trkpt>
      <trkpt lat="48.36548" lon="2.79473">
        <ele>85.18</ele>
        <time>2022-02-17T15:00:00Z</time>
      </trkpt>
      <trkpt lat="48.36546" lon="2.79482">
        <ele>84.78</ele>
        <time>2022-02-17T15:00:05Z</time>
      </trkpt>
      <trkpt lat="48.36544" lon="2.7949">
        <ele>84.39</ele>
        <time>2022-02-17T15:00:10Z</time>
      </trkpt>
      <trkpt lat="48.36549" lon="2.79498">
        <ele>84.1</ele>
        <time>2022-02-17T15:00:15Z</time>
      </trkpt>
      <trkpt lat="48.36549" lon="2.79507">
        <ele>84.06</ele>
        <time>2022-02-17T15:00:20Z</time>
      </trkpt>
      <trkpt lat="48.3655" lon="2.79512">
        <ele>84.04</ele>
        <time>2022-02-17T15:00:25Z</time>
      </trkpt>
      <trkpt lat="48.36551" lon="2.79522">
        <ele>84.28</ele>
        <time>2022-02-17T15:00:30Z</time>
      </trkpt>
      <trkpt lat="48.3655" lon="2.79531">
        <ele>84.32</ele>
        <time>2022-02-17T15:00:35Z</time>
      </trkpt>
      <trkpt lat="48.36552" lon="2.79538">
        <ele>84.26</ele>
        <time>2022-02-17T15:00:40Z</time>
      </trkpt>
      <trkpt lat="48.36553" lon="2.79547">
        <ele>84.45</ele>
        <time>2022-02-17T15:00:45Z</time>
      </trkpt>
      <trkpt lat="48.36554" lon="2.79556">
        <ele>84.42</ele>
        <time>2022-02-17T15:00:50Z</time>
      </trkpt>
      <trkpt lat="48.36555" lon="2.79567">
        <ele>84.17</ele>
        <time>2022-02-17T15:00:55Z</time>
      </trkpt>
      <trkpt lat="48.36554" lon="2.79577">
        <ele>83.87</ele>
        <time>2022-02-17T15:01:00Z</time>
      </trkpt>
      <trkpt lat="48.36557" lon="2.79586">
        <ele>84.01</ele>
        <time>2022-02-17T15:01:05Z</time>
      </trkpt>
      <trkpt lat="48.36555" lon="2.79597">
        <ele>83.82</ele>
        <time>2022-02-17T15:01:10Z</time>
      </trkpt>
      <trkpt lat="48.36559" lon="2.79604">
        <ele>83.58</ele>
        <time>2022-02-17T15:01:15Z</time>
      </trkpt>
      <trkpt lat="48.36557" lon="2.79615">
        <ele>83.46</ele>
        <time>2022-02-17T15:01:20Z</time>
      </trkpt>
      <trkpt lat="48.36562" lon="2.7962">
        <ele>83.58</ele>
        <time>2022-02-17T15:01:25Z</time>
      </trkpt>
      <trkpt lat="48.3656" lon="2.79628">
        <ele>83.81</ele>
        <time>2022-02-17T15:01:30Z</time>
      </trkpt>
      <trkpt lat="48.36558" lon="2.79637">
        <ele>84.05</ele>
        <time>2022-02-17T15:01:35Z</time>
      </trkpt>
      <trkpt lat="48.36558" lon="2.79646">
        <ele>84.12</ele>
        <time>2022-02-17T15:01:40Z</time>
      </trkpt>
      <trkpt lat="48.36562" lon="2.79655">
        <ele>84.24</ele>
        <time>2022-02-17T15:01:45Z</time>
      </trkpt>
      <trkpt lat="48.36559" lon="2.79666">
        <ele>84.32</ele>
        <time>2022-02-17T15:01:50Z</time>
      </trkpt>
      <trkpt lat="48.36561" lon="2.79673">
        <ele>84.3</ele>
        <time>2022-02-17T15:01:55Z</time>
      </trkpt>
      <trkpt lat="48.36565" lon="2.7968">
        <ele>84.34</ele>
        <time>2022-02-17T15:02:00Z</time>
      </trkpt>
      <trkpt lat="48.36566" lon="2.79689">
        <ele>84.29</ele>
        <time>2022-02-17T15:02:05Z</time>
      </trkpt>
      <trkpt lat="48.36568" lon="2.79697">
        <ele>84.33</ele>
        <time>2022-02-17T15:02:10Z</time>
      </trkpt>
      <trkpt lat="48.36569" lon="2.79708">
        <ele>84.36</ele>
        <time>2022-02-17T15:02:15Z</time>
      </trkpt>
      <trkpt lat="48.36576" lon="2.79717">
        <ele>84.34</ele>
        <time>2022-02-17T15:02:20Z</time>
      </trkpt>
      <trkpt lat="48.36575" lon="2.79728">
        <ele>84.39</ele>
        <time>2022-02-17T15:02:25Z</time>
      </trkpt>
      <trkpt lat="48.36573" lon="2.7974">
        <ele>84.47</ele>
        <time>2022-02-17T15:02:30Z</time>
      </trkpt>
      <trkpt lat="48.36576" lon="2.79746">
        <ele>84.49</ele>
        <time>2022-02-17T15:02:35Z</time>
      </trkpt>
      <trkpt lat="48.36577" lon="2.79755">
        <ele>84.62</ele>
        <time>2022-02-17T15:02:40Z</time>
      </trkpt>
      <trkpt lat="48.36576" lon="2.79762">
        <ele>84.72</ele>
        <time>2022-02-17T15:02:45Z</time>
      </trkpt>
      <trkpt lat="48.36579" lon="2.79769">
        <ele>84.76</ele>
        <time>2022-02-17T15:02:50Z</time>
      </trkpt>
      <trkpt lat="48.36579" lon="2.79778">
        <ele>84.99</ele>
        <time>2022-02-17T15:02:55Z</time>
      </trkpt>
      <trkpt lat="48.3658" lon="2.79787">
        <ele>84.83</ele>
        <time>2022-02-17T15:03:00Z</time>
      </trkpt>
      <trkpt lat="48.36579" lon="2.79795">
        <ele>84.94</ele>
        <time>2022-02-17T15:03:05Z</time>
      </trkpt>
      <trkpt lat="48.36582" lon="2.79801">
        <ele>85.01</ele>
        <time>2022-02-17T15:03:10Z</time>
      </trkpt>
      <trkpt lat="48.36586" lon="2.79809">
        <ele>84.9</ele>
        <time>2022-02-17T15:03:15Z</time>
      </trkpt>
      <trkpt lat="48.36588" lon="2.79815">
        <ele>85.31</ele>
        <time>2022-02-17T15:03:20Z</time>
      </trkpt>
      <trkpt lat="48.3659" lon="2.79821">
        <ele>85.8</ele>
        <time>2022-02-17T15:03:25Z</time>
      </trkpt>
      <trkpt lat="48.36589" lon="2.79828">
        <ele>85.83</ele>
        <time>2022-02-17T15:03:30Z</time>
      </trkpt>
      <trkpt lat="48.3659" lon="2.79838">
        <ele>85.99</ele>
        <time>2022-02-17T15:03:35Z</time>
      </trkpt>
      <trkpt lat="48.36592" lon="2.79847">
        <ele>86.03</ele>
        <time>2022-02-17T15:03:40Z</time>
      </trkpt>
      <trkpt lat="48.36594" lon="2.79857">
        <ele>85.82</ele>
        <time>2022-02-17T15:03:45Z</time>
      </trkpt>
      <trkpt lat="48.36594" lon="2.79866">
        <ele>85.51</ele>
        <time>2022-02-17T15:03:50Z</time>
      </trkpt>
      <trkpt lat="48.36596" lon="2.79875">
        <ele>85.84</ele>
        <time>2022-02-17T15:03:55Z</time>
      </trkpt>
      <trkpt lat="48.36599" lon="2.79885">
        <ele>86.15</ele>
        <time>2022-02-17T15:04:00Z</time>
      </trkpt>
      <trkpt lat="48.36599" lon="2.79894">
        <ele>86.21</ele>
        <time>2022-02-17T15:04:05Z</time>
      </trkpt>
      <trkpt lat="48.36599" lon="2.79903">
        <ele>86.08</ele>
        <time>2022-02-17T15:04:10Z</time>
      </trkpt>
      <trkpt lat="48.36598" lon="2.7991">
        <ele>85.88</ele>
        <time>2022-02-17T15:04:15Z</time>
      </trkpt>
      <trkpt lat="48.36598" lon="2.79919">
        <ele>85.91</ele>
        <time>2022-02-17T15:04:20Z</time>
      </trkpt>
      <trkpt lat="48.366" lon="2.79927">
        <ele>85.97</ele>
        <time>2022-02-17T15:04:25Z</time>
      </trkpt>
      <trkpt lat="48.36601" lon="2.79931">
        <ele>86.28</ele>
        <time>2022-02-17T15:04:30Z</time>
      </trkpt>
      <trkpt lat="48.36601" lon="2.79937">
        <ele>86.65</ele>
        <time>2022-02-17T15:04:35Z</time>
      </trkpt>
      <trkpt lat="48.36603" lon="2.79946">
        <ele>86.79</ele>
        <time>2022-02-17T15:04:40Z</time>
      </trkpt>
      <trkpt lat="48.36606" lon="2.79955">
        <ele>86.7</ele>
        <time>2022-02-17T15:04:45Z</time>
      </trkpt>
      <trkpt lat="48.3661" lon="2.79963">
        <ele>86.79</ele>
        <time>2022-02-17T15:04:50Z</time>
      </trkpt>
      <trkpt lat="48.36612" lon="2.79972">
        <ele>87.02</ele>
        <time>2022-02-17T15:04:55Z</time>
      </trkpt>
      <trkpt lat="48.36614" lon="2.79981">
        <ele>87.01</ele>
        <time>2022-02-17T15:05:00Z</time>
      </trkpt>
      <trkpt lat="48.36615" lon="2.79989">
        <ele>87</ele>
        <time>2022-02-17T15:05:05Z</time>
      </trkpt>
      <trkpt lat="48.36614" lon="2.79997">
        <ele>87.03</ele>
        <time>2022-02-17T15:05:10Z</time>
      </trkpt>
      <trkpt lat="48.36613" lon="2.80006">
        <ele>87.17</ele>
        <time>2022-02-17T15:05:15Z</time>
      </trkpt>
      <trkpt lat="48.36614" lon="2.80015">
        <ele>87.36</ele>
        <time>2022-02-17T15:05:20Z</time>
      </trkpt>
      <trkpt lat="48.36617" lon="2.80022">
        <ele>87.53</ele>
        <time>2022-02-17T15:05:25Z</time>
      </trkpt>
      <trkpt lat="48.36618" lon="2.80024">
        <ele>87.67</ele>
        <time>2022-02-17T15:05:30Z</time>
      </trkpt>
      <trkpt lat="48.36619" lon="2.80023">
        <ele>87.68</ele>
        <time>2022-02-17T15:05:35Z</time>
      </trkpt>
      <trkpt lat="48.36619" lon="2.80022">
        <ele>87.7</ele>
        <time>2022-02-17T15:05:40Z</time>
      </trkpt>
      <trkpt lat="48.36617" lon="2.8002">
        <ele>87.73</ele>
        <time>2022-02-17T15:05:45Z</time>
      </trkpt>
      <trkpt lat="48.36614" lon="2.80019">
        <ele>87.73</ele>
        <time>2022-02-17T15:05:50Z</time>
      </trkpt>
      <trkpt lat="48.36612" lon="2.80022">
        <ele>87.73</ele>
        <time>2022-02-17T15:05:55Z</time>
      </trkpt>
      <trkpt lat="48.36612" lon="2.80023">
        <ele>87.69</ele>
        <time>2022-02-17T15:06:00Z</time>
      </trkpt>
      <trkpt lat="48.36613" lon="2.80024">
        <ele>87.68</ele>
        <time>2022-02-17T15:06:05Z</time>
      </trkpt>
      <trkpt lat="48.36613" lon="2.80023">
        <ele>87.65</ele>
        <time>2022-02-17T15:06:10Z</time>
      </trkpt>
      <trkpt lat="48.36613" lon="2.80024">
        <ele>87.5</ele>
        <time>2022-02-17T15:06:15Z</time>
      </trkpt>
      <trkpt lat="48.36613" lon="2.80023">
        <ele>87.61</ele>
        <time>2022-02-17T15:06:20Z</time>
      </trkpt>
      <trkpt lat="48.36613" lon="2.80024">
        <ele>87.57</ele>
        <time>2022-02-17T15:06:25Z</time>
      </trkpt>
      <trkpt lat="48.36613" lon="2.80025">
        <ele>87.59</ele>
        <time>2022-02-17T15:06:30Z</time>
      </trkpt>
      <trkpt lat="48.36614" lon="2.80025">
        <ele>87.79</ele>
        <time>2022-02-17T15:06:35Z</time>
      </trkpt>
      <trkpt lat="48.36613" lon="2.80028">
        <ele>87.79</ele>
        <time>2022-02-17T15:06:40Z</time>
      </trkpt>
      <trkpt lat="48.36615" lon="2.8003">
        <ele>87.79</ele>
        <time>2022-02-17T15:06:45Z</time>
      </trkpt>
      <trkpt lat="48.3661" lon="2.8003">
        <ele>87.79</ele>
        <time>2022-02-17T15:06:50Z</time>
      </trkpt>
      <trkpt lat="48.36606" lon="2.80028">
        <ele>87.79</ele>
        <time>2022-02-17T15:06:55Z</time>
      </trkpt>
      <trkpt lat="48.366" lon="2.80026">
        <ele>87.79</ele>
        <time>2022-02-17T15:07:00Z</time>
      </trkpt>
      <trkpt lat="48.36597" lon="2.80029">
        <ele>87.79</ele>
        <time>2022-02-17T15:07:05Z</time>
      </trkpt>
      <trkpt lat="48.36598" lon="2.80031">
        <ele>87.79</ele>
        <time>2022-02-17T15:07:10Z</time>
      </trkpt>
      <trkpt lat="48.36599" lon="2.80032">
        <ele>87.79</ele>
        <time>2022-02-17T15:07:15Z</time>
      </trkpt>
      <trkpt lat="48.36601" lon="2.80032">
        <ele>87.79</ele>
        <time>2022-02-17T15:07:20Z</time>
      </trkpt>
      <trkpt lat="48.36602" lon="2.80033">
        <ele>87.79</ele>
        <time>2022-02-17T15:07:25Z</time>
      </trkpt>
      <trkpt lat="48.36604" lon="2.80033">
        <ele>87.79</ele>
        <time>2022-02-17T15:07:30Z</time>
      </trkpt>
      <trkpt lat="48.36604" lon="2.80032">
        <ele>87.79</ele>
        <time>2022-02-17T15:07:35Z</time>
      </trkpt>
      <trkpt lat="48.36604" lon="2.80032">
        <ele>87.79</ele>
        <time>2022-02-17T15:07:40Z</time>
      </trkpt>
      <trkpt lat="48.36603" lon="2.8003">
        <ele>87.79</ele>
        <time>2022-02-17T15:07:45Z</time>
      </trkpt>
      <trkpt lat="48.36604" lon="2.80028">
        <ele>87.79</ele>
        <time>2022-02-17T15:07:50Z</time>
      </trkpt>
      <trkpt lat="48.36605" lon="2.80027">
        <ele>87.79</ele>
        <time>2022-02-17T15:07:55Z</time>
      </trkpt>
      <trkpt lat="48.36605" lon="2.80027">
        <ele>87.79</ele>
        <time>2022-02-17T15:08:00Z</time>
      </trkpt>
      <trkpt lat="48.36605" lon="2.80026">
        <ele>87.79</ele>
        <time>2022-02-17T15:08:05Z</time>
      </trkpt>
      <trkpt lat="48.36605" lon="2.80024">
        <ele>87.79</ele>
        <time>2022-02-17T15:08:10Z</time>
      </trkpt>
      <trkpt lat="48.36605" lon="2.80024">
        <ele>87.79</ele>
        <time>2022-02-17T15:08:15Z</time>
      </trkpt>
      <trkpt lat="48.36605" lon="2.80024">
        <ele>87.79</ele>
        <time>2022-02-17T15:08:20Z</time>
      </trkpt>
      <trkpt lat="48.36605" lon="2.80023">
        <ele>87.79</ele>
        <time>2022-02-17T15:08:25Z</time>
      </trkpt>
      <trkpt lat="48.36604" lon="2.80022">
        <ele>87.79</ele>
        <time>2022-02-17T15:08:30Z</time>
      </trkpt>
      <trkpt lat="48.36605" lon="2.80022">
        <ele>87.79</ele>
        <time>2022-02-17T15:08:35Z</time>
      </trkpt>
      <trkpt lat="48.36611" lon="2.80023">
        <ele>87.79</ele>
        <time>2022-02-17T15:08:40Z</time>
      </trkpt>
      <trkpt lat="48.36616" lon="2.80024">
        <ele>87.79</ele>
        <time>2022-02-17T15:08:45Z</time>
      </trkpt>
      <trkpt lat="48.36617" lon="2.80025">
        <ele>87.79</ele>
        <time>2022-02-17T15:08:50Z</time>
      </trkpt>
      <trkpt lat="48.36617" lon="2.80025">
        <ele>87.79</ele>
        <time>2022-02-17T15:08:55Z</time>
      </trkpt>
      <trkpt lat="48.36617" lon="2.80025">
        <ele>87.79</ele>
        <time>2022-02-17T15:09:00Z</time>
      </trkpt>
      <trkpt lat="48.36617" lon="2.80025">
        <ele>87.79</ele>
        <time>2022-02-17T15:09:05Z</time>
      </trkpt>
      <trkpt lat="48.36619" lon="2.80024">
        <ele>87.79</ele>
        <time>2022-02-17T15:09:10Z</time>
      </trkpt>
      <trkpt lat="48.36618" lon="2.80022">
        <ele>87.79</ele>
        <time>2022-02-17T15:09:15Z</time>
      </trkpt>
      <trkpt lat="48.36617" lon="2.80023">
        <ele>87.79</ele>
        <time>2022-02-17T15:09:20Z</time>
      </trkpt>
      <trkpt lat="48.36615" lon="2.80025">
        <ele>87.79</ele>
        <time>2022-02-17T15:09:25Z</time>
      </trkpt>
      <trkpt lat="48.36615" lon="2.80027">
        <ele>87.79</ele>
        <time>2022-02-17T15:09:30Z</time>
      </trkpt>
      <trkpt lat="48.36614" lon="2.80028">
        <ele>87.79</ele>
        <time>2022-02-17T15:09:35Z</time>
      </trkpt>
      <trkpt lat="48.36613" lon="2.80028">
        <ele>87.79</ele>
        <time>2022-02-17T15:09:40Z</time>
      </trkpt>
      <trkpt lat="48.36607" lon="2.80031">
        <ele>87.79</ele>
        <time>2022-02-17T15:09:45Z</time>
      </trkpt>
      <trkpt lat="48.36605" lon="2.80033">
        <ele>87.79</ele>
        <time>2022-02-17T15:09:50Z</time>
      </trkpt>
      <trkpt lat="48.36603" lon="2.80035">
        <ele>87.79</ele>
        <time>2022-02-17T15:09:55Z</time>
      </trkpt>
      <trkpt lat="48.36603" lon="2.80034">
        <ele>87.79</ele>
        <time>2022-02-17T15:10:00Z</time>
      </trkpt>
      <trkpt lat="48.36602" lon="2.80034">
        <ele>87.79</ele>
        <time>2022-02-17T15:10:05Z</time>
      </trkpt>
      <trkpt lat="48.36601" lon="2.80034">
        <ele>87.79</ele>
        <time>2022-02-17T15:10:10Z</time>
      </trkpt>
      <trkpt lat="48.36602" lon="2.80034">
        <ele>87.79</ele>
        <time>2022-02-17T15:10:15Z</time>
      </trkpt>
      <trkpt lat="48.36604" lon="2.80033">
        <ele>87.79</ele>
        <time>2022-02-17T15:10:20Z</time>
      </trkpt>
      <trkpt lat="48.36604" lon="2.80032">
        <ele>87.79</ele>
        <time>2022-02-17T15:10:25Z</time>
      </trkpt>
      <trkpt lat="48.36604" lon="2.80032">
        <ele>87.79</ele>
        <time>2022-02-17T15:10:30Z</time>
      </trkpt>
      <trkpt lat="48.36603" lon="2.80032">
        <ele>87.79</ele>
        <time>2022-02-17T15:10:35Z</time>
      </trkpt>
      <trkpt lat="48.36606" lon="2.80031">
        <ele>87.79</ele>
        <time>2022-02-17T15:10:40Z</time>
      </trkpt>
      <trkpt lat="48.36606" lon="2.80029">
        <ele>87.79</ele>
        <time>2022-02-17T15:10:45Z</time>
      </trkpt>
      <trkpt lat="48.36607" lon="2.80029">
        <ele>87.79</ele>
        <time>2022-02-17T15:10:50Z</time>
      </trkpt>
      <trkpt lat="48.36608" lon="2.80027">
        <ele>87.79</ele>
        <time>2022-02-17T15:10:55Z</time>
      </trkpt>
      <trkpt lat="48.36609" lon="2.80025">
        <ele>87.79</ele>
        <time>2022-02-17T15:11:00Z</time>
      </trkpt>
      <trkpt lat="48.3661" lon="2.80025">
        <ele>87.79</ele>
        <time>2022-02-17T15:11:05Z</time>
      </trkpt>
      <trkpt lat="48.36611" lon="2.80026">
        <ele>87.79</ele>
        <time>2022-02-17T15:11:10Z</time>
      </trkpt>
      <trkpt lat="48.36611" lon="2.80027">
        <ele>87.79</ele>
        <time>2022-02-17T15:11:15Z</time>
      </trkpt>
      <trkpt lat="48.36611" lon="2.80028">
        <ele>87.79</ele>
        <time>2022-02-17T15:11:20Z</time>
      </trkpt>
      <trkpt lat="48.36612" lon="2.80027">
        <ele>87.79</ele>
        <time>2022-02-17T15:11:25Z</time>
      </trkpt>
      <trkpt lat="48.36613" lon="2.80027">
        <ele>87.79</ele>
        <time>2022-02-17T15:11:30Z</time>
      </trkpt>
      <trkpt lat="48.36613" lon="2.80025">
        <ele>87.79</ele>
        <time>2022-02-17T15:11:35Z</time>
      </trkpt>
      <trkpt lat="48.36615" lon="2.80025">
        <ele>87.79</ele>
        <time>2022-02-17T15:11:40Z</time>
      </trkpt>
      <trkpt lat="48.36616" lon="2.80023">
        <ele>87.79</ele>
        <time>2022-02-17T15:11:45Z</time>
      </trkpt>
      <trkpt lat="48.36617" lon="2.80023">
        <ele>87.79</ele>
        <time>2022-02-17T15:11:50Z</time>
      </trkpt>
      <trkpt lat="48.36617" lon="2.80022">
        <ele>87.79</ele>
        <time>2022-02-17T15:11:55Z</time>
      </trkpt>
      <trkpt lat="48.36616" lon="2.80022">
        <ele>87.79</ele>
        <time>2022-02-17T15:12:00Z</time>
      </trkpt>
      <trkpt lat="48.36615" lon="2.80022">
        <ele>87.79</ele>
        <time>2022-02-17T15:12:05Z</time>
      </trkpt>
      <trkpt lat="48.36614" lon="2.80021">
        <ele>87.79</ele>
        <time>2022-02-17T15:12:10Z</time>
      </trkpt>
      <trkpt lat="48.36616" lon="2.80023">
        <ele>87.79</ele>
        <time>2022-02-17T15:12:15Z</time>
      </trkpt>
      <trkpt lat="48.36616" lon="2.80025">
        <ele>87.79</ele>
        <time>2022-02-17T15:12:20Z</time>
      </trkpt>
      <trkpt lat="48.36614" lon="2.80029">
        <ele>87.79</ele>
        <time>2022-02-17T15:12:25Z</time>
      </trkpt>
      <trkpt lat="48.3661" lon="2.80034">
        <ele>87.79</ele>
        <time>2022-02-17T15:12:30Z</time>
      </trkpt>
      <trkpt lat="48.36607" lon="2.80037">
        <ele>87.79</ele>
        <time>2022-02-17T15:12:35Z</time>
      </trkpt>
      <trkpt lat="48.36605" lon="2.8004">
        <ele>87.79</ele>
        <time>2022-02-17T15:12:40Z</time>
      </trkpt>
      <trkpt lat="48.366" lon="2.80043">
        <ele>87.79</ele>
        <time>2022-02-17T15:12:45Z</time>
      </trkpt>
      <trkpt lat="48.36597" lon="2.80045">
        <ele>87.79</ele>
        <time>2022-02-17T15:12:50Z</time>
      </trkpt>
      <trkpt lat="48.3659" lon="2.80048">
        <ele>87.79</ele>
        <time>2022-02-17T15:12:55Z</time>
      </trkpt>
      <trkpt lat="48.36585" lon="2.80051">
        <ele>87.79</ele>
        <time>2022-02-17T15:13:00Z</time>
      </trkpt>
      <trkpt lat="48.36581" lon="2.80054">
        <ele>87.79</ele>
        <time>2022-02-17T15:13:05Z</time>
      </trkpt>
      <trkpt lat="48.36577" lon="2.80058">
        <ele>87.79</ele>
        <time>2022-02-17T15:13:10Z</time>
      </trkpt>
      <trkpt lat="48.36572" lon="2.80063">
        <ele>87.94</ele>
        <time>2022-02-17T15:13:15Z</time>
      </trkpt>
      <trkpt lat="48.36567" lon="2.80067">
        <ele>88.91</ele>
        <time>2022-02-17T15:13:20Z</time>
      </trkpt>
      <trkpt lat="48.36564" lon="2.8007">
        <ele>88.95</ele>
        <time>2022-02-17T15:13:25Z</time>
      </trkpt>
      <trkpt lat="48.36559" lon="2.80074">
        <ele>88.96</ele>
        <time>2022-02-17T15:13:30Z</time>
      </trkpt>
      <trkpt lat="48.36556" lon="2.80077">
        <ele>88.84</ele>
        <time>2022-02-17T15:13:35Z</time>
      </trkpt>
      <trkpt lat="48.36549" lon="2.80081">
        <ele>88.82</ele>
        <time>2022-02-17T15:13:40Z</time>
      </trkpt>
      <trkpt lat="48.36548" lon="2.80083">
        <ele>88.66</ele>
        <time>2022-02-17T15:13:45Z</time>
      </trkpt>
      <trkpt lat="48.36542" lon="2.80087">
        <ele>88.47</ele>
        <time>2022-02-17T15:13:50Z</time>
      </trkpt>
      <trkpt lat="48.36538" lon="2.80091">
        <ele>88.3</ele>
        <time>2022-02-17T15:13:55Z</time>
      </trkpt>
      <trkpt lat="48.36533" lon="2.80096">
        <ele>88.22</ele>
        <time>2022-02-17T15:14:00Z</time>
      </trkpt>
      <trkpt lat="48.3653" lon="2.80098">
        <ele>88.12</ele>
        <time>2022-02-17T15:14:05Z</time>
      </trkpt>
      <trkpt lat="48.36525" lon="2.80101">
        <ele>88</ele>
        <time>2022-02-17T15:14:10Z</time>
      </trkpt>
      <trkpt lat="48.36519" lon="2.80105">
        <ele>87.86</ele>
        <time>2022-02-17T15:14:15Z</time>
      </trkpt>
      <trkpt lat="48.36514" lon="2.80109">
        <ele>87.75</ele>
        <time>2022-02-17T15:14:20Z</time>
      </trkpt>
      <trkpt lat="48.36509" lon="2.80112">
        <ele>87.57</ele>
        <time>2022-02-17T15:14:25Z</time>
      </trkpt>
      <trkpt lat="48.36504" lon="2.80115">
        <ele>87.51</ele>
        <time>2022-02-17T15:14:30Z</time>
      </trkpt>
      <trkpt lat="48.365" lon="2.80118">
        <ele>87.51</ele>
        <time>2022-02-17T15:14:35Z</time>
      </trkpt>
      <trkpt lat="48.36494" lon="2.80121">
        <ele>87.49</ele>
        <time>2022-02-17T15:14:40Z</time>
      </trkpt>
      <trkpt lat="48.36489" lon="2.80123">
        <ele>87.41</ele>
        <time>2022-02-17T15:14:45Z</time>
      </trkpt>
      <trkpt lat="48.36485" lon="2.80125">
        <ele>87.33</ele>
        <time>2022-02-17T15:14:50Z</time>
      </trkpt>
      <trkpt lat="48.3648" lon="2.80128">
        <ele>87.17</ele>
        <time>2022-02-17T15:14:55Z</time>
      </trkpt>
      <trkpt lat="48.36476" lon="2.80132">
        <ele>86.97</ele>
        <time>2022-02-17T15:15:00Z</time>
      </trkpt>
      <trkpt lat="48.36472" lon="2.80137">
        <ele>86.77</ele>
        <time>2022-02-17T15:15:05Z</time>
      </trkpt>
      <trkpt lat="48.36465" lon="2.80142">
        <ele>86.54</ele>
        <time>2022-02-17T15:15:10Z</time>
      </trkpt>
      <trkpt lat="48.36462" lon="2.80145">
        <ele>86.29</ele>
        <time>2022-02-17T15:15:15Z</time>
      </trkpt>
      <trkpt lat="48.36457" lon="2.80147">
        <ele>85.98</ele>
        <time>2022-02-17T15:15:20Z</time>
      </trkpt>
      <trkpt lat="48.36452" lon="2.8015">
        <ele>85.77</ele>
        <time>2022-02-17T15:15:25Z</time>
      </trkpt>
      <trkpt lat="48.36446" lon="2.80151">
        <ele>85.62</ele>
        <time>2022-02-17T15:15:30Z</time>
      </trkpt>
      <trkpt lat="48.3644" lon="2.80153">
        <ele>85.42</ele>
        <time>2022-02-17T15:15:35Z</time>
      </trkpt>
      <trkpt lat="48.36434" lon="2.80157">
        <ele>85.27</ele>
        <time>2022-02-17T15:15:40Z</time>
      </trkpt>
      <trkpt lat="48.36427" lon="2.80159">
        <ele>85.16</ele>
        <time>2022-02-17T15:15:45Z</time>
      </trkpt>
      <trkpt lat="48.36419" lon="2.80162">
        <ele>84.87</ele>
        <time>2022-02-17T15:15:50Z</time>
      </trkpt>
      <trkpt lat="48.3641" lon="2.80169">
        <ele>84.49</ele>
        <time>2022-02-17T15:15:55Z</time>
      </trkpt>
      <trkpt lat="48.36405" lon="2.80171">
        <ele>84.23</ele>
        <time>2022-02-17T15:16:00Z</time>
      </trkpt>
      <trkpt lat="48.36401" lon="2.80172">
        <ele>84.07</ele>
        <time>2022-02-17T15:16:05Z</time>
      </trkpt>
      <trkpt lat="48.36397" lon="2.80173">
        <ele>83.82</ele>
        <time>2022-02-17T15:16:10Z</time>
      </trkpt>
      <trkpt lat="48.36392" lon="2.80174">
        <ele>83.97</ele>
        <time>2022-02-17T15:16:15Z</time>
      </trkpt>
      <trkpt lat="48.36387" lon="2.80175">
        <ele>83.87</ele>
        <time>2022-02-17T15:16:20Z</time>
      </trkpt>
      <trkpt lat="48.36382" lon="2.80176">
        <ele>83.64</ele>
        <time>2022-02-17T15:16:25Z</time>
      </trkpt>
      <trkpt lat="48.36379" lon="2.80176">
        <ele>83.3</ele>
        <time>2022-02-17T15:16:30Z</time>
      </trkpt>
      <trkpt lat="48.36376" lon="2.80179">
        <ele>82.72</ele>
        <time>2022-02-17T15:16:35Z</time>
      </trkpt>
      <trkpt lat="48.36371" lon="2.80184">
        <ele>82.61</ele>
        <time>2022-02-17T15:16:40Z</time>
      </trkpt>
      <trkpt lat="48.36366" lon="2.80186">
        <ele>82.51</ele>
        <time>2022-02-17T15:16:45Z</time>
      </trkpt>
      <trkpt lat="48.36361" lon="2.80188">
        <ele>82.52</ele>
        <time>2022-02-17T15:16:50Z</time>
      </trkpt>
      <trkpt lat="48.36357" lon="2.8019">
        <ele>82.58</ele>
        <time>2022-02-17T15:16:55Z</time>
      </trkpt>
      <trkpt lat="48.3635" lon="2.80195">
        <ele>82.61</ele>
        <time>2022-02-17T15:17:00Z</time>
      </trkpt>
      <trkpt lat="48.36345" lon="2.80199">
        <ele>82.6</ele>
        <time>2022-02-17T15:17:05Z</time>
      </trkpt>
      <trkpt lat="48.3634" lon="2.80199">
        <ele>82.68</ele>
        <time>2022-02-17T15:17:10Z</time>
      </trkpt>
      <trkpt lat="48.36335" lon="2.80198">
        <ele>82.44</ele>
        <time>2022-02-17T15:17:15Z</time>
      </trkpt>
      <trkpt lat="48.36334" lon="2.80196">
        <ele>82.33</ele>
        <time>2022-02-17T15:17:20Z</time>
      </trkpt>
      <trkpt lat="48.36332" lon="2.80195">
        <ele>81.8</ele>
        <time>2022-02-17T15:17:25Z</time>
      </trkpt>
      <trkpt lat="48.36329" lon="2.80196">
        <ele>81.24</ele>
        <time>2022-02-17T15:17:30Z</time>
      </trkpt>
      <trkpt lat="48.36322" lon="2.80198">
        <ele>81.11</ele>
        <time>2022-02-17T15:17:35Z</time>
      </trkpt>
      <trkpt lat="48.36317" lon="2.80197">
        <ele>80.89</ele>
        <time>2022-02-17T15:17:40Z</time>
      </trkpt>
      <trkpt lat="48.36311" lon="2.80199">
        <ele>80.5</ele>
        <time>2022-02-17T15:17:45Z</time>
      </trkpt>
      <trkpt lat="48.36302" lon="2.80199">
        <ele>80.12</ele>
        <time>2022-02-17T15:17:50Z</time>
      </trkpt>
      <trkpt lat="48.36297" lon="2.80198">
        <ele>79.66</ele>
        <time>2022-02-17T15:17:55Z</time>
      </trkpt>
      <trkpt lat="48.3629" lon="2.80198">
        <ele>79.17</ele>
        <time>2022-02-17T15:18:00Z</time>
      </trkpt>
      <trkpt lat="48.36283" lon="2.80199">
        <ele>78.7</ele>
        <time>2022-02-17T15:18:05Z</time>
      </trkpt>
      <trkpt lat="48.36276" lon="2.802">
        <ele>78.45</ele>
        <time>2022-02-17T15:18:10Z</time>
      </trkpt>
      <trkpt lat="48.3627" lon="2.80202">
        <ele>78.33</ele>
        <time>2022-02-17T15:18:15Z</time>
      </trkpt>
      <trkpt lat="48.36264" lon="2.80204">
        <ele>78.28</ele>
        <time>2022-02-17T15:18:20Z</time>
      </trkpt>
      <trkpt lat="48.36259" lon="2.80205">
        <ele>78.06</ele>
        <time>2022-02-17T15:18:25Z</time>
      </trkpt>
      <trkpt lat="48.36255" lon="2.80207">
        <ele>77.8</ele>
        <time>2022-02-17T15:18:30Z</time>
      </trkpt>
      <trkpt lat="48.36252" lon="2.80206">
        <ele>77.62</ele>
        <time>2022-02-17T15:18:35Z</time>
      </trkpt>
      <trkpt lat="48.36244" lon="2.80207">
        <ele>77.05</ele>
        <time>2022-02-17T15:18:40Z</time>
      </trkpt>
      <trkpt lat="48.36237" lon="2.80209">
        <ele>76.33</ele>
        <time>2022-02-17T15:18:45Z</time>
      </trkpt>
      <trkpt lat="48.36231" lon="2.80209">
        <ele>75.73</ele>
        <time>2022-02-17T15:18:50Z</time>
      </trkpt>
      <trkpt lat="48.36227" lon="2.80211">
        <ele>75.51</ele>
        <time>2022-02-17T15:18:55Z</time>
      </trkpt>
      <trkpt lat="48.36226" lon="2.80211">
        <ele>75.45</ele>
        <time>2022-02-17T15:19:00Z</time>
      </trkpt>
      <trkpt lat="48.36227" lon="2.80214">
        <ele>75.41</ele>
        <time>2022-02-17T15:19:05Z</time>
      </trkpt>
      <trkpt lat="48.36227" lon="2.80222">
        <ele>75.43</ele>
        <time>2022-02-17T15:19:10Z</time>
      </trkpt>
      <trkpt lat="48.36227" lon="2.80229">
        <ele>75.36</ele>
        <time>2022-02-17T15:19:15Z</time>
      </trkpt>
      <trkpt lat="48.36228" lon="2.80237">
        <ele>75.13</ele>
        <time>2022-02-17T15:19:20Z</time>
      </trkpt>
      <trkpt lat="48.3623" lon="2.80243">
        <ele>75</ele>
        <time>2022-02-17T15:19:25Z</time>
      </trkpt>
      <trkpt lat="48.36233" lon="2.80248">
        <ele>75.06</ele>
        <time>2022-02-17T15:19:30Z</time>
      </trkpt>
      <trkpt lat="48.36234" lon="2.80255">
        <ele>75.18</ele>
        <time>2022-02-17T15:19:35Z</time>
      </trkpt>
      <trkpt lat="48.36238" lon="2.80258">
        <ele>75.2</ele>
        <time>2022-02-17T15:19:40Z</time>
      </trkpt>
      <trkpt lat="48.36239" lon="2.80264">
        <ele>75.11</ele>
        <time>2022-02-17T15:19:45Z</time>
      </trkpt>
      <trkpt lat="48.3624" lon="2.80271">
        <ele>75.19</ele>
        <time>2022-02-17T15:19:50Z</time>
      </trkpt>
      <trkpt lat="48.36242" lon="2.80275">
        <ele>75.27</ele>
        <time>2022-02-17T15:19:55Z</time>
      </trkpt>
      <trkpt lat="48.36245" lon="2.80281">
        <ele>75.44</ele>
        <time>2022-02-17T15:20:00Z</time>
      </trkpt>
      <trkpt lat="48.36248" lon="2.80287">
        <ele>75.42</ele>
        <time>2022-02-17T15:20:05Z</time>
      </trkpt>
      <trkpt lat="48.36248" lon="2.80294">
        <ele>75.21</ele>
        <time>2022-02-17T15:20:10Z</time>
      </trkpt>
      <trkpt lat="48.3625" lon="2.80302">
        <ele>75.21</ele>
        <time>2022-02-17T15:20:15Z</time>
      </trkpt>
      <trkpt lat="48.36254" lon="2.80309">
        <ele>75.21</ele>
        <time>2022-02-17T15:20:20Z</time>
      </trkpt>
      <trkpt lat="48.36258" lon="2.80316">
        <ele>75.21</ele>
        <time>2022-02-17T15:20:25Z</time>
      </trkpt>
      <trkpt lat="48.36263" lon="2.80321">
        <ele>75.21</ele>
        <time>2022-02-17T15:20:30Z</time>
      </trkpt>
      <trkpt lat="48.36267" lon="2.80328">
        <ele>75.21</ele>
        <time>2022-02-17T15:20:35Z</time>
      </trkpt>
      <trkpt lat="48.36272" lon="2.80335">
        <ele>75.21</ele>
        <time>2022-02-17T15:20:40Z</time>
      </trkpt>
      <trkpt lat="48.36276" lon="2.80341">
        <ele>75.21</ele>
        <time>2022-02-17T15:20:45Z</time>
      </trkpt>
      <trkpt lat="48.36279" lon="2.80347">
        <ele>75.21</ele>
        <time>2022-02-17T15:20:50Z</time>
      </trkpt>
      <trkpt lat="48.36283" lon="2.80352">
        <ele>75.21</ele>
        <time>2022-02-17T15:20:55Z</time>
      </trkpt>
      <trkpt lat="48.36289" lon="2.80356">
        <ele>75.21</ele>
        <time>2022-02-17T15:21:00Z</time>
      </trkpt>
      <trkpt lat="48.36293" lon="2.80362">
        <ele>75.21</ele>
        <time>2022-02-17T15:21:05Z</time>
      </trkpt>
      <trkpt lat="48.36296" lon="2.80369">
        <ele>75.21</ele>
        <time>2022-02-17T15:21:10Z</time>
      </trkpt>
      <trkpt lat="48.36301" lon="2.80375">
        <ele>75.21</ele>
        <time>2022-02-17T15:21:15Z</time>
      </trkpt>
      <trkpt lat="48.36306" lon="2.80381">
        <ele>75.21</ele>
        <time>2022-02-17T15:21:20Z</time>
      </trkpt>
      <trkpt lat="48.3631" lon="2.80388">
        <ele>75.21</ele>
        <time>2022-02-17T15:21:25Z</time>
      </trkpt>
      <trkpt lat="48.36314" lon="2.80391">
        <ele>74.39</ele>
        <time>2022-02-17T15:21:30Z</time>
      </trkpt>
      <trkpt lat="48.36315" lon="2.80398">
        <ele>74.3</ele>
        <time>2022-02-17T15:21:35Z</time>
      </trkpt>
      <trkpt lat="48.36318" lon="2.80404">
        <ele>74.33</ele>
        <time>2022-02-17T15:21:40Z</time>
      </trkpt>
      <trkpt lat="48.36323" lon="2.80411">
        <ele>74.59</ele>
        <time>2022-02-17T15:21:45Z</time>
      </trkpt>
      <trkpt lat="48.36325" lon="2.80417">
        <ele>74.9</ele>
        <time>2022-02-17T15:21:50Z</time>
      </trkpt>
      <trkpt lat="48.36327" lon="2.80424">
        <ele>74.93</ele>
        <time>2022-02-17T15:21:55Z</time>
      </trkpt>
      <trkpt lat="48.36327" lon="2.80427">
        <ele>74.7</ele>
        <time>2022-02-17T15:22:00Z</time>
      </trkpt>
      <trkpt lat="48.36332" lon="2.80431">
        <ele>74.56</ele>
        <time>2022-02-17T15:22:05Z</time>
      </trkpt>
      <trkpt lat="48.36336" lon="2.80437">
        <ele>74.52</ele>
        <time>2022-02-17T15:22:10Z</time>
      </trkpt>
      <trkpt lat="48.36339" lon="2.80442">
        <ele>74.48</ele>
        <time>2022-02-17T15:22:15Z</time>
      </trkpt>
      <trkpt lat="48.36342" lon="2.80446">
        <ele>74.58</ele>
        <time>2022-02-17T15:22:20Z</time>
      </trkpt>
      <trkpt lat="48.36346" lon="2.80454">
        <ele>74.61</ele>
        <time>2022-02-17T15:22:25Z</time>
      </trkpt>
      <trkpt lat="48.36349" lon="2.80463">
        <ele>74.57</ele>
        <time>2022-02-17T15:22:30Z</time>
      </trkpt>
      <trkpt lat="48.36353" lon="2.8047">
        <ele>74.56</ele>
        <time>2022-02-17T15:22:35Z</time>
      </trkpt>
      <trkpt lat="48.36355" lon="2.80479">
        <ele>74.65</ele>
        <time>2022-02-17T15:22:40Z</time>
      </trkpt>
      <trkpt lat="48.36359" lon="2.80484">
        <ele>74.62</ele>
        <time>2022-02-17T15:22:45Z</time>
      </trkpt>
      <trkpt lat="48.36365" lon="2.80488">
        <ele>74.54</ele>
        <time>2022-02-17T15:22:50Z</time>
      </trkpt>
      <trkpt lat="48.3637" lon="2.80496">
        <ele>74.52</ele>
        <time>2022-02-17T15:22:55Z</time>
      </trkpt>
      <trkpt lat="48.36373" lon="2.80503">
        <ele>74.54</ele>
        <time>2022-02-17T15:23:00Z</time>
      </trkpt>
      <trkpt lat="48.36376" lon="2.8051">
        <ele>74.45</ele>
        <time>2022-02-17T15:23:05Z</time>
      </trkpt>
      <trkpt lat="48.3638" lon="2.80515">
        <ele>74.4</ele>
        <time>2022-02-17T15:23:10Z</time>
      </trkpt>
      <trkpt lat="48.36386" lon="2.8052">
        <ele>74.44</ele>
        <time>2022-02-17T15:23:15Z</time>
      </trkpt>
      <trkpt lat="48.3639" lon="2.80525">
        <ele>74.71</ele>
        <time>2022-02-17T15:23:20Z</time>
      </trkpt>
      <trkpt lat="48.36393" lon="2.80529">
        <ele>74.8</ele>
        <time>2022-02-17T15:23:25Z</time>
      </trkpt>
      <trkpt lat="48.36396" lon="2.80536">
        <ele>74.68</ele>
        <time>2022-02-17T15:23:30Z</time>
      </trkpt>
      <trkpt lat="48.36401" lon="2.80543">
        <ele>74.68</ele>
        <time>2022-02-17T15:23:35Z</time>
      </trkpt>
      <trkpt lat="48.36407" lon="2.80549">
        <ele>74.68</ele>
        <time>2022-02-17T15:23:40Z</time>
      </trkpt>
      <trkpt lat="48.3641" lon="2.80554">
        <ele>74.68</ele>
        <time>2022-02-17T15:23:45Z</time>
      </trkpt>
      <trkpt lat="48.36413" lon="2.80559">
        <ele>74.68</ele>
        <time>2022-02-17T15:23:50Z</time>
      </trkpt>
      <trkpt lat="48.36416" lon="2.80564">
        <ele>74.68</ele>
        <time>2022-02-17T15:23:55Z</time>
      </trkpt>
      <trkpt lat="48.36421" lon="2.80567">
        <ele>75.07</ele>
        <time>2022-02-17T15:24:00Z</time>
      </trkpt>
      <trkpt lat="48.36424" lon="2.8057">
        <ele>75.69</ele>
        <time>2022-02-17T15:24:05Z</time>
      </trkpt>
      <trkpt lat="48.36428" lon="2.80576">
        <ele>75.85</ele>
        <time>2022-02-17T15:24:10Z</time>
      </trkpt>
      <trkpt lat="48.3643" lon="2.80582">
        <ele>76.09</ele>
        <time>2022-02-17T15:24:15Z</time>
      </trkpt>
      <trkpt lat="48.36436" lon="2.80592">
        <ele>76.27</ele>
        <time>2022-02-17T15:24:20Z</time>
      </trkpt>
      <trkpt lat="48.36442" lon="2.80598">
        <ele>76.5</ele>
        <time>2022-02-17T15:24:25Z</time>
      </trkpt>
      <trkpt lat="48.36444" lon="2.80603">
        <ele>76.71</ele>
        <time>2022-02-17T15:24:30Z</time>
      </trkpt>
      <trkpt lat="48.36446" lon="2.80605">
        <ele>76.79</ele>
        <time>2022-02-17T15:24:35Z</time>
      </trkpt>
      <trkpt lat="48.36452" lon="2.80612">
        <ele>76.97</ele>
        <time>2022-02-17T15:24:40Z</time>
      </trkpt>
      <trkpt lat="48.36457" lon="2.80621">
        <ele>77.23</ele>
        <time>2022-02-17T15:24:45Z</time>
      </trkpt>
      <trkpt lat="48.36459" lon="2.80626">
        <ele>77.65</ele>
        <time>2022-02-17T15:24:50Z</time>
      </trkpt>
      <trkpt lat="48.3646" lon="2.80635">
        <ele>78.07</ele>
        <time>2022-02-17T15:24:55Z</time>
      </trkpt>
      <trkpt lat="48.36461" lon="2.80646">
        <ele>78.56</ele>
        <time>2022-02-17T15:25:00Z</time>
      </trkpt>
      <trkpt lat="48.36466" lon="2.8065">
        <ele>78.74</ele>
        <time>2022-02-17T15:25:05Z</time>
      </trkpt>
      <trkpt lat="48.36469" lon="2.80654">
        <ele>78.77</ele>
        <time>2022-02-17T15:25:10Z</time>
      </trkpt>
      <trkpt lat="48.36473" lon="2.80657">
        <ele>79.05</ele>
        <time>2022-02-17T15:25:15Z</time>
      </trkpt>
      <trkpt lat="48.36476" lon="2.80662">
        <ele>79.53</ele>
        <time>2022-02-17T15:25:20Z</time>
      </trkpt>
      <trkpt lat="48.36476" lon="2.80668">
        <ele>80.06</ele>
        <time>2022-02-17T15:25:25Z</time>
      </trkpt>
      <trkpt lat="48.36478" lon="2.80673">
        <ele>80.41</ele>
        <time>2022-02-17T15:25:30Z</time>
      </trkpt>
      <trkpt lat="48.36479" lon="2.80677">
        <ele>80.57</ele>
        <time>2022-02-17T15:25:35Z</time>
      </trkpt>
      <trkpt lat="48.3648" lon="2.80678">
        <ele>80.59</ele>
        <time>2022-02-17T15:25:40Z</time>
      </trkpt>
      <trkpt lat="48.3648" lon="2.80679">
        <ele>80.71</ele>
        <time>2022-02-17T15:25:45Z</time>
      </trkpt>
      <trkpt lat="48.36482" lon="2.80681">
        <ele>80.97</ele>
        <time>2022-02-17T15:25:50Z</time>
      </trkpt>
      <trkpt lat="48.36486" lon="2.80681">
        <ele>81</ele>
        <time>2022-02-17T15:25:55Z</time>
      </trkpt>
      <trkpt lat="48.36488" lon="2.80681">
        <ele>81.14</ele>
        <time>2022-02-17T15:26:00Z</time>
      </trkpt>
      <trkpt lat="48.3649" lon="2.80681">
        <ele>81.17</ele>
        <time>2022-02-17T15:26:05Z</time>
      </trkpt>
      <trkpt lat="48.36491" lon="2.80681">
        <ele>81.29</ele>
        <time>2022-02-17T15:26:10Z</time>
      </trkpt>
      <trkpt lat="48.36491" lon="2.8068">
        <ele>81.38</ele>
        <time>2022-02-17T15:26:15Z</time>
      </trkpt>
      <trkpt lat="48.36491" lon="2.80679">
        <ele>81.4</ele>
        <time>2022-02-17T15:26:20Z</time>
      </trkpt>
      <trkpt lat="48.36492" lon="2.80677">
        <ele>81.41</ele>
        <time>2022-02-17T15:26:25Z</time>
      </trkpt>
      <trkpt lat="48.3649" lon="2.8068">
        <ele>81.33</ele>
        <time>2022-02-17T15:26:30Z</time>
      </trkpt>
      <trkpt lat="48.3649" lon="2.80681">
        <ele>81.21</ele>
        <time>2022-02-17T15:26:35Z</time>
      </trkpt>
      <trkpt lat="48.36488" lon="2.80685">
        <ele>81.15</ele>
        <time>2022-02-17T15:26:40Z</time>
      </trkpt>
      <trkpt lat="48.36487" lon="2.80687">
        <ele>81.05</ele>
        <time>2022-02-17T15:26:45Z</time>
      </trkpt>
      <trkpt lat="48.36487" lon="2.80688">
        <ele>81.05</ele>
        <time>2022-02-17T15:26:50Z</time>
      </trkpt>
      <trkpt lat="48.36489" lon="2.80689">
        <ele>81.05</ele>
        <time>2022-02-17T15:26:55Z</time>
      </trkpt>
      <trkpt lat="48.36489" lon="2.80689">
        <ele>81.05</ele>
        <time>2022-02-17T15:27:00Z</time>
      </trkpt>
      <trkpt lat="48.36488" lon="2.8069">
        <ele>81.05</ele>
        <time>2022-02-17T15:27:05Z</time>
      </trkpt>
      <trkpt lat="48.36488" lon="2.8069">
        <ele>81.05</ele>
        <time>2022-02-17T15:27:10Z</time>
      </trkpt>
      <trkpt lat="48.36488" lon="2.8069">
        <ele>81.05</ele>
        <time>2022-02-17T15:27:15Z</time>
      </trkpt>
      <trkpt lat="48.3649" lon="2.80691">
        <ele>81.05</ele>
        <time>2022-02-17T15:27:20Z</time>
      </trkpt>
      <trkpt lat="48.36494" lon="2.80694">
        <ele>81.05</ele>
        <time>2022-02-17T15:27:25Z</time>
      </trkpt>
      <trkpt lat="48.36498" lon="2.80695">
        <ele>81.05</ele>
        <time>2022-02-17T15:27:30Z</time>
      </trkpt>
      <trkpt lat="48.36501" lon="2.80698">
        <ele>81.05</ele>
        <time>2022-02-17T15:27:35Z</time>
      </trkpt>
      <trkpt lat="48.36504" lon="2.80704">
        <ele>81.05</ele>
        <time>2022-02-17T15:27:40Z</time>
      </trkpt>
      <trkpt lat="48.36505" lon="2.80706">
        <ele>81.05</ele>
        <time>2022-02-17T15:27:45Z</time>
      </trkpt>
      <trkpt lat="48.36506" lon="2.80707">
        <ele>81.05</ele>
        <time>2022-02-17T15:27:50Z</time>
      </trkpt>
      <trkpt lat="48.36507" lon="2.80706">
        <ele>81.05</ele>
        <time>2022-02-17T15:27:55Z</time>
      </trkpt>
      <trkpt lat="48.36511" lon="2.80708">
        <ele>81.05</ele>
        <time>2022-02-17T15:28:00Z</time>
      </trkpt>
      <trkpt lat="48.36513" lon="2.8071">
        <ele>81.05</ele>
        <time>2022-02-17T15:28:05Z</time>
      </trkpt>
      <trkpt lat="48.36516" lon="2.8071">
        <ele>81.05</ele>
        <time>2022-02-17T15:28:10Z</time>
      </trkpt>
      <trkpt lat="48.36521" lon="2.80713">
        <ele>81.1</ele>
        <time>2022-02-17T15:28:15Z</time>
      </trkpt>
      <trkpt lat="48.36524" lon="2.80715">
        <ele>81.51</ele>
        <time>2022-02-17T15:28:20Z</time>
      </trkpt>
      <trkpt lat="48.3653" lon="2.8072">
        <ele>81.64</ele>
        <time>2022-02-17T15:28:25Z</time>
      </trkpt>
      <trkpt lat="48.36532" lon="2.80731">
        <ele>81.81</ele>
        <time>2022-02-17T15:28:30Z</time>
      </trkpt>
      <trkpt lat="48.36536" lon="2.80743">
        <ele>81.96</ele>
        <time>2022-02-17T15:28:35Z</time>
      </trkpt>
      <trkpt lat="48.36545" lon="2.80746">
        <ele>82.03</ele>
        <time>2022-02-17T15:28:40Z</time>
      </trkpt>
      <trkpt lat="48.36551" lon="2.80749">
        <ele>82.13</ele>
        <time>2022-02-17T15:28:45Z</time>
      </trkpt>
      <trkpt lat="48.36556" lon="2.8075">
        <ele>82.23</ele>
        <time>2022-02-17T15:28:50Z</time>
      </trkpt>
      <trkpt lat="48.36562" lon="2.80753">
        <ele>82.32</ele>
        <time>2022-02-17T15:28:55Z</time>
      </trkpt>
      <trkpt lat="48.36569" lon="2.80757">
        <ele>82.39</ele>
        <time>2022-02-17T15:29:00Z</time>
      </trkpt>
      <trkpt lat="48.36574" lon="2.80759">
        <ele>82.5</ele>
        <time>2022-02-17T15:29:05Z</time>
      </trkpt>
      <trkpt lat="48.36578" lon="2.80763">
        <ele>82.53</ele>
        <time>2022-02-17T15:29:10Z</time>
      </trkpt>
      <trkpt lat="48.36582" lon="2.80771">
        <ele>82.74</ele>
        <time>2022-02-17T15:29:15Z</time>
      </trkpt>
      <trkpt lat="48.36587" lon="2.80777">
        <ele>82.83</ele>
        <time>2022-02-17T15:29:20Z</time>
      </trkpt>
      <trkpt lat="48.36592" lon="2.80778">
        <ele>82.81</ele>
        <time>2022-02-17T15:29:25Z</time>
      </trkpt>
      <trkpt lat="48.36596" lon="2.80777">
        <ele>82.84</ele>
        <time>2022-02-17T15:29:30Z</time>
      </trkpt>
      <trkpt lat="48.36601" lon="2.80777">
        <ele>82.85</ele>
        <time>2022-02-17T15:29:35Z</time>
      </trkpt>
      <trkpt lat="48.36605" lon="2.80778">
        <ele>82.94</ele>
        <time>2022-02-17T15:29:40Z</time>
      </trkpt>
      <trkpt lat="48.36608" lon="2.80781">
        <ele>83.05</ele>
        <time>2022-02-17T15:29:45Z</time>
      </trkpt>
      <trkpt lat="48.36614" lon="2.80785">
        <ele>83.2</ele>
        <time>2022-02-17T15:29:50Z</time>
      </trkpt>
      <trkpt lat="48.36618" lon="2.80788">
        <ele>83.28</ele>
        <time>2022-02-17T15:29:55Z</time>
      </trkpt>
      <trkpt lat="48.36621" lon="2.80791">
        <ele>83.38</ele>
        <time>2022-02-17T15:30:00Z</time>
      </trkpt>
      <trkpt lat="48.36625" lon="2.80793">
        <ele>83.47</ele>
        <time>2022-02-17T15:30:05Z</time>
      </trkpt>
      <trkpt lat="48.36626" lon="2.80794">
        <ele>83.57</ele>
        <time>2022-02-17T15:30:10Z</time>
      </trkpt>
      <trkpt lat="48.36626" lon="2.80794">
        <ele>83.59</ele>
        <time>2022-02-17T15:30:15Z</time>
      </trkpt>
      <trkpt lat="48.36627" lon="2.80794">
        <ele>83.56</ele>
        <time>2022-02-17T15:30:20Z</time>
      </trkpt>
      <trkpt lat="48.36627" lon="2.80793">
        <ele>83.72</ele>
        <time>2022-02-17T15:30:25Z</time>
      </trkpt>
      <trkpt lat="48.36627" lon="2.80791">
        <ele>83.79</ele>
        <time>2022-02-17T15:30:30Z</time>
      </trkpt>
      <trkpt lat="48.36627" lon="2.8079">
        <ele>83.79</ele>
        <time>2022-02-17T15:30:35Z</time>
      </trkpt>
      <trkpt lat="48.36627" lon="2.8079">
        <ele>83.79</ele>
        <time>2022-02-17T15:30:40Z</time>
      </trkpt>
      <trkpt lat="48.3663" lon="2.80795">
        <ele>83.78</ele>
        <time>2022-02-17T15:30:45Z</time>
      </trkpt>
      <trkpt lat="48.36635" lon="2.80795">
        <ele>83.78</ele>
        <time>2022-02-17T15:30:50Z</time>
      </trkpt>
      <trkpt lat="48.36638" lon="2.80794">
        <ele>83.86</ele>
        <time>2022-02-17T15:30:55Z</time>
      </trkpt>
      <trkpt lat="48.3664" lon="2.80796">
        <ele>83.78</ele>
        <time>2022-02-17T15:31:00Z</time>
      </trkpt>
      <trkpt lat="48.36641" lon="2.80798">
        <ele>84.05</ele>
        <time>2022-02-17T15:31:05Z</time>
      </trkpt>
      <trkpt lat="48.36643" lon="2.808">
        <ele>84.89</ele>
        <time>2022-02-17T15:31:10Z</time>
      </trkpt>
      <trkpt lat="48.36643" lon="2.80803">
        <ele>85.94</ele>
        <time>2022-02-17T15:31:15Z</time>
      </trkpt>
      <trkpt lat="48.36644" lon="2.80807">
        <ele>86.47</ele>
        <time>2022-02-17T15:31:20Z</time>
      </trkpt>
      <trkpt lat="48.36644" lon="2.80808">
        <ele>86.67</ele>
        <time>2022-02-17T15:31:25Z</time>
      </trkpt>
      <trkpt lat="48.36645" lon="2.80808">
        <ele>86.65</ele>
        <time>2022-02-17T15:31:30Z</time>
      </trkpt>
      <trkpt lat="48.36647" lon="2.8081">
        <ele>86.58</ele>
        <time>2022-02-17T15:31:35Z</time>
      </trkpt>
      <trkpt lat="48.36649" lon="2.8081">
        <ele>86.62</ele>
        <time>2022-02-17T15:31:40Z</time>
      </trkpt>
      <trkpt lat="48.36649" lon="2.80812">
        <ele>86.59</ele>
        <time>2022-02-17T15:31:45Z</time>
      </trkpt>
      <trkpt lat="48.36649" lon="2.80813">
        <ele>86.62</ele>
        <time>2022-02-17T15:31:50Z</time>
      </trkpt>
      <trkpt lat="48.36648" lon="2.80814">
        <ele>86.89</ele>
        <time>2022-02-17T15:31:55Z</time>
      </trkpt>
      <trkpt lat="48.36647" lon="2.80815">
        <ele>86.85</ele>
        <time>2022-02-17T15:32:00Z</time>
      </trkpt>
      <trkpt lat="48.36647" lon="2.80816">
        <ele>86.54</ele>
        <time>2022-02-17T15:32:05Z</time>
      </trkpt>
      <trkpt lat="48.36648" lon="2.80817">
        <ele>86.33</ele>
        <time>2022-02-17T15:32:10Z</time>
      </trkpt>
      <trkpt lat="48.36648" lon="2.80818">
        <ele>86.74</ele>
        <time>2022-02-17T15:32:15Z</time>
      </trkpt>
      <trkpt lat="48.36648" lon="2.80819">
        <ele>87.15</ele>
        <time>2022-02-17T15:32:20Z</time>
      </trkpt>
      <trkpt lat="48.36648" lon="2.8082">
        <ele>87.36</ele>
        <time>2022-02-17T15:32:22Z</time>
      </trkpt>
    </trkseg>
  </trk>
</gpx>